[[{"header":{"parameterUnit":"m.s-1","parameterCategory":1,"la1":31.0,"la2":29.5877,"lo1":-88.7671,"lo2":-86.6584,"dy":0.0162,"dx":0.0185,"nx":115,"ny":88,"refTime":"2024-06-10T12:00:00:Z","depth":0,"parameterNumber":2,"parameterNumberName":"U-component_of_WINDS"},"data":[0.0,0.0,0.0,0.0,0.0,0.0,0.0,0.0,0.0,0.0,0.0,0.0,0.0,0.0,0.0,0.0,0.0,0.0,0.0,0.0,0.0,0.0,0.0,0.0,0.0,0.0,0.0,0.0,0.0,0.0,0.0,0.0,0.0,0.0,0.0,0.0,0.0,0.0,0.0,0.0,0.0,0.0,0.0,0.0,0.0,0.0,0.0,0.0,0.0,0.0,0.0,0.0,0.0,0.0,0.0,0.0,0.0,0.0,0.0,0.0,0.0,0.0,0.0,0.0,0.0,0.0,0.0,0.0,0.0,0.0,0.0,0.0,0.0,0.0,0.0,0.0,0.0,0.0,0.0,0.0,0.0,0.0,0.0,0.0,0.0,0.0,0.0,0.0,0.0,0.0,0.0,0.0,0.0,0.0,0.0,0.0,0.0,0.0,0.0,0.0,0.0,0.0,0.0,0.0,0.0,0.0,0.0,0.0,0.0,0.0,0.0,0.0,0.0,0.0,0.0,0.0,0.0,0.0,0.0,0.0,0.0,0.0,0.0,0.0,0.0,0.0,0.0,0.0,0.0,0.0,0.0,0.0,0.0,0.0,0.0,0.0,0.0,0.0,0.0,0.0,0.0,0.0,0.0,0.0,0.0,0.0,0.0,0.0,0.0,0.0,0.0,0.0,0.0,0.0,0.0,0.0,0.0,0.0,0.0,0.0,0.0,0.0,0.0,0.0,0.0,0.0,0.0,0.0,0.0,0.0,0.0,0.0,0.0,0.0,0.0,0.0,0.0,0.0,0.0,0.0,0.0,0.0,0.0,0.0,0.0,0.0,0.0,0.0,0.0,0.0,0.0,0.0,0.0,0.0,0.0,0.0,0.0,0.0,0.0,0.0,0.0,0.0,0.0,0.0,0.0,0.0,0.0,0.0,0.0,0.0,0.0,0.0,0.0,0.0,0.0,0.0,0.0,0.0,0.0,0.0,0.0,0.0,0.0,0.0,0.0,0.0,0.0,0.0,0.0,0.0,0.0,0.0,0.0,0.0,0.0,0.0,0.0,0.0,0.0,0.0,0.0,0.0,0.0,0.0,0.0,0.0,0.0,0.0,0.0,0.0,0.0,0.0,0.0,0.0,0.0,0.0,0.0,0.0,0.0,0.0,0.0,0.0,0.0,0.0,0.0,0.0,0.0,0.0,0.0,0.0,0.0,0.0,0.0,0.0,0.0,0.0,0.0,0.0,0.0,0.0,0.0,0.0,0.0,0.0,0.0,0.0,0.0,0.0,0.0,0.0,0.0,0.0,0.0,0.0,0.0,0.0,0.0,0.0,0.0,0.0,0.0,0.0,0.0,0.0,0.0,0.0,0.0,0.0,0.0,0.0,0.0,0.0,0.0,0.0,0.0,0.0,0.0,0.0,0.0,0.0,0.0,0.0,0.0,0.0,0.0,0.0,0.0,0.0,0.0,0.0,0.0,0.0,0.0,0.0,0.0,0.0,0.0,0.0,0.0,0.0,0.0,0.0,0.0,0.0,0.0,0.0,0.0,0.0,0.0,0.0,0.0,0.0,0.0,0.0,0.0,0.0,0.0,0.0,0.0,0.0,0.0,0.0,0.0,0.0,0.0,0.0,0.0,0.0,0.0,0.0,0.0,0.0,0.0,0.0,0.0,0.0,0.0,0.0,0.0,0.0,0.0,0.0,0.0,0.0,0.0,0.0,0.0,0.0,0.0,0.0,0.0,0.0,0.0,0.0,0.0,0.0,0.0,0.0,0.0,0.0,0.0,0.0,0.0,0.0,0.0,0.0,0.0,0.0,0.0,0.0,0.0,0.0,0.0,0.0,0.0,0.0,0.0,0.0,0.0,0.0,0.0,0.0,0.0,0.0,0.0,0.0,0.0,0.0,0.0,0.0,0.0,0.0,0.0,0.0,0.0,0.0,0.0,0.0,0.0,0.0,0.0,0.0,0.0,0.0,0.0,0.0,0.0,0.0,0.0,0.0,0.0,0.0,0.0,0.0,0.0,0.0,0.0,0.0,0.0,0.0,0.0,0.0,0.0,0.0,0.0,0.0,0.0,0.0,0.0,0.0,0.0,0.0,0.0,0.0,0.0,0.0,0.0,0.0,0.0,0.0,0.0,0.0,0.0,0.0,0.0,0.0,0.0,0.0,0.0,0.0,0.0,0.0,0.0,0.0,0.0,0.0,0.0,0.0,0.0,0.0,0.0,0.0,0.0,0.0,0.0,0.0,0.0,0.0,0.0,0.0,0.0,0.0,0.0,0.0,0.0,0.0,0.0,0.0,0.0,0.0,0.0,0.0,0.0,0.0,0.0,0.0,0.0,0.0,0.0,0.0,0.0,0.0,0.0,0.0,0.0,0.0,0.0,0.0,0.0,0.0,0.0,0.0,0.0,0.0,0.0,0.0,0.0,0.0,0.0,0.0,0.0,0.0,0.0,0.0,0.0,0.0,0.0,0.0,0.0,0.0,0.0,0.0,0.0,0.0,0.0,0.0,0.0,0.0,0.0,0.0,0.0,0.0,0.0,0.0,0.0,0.0,0.0,0.0,0.0,0.0,0.0,0.0,0.0,0.0,0.0,0.0,0.0,0.0,0.0,0.0,0.0,0.0,0.0,0.0,0.0,0.0,0.0,0.0,0.0,0.0,0.0,0.0,0.0,0.0,0.0,0.0,0.0,0.0,0.0,0.0,0.0,0.0,0.0,0.0,0.0,0.0,0.0,0.0,0.0,0.0,0.0,0.0,0.0,0.0,0.0,0.0,0.0,0.0,0.0,0.0,0.0,0.0,0.0,0.0,0.0,0.0,0.0,0.0,0.0,0.0,0.0,0.0,0.0,0.0,0.0,0.0,0.0,0.0,0.0,0.0,0.0,0.0,0.0,0.0,0.0,0.0,0.0,0.0,0.0,0.0,0.0,0.0,0.0,0.0,0.0,0.0,0.0,0.0,0.0,0.0,0.0,0.0,0.0,0.0,0.0,0.0,0.0,0.0,0.0,0.0,0.0,0.0,0.0,0.0,0.0,0.0,0.0,0.0,0.0,0.0,0.0,0.0,0.0,0.0,0.0,0.0,0.0,0.0,0.0,0.0,0.0,0.0,0.0,0.0,0.0,0.0,0.0,0.0,0.0,0.0,0.0,0.0,0.0,0.0,0.0,0.0,0.0,0.0,0.0,0.0,0.0,0.0,0.0,0.0,0.0,0.0,0.0,0.0,0.0,0.0,0.0,0.0,0.0,0.0,0.0,0.0,0.0,0.0,0.0,0.0,0.0,0.0,0.0,0.0,0.0,0.0,0.0,0.0,0.0,0.0,0.0,0.0,0.0,0.0,0.0,0.0,0.0,0.0,0.0,0.0,0.0,0.0,0.0,0.0,0.0,0.0,0.0,0.0,0.0,0.0,0.0,0.0,0.0,0.0,0.0,0.0,0.0,0.0,0.0,0.0,0.0,0.0,0.0,0.0,0.0,0.0,0.0,0.0,0.0,0.0,0.0,0.0,0.0,0.0,0.0,0.0,0.0,0.0,0.0,0.0,0.0,0.0,0.0,0.0,0.0,0.0,0.0,0.0,0.0,0.0,0.0,0.0,0.0,0.0,0.0,0.0,0.0,0.0,0.0,0.0,0.0,0.0,0.0,0.0,0.0,0.0,0.0,0.0,0.0,0.0,0.0,0.0,0.0,0.0,0.0,0.0,0.0,0.0,0.0,0.0,0.0,0.0,0.0,0.0,0.0,0.0,0.0,0.0,0.0,0.0,0.0,0.0,0.0,0.0,0.0,0.0,0.0,0.0,0.0,0.0,0.0,0.0,0.0,0.0,0.0,0.0,0.0,0.0,0.0,0.0,0.0,0.0,0.0,0.0,0.0,0.0,0.0,0.0,0.0,0.0,0.0,0.0,0.0,0.0,0.0,0.0,0.0,0.0,0.0,0.0,0.0,0.0,0.0,0.0,0.0,0.0,0.0,0.0,0.0,0.0,0.0,0.0,0.0,0.0,0.0,0.0,0.0,0.0,0.0,0.0,0.0,0.0,0.0,0.0,0.0,0.0,0.0,0.0,0.0,0.0,0.0,0.0,0.0,0.0,0.0,0.0,0.0,0.0,0.0,0.0,0.0,0.0,0.0,0.0,0.0,0.0,0.0,0.0,0.0,0.0,0.0,0.0,0.0,0.0,0.0,0.0,0.0,0.0,0.0,0.0,0.0,0.0,0.0,0.0,0.0,0.0,0.0,0.0,0.0,0.0,0.0,0.0,0.0,0.0,0.0,0.0,-3.7448,0.0,0.0,0.0,0.0,0.0,0.0,0.0,0.0,0.0,0.0,0.0,0.0,0.0,0.0,0.0,0.0,0.0,0.0,0.0,0.0,0.0,0.0,0.0,0.0,0.0,0.0,0.0,0.0,0.0,0.0,0.0,0.0,0.0,0.0,0.0,0.0,0.0,0.0,0.0,0.0,0.0,0.0,0.0,0.0,0.0,0.0,0.0,0.0,0.0,0.0,0.0,0.0,0.0,0.0,0.0,0.0,0.0,0.0,0.0,0.0,0.0,0.0,0.0,0.0,0.0,0.0,0.0,0.0,0.0,0.0,0.0,0.0,0.0,0.0,0.0,0.0,0.0,0.0,0.0,0.0,0.0,0.0,0.0,0.0,0.0,0.0,0.0,0.0,0.0,0.0,0.0,0.0,0.0,0.0,0.0,0.0,0.0,0.0,0.0,0.0,0.0,0.0,0.0,0.0,0.0,0.0,0.0,0.0,0.0,0.0,-4.2526,-4.2396,-4.1675,-4.0707,-3.9575,0.0,0.0,0.0,0.0,0.0,0.0,0.0,0.0,0.0,0.0,0.0,0.0,0.0,0.0,0.0,0.0,0.0,0.0,0.0,0.0,0.0,0.0,0.0,0.0,0.0,0.0,0.0,0.0,0.0,0.0,0.0,0.0,0.0,0.0,0.0,0.0,0.0,0.0,0.0,0.0,0.0,0.0,0.0,0.0,0.0,0.0,0.0,0.0,0.0,0.0,0.0,0.0,0.0,0.0,0.0,0.0,0.0,0.0,0.0,0.0,0.0,0.0,0.0,0.0,0.0,0.0,0.0,0.0,0.0,0.0,0.0,0.0,0.0,0.0,0.0,0.0,0.0,0.0,0.0,0.0,0.0,0.0,0.0,0.0,0.0,0.0,0.0,0.0,0.0,0.0,0.0,0.0,0.0,0.0,0.0,0.0,0.0,0.0,0.0,0.0,0.0,0.0,0.0,0.0,0.0,0.0,0.0,0.0,0.0,0.0,0.0,0.0,-4.3217,-4.2271,-4.0931,0.0,0.0,0.0,0.0,0.0,0.0,0.0,0.0,0.0,0.0,0.0,0.0,0.0,0.0,0.0,0.0,0.0,0.0,0.0,0.0,0.0,0.0,0.0,0.0,0.0,0.0,0.0,0.0,0.0,0.0,0.0,0.0,0.0,0.0,0.0,0.0,0.0,0.0,0.0,0.0,0.0,0.0,0.0,0.0,0.0,0.0,0.0,0.0,0.0,0.0,0.0,0.0,0.0,0.0,0.0,0.0,0.0,0.0,0.0,0.0,0.0,0.0,0.0,0.0,0.0,0.0,0.0,0.0,0.0,0.0,0.0,0.0,0.0,0.0,0.0,0.0,0.0,0.0,0.0,0.0,0.0,0.0,0.0,0.0,0.0,0.0,0.0,0.0,0.0,0.0,0.0,0.0,0.0,0.0,0.0,0.0,0.0,0.0,0.0,0.0,0.0,0.0,0.0,0.0,0.0,0.0,0.0,0.0,0.0,0.0,-4.5364,-4.4968,-4.4982,0.0,-4.0678,0.0,0.0,0.0,0.0,0.0,0.0,0.0,0.0,0.0,0.0,0.0,0.0,0.0,0.0,0.0,0.0,0.0,0.0,0.0,0.0,0.0,0.0,0.0,0.0,0.0,0.0,0.0,0.0,0.0,0.0,0.0,0.0,0.0,0.0,0.0,0.0,0.0,0.0,0.0,0.0,0.0,0.0,0.0,0.0,0.0,0.0,0.0,0.0,0.0,0.0,0.0,0.0,0.0,0.0,0.0,0.0,0.0,0.0,0.0,0.0,0.0,0.0,0.0,0.0,0.0,0.0,0.0,0.0,0.0,0.0,0.0,0.0,0.0,0.0,0.0,0.0,0.0,0.0,0.0,0.0,0.0,0.0,0.0,0.0,0.0,0.0,0.0,0.0,0.0,0.0,0.0,0.0,0.0,0.0,0.0,0.0,0.0,0.0,0.0,0.0,0.0,0.0,0.0,0.0,0.0,0.0,0.0,0.0,0.0,0.0,-4.6264,-4.6241,-4.5449,-4.3732,0.0,0.0,0.0,0.0,0.0,0.0,0.0,0.0,0.0,0.0,0.0,0.0,0.0,0.0,0.0,0.0,0.0,0.0,0.0,0.0,0.0,0.0,0.0,0.0,0.0,0.0,0.0,0.0,0.0,0.0,0.0,0.0,0.0,0.0,0.0,0.0,0.0,0.0,0.0,0.0,0.0,0.0,0.0,0.0,0.0,0.0,0.0,0.0,0.0,0.0,0.0,0.0,0.0,0.0,0.0,0.0,0.0,0.0,0.0,0.0,0.0,0.0,0.0,0.0,0.0,0.0,0.0,0.0,0.0,0.0,0.0,0.0,0.0,0.0,0.0,0.0,0.0,0.0,0.0,0.0,0.0,0.0,0.0,0.0,0.0,0.0,0.0,0.0,0.0,0.0,0.0,0.0,0.0,0.0,0.0,0.0,0.0,0.0,0.0,0.0,0.0,0.0,0.0,0.0,0.0,0.0,0.0,0.0,0.0,0.0,-4.6194,-4.6875,-4.7138,-4.5788,-4.3976,-4.1818,0.0,0.0,0.0,0.0,0.0,0.0,0.0,0.0,0.0,0.0,0.0,0.0,0.0,0.0,0.0,0.0,0.0,0.0,0.0,0.0,0.0,0.0,0.0,0.0,0.0,0.0,0.0,0.0,0.0,0.0,0.0,0.0,0.0,0.0,0.0,0.0,0.0,0.0,0.0,0.0,0.0,0.0,0.0,0.0,0.0,0.0,0.0,0.0,0.0,0.0,0.0,0.0,0.0,0.0,0.0,0.0,0.0,0.0,0.0,0.0,0.0,0.0,0.0,0.0,0.0,0.0,0.0,0.0,0.0,0.0,0.0,0.0,0.0,0.0,0.0,0.0,0.0,0.0,0.0,0.0,0.0,0.0,0.0,0.0,0.0,0.0,0.0,0.0,0.0,0.0,0.0,0.0,0.0,0.0,0.0,0.0,0.0,0.0,0.0,0.0,0.0,0.0,0.0,0.0,0.0,0.0,0.0,0.0,0.0,-4.6817,-4.7288,-4.7695,-4.6265,-4.4628,0.0,0.0,0.0,0.0,0.0,0.0,0.0,0.0,0.0,0.0,0.0,0.0,0.0,0.0,0.0,0.0,0.0,0.0,0.0,0.0,0.0,0.0,0.0,0.0,0.0,0.0,0.0,0.0,0.0,0.0,0.0,0.0,0.0,0.0,0.0,0.0,0.0,0.0,0.0,0.0,0.0,0.0,0.0,0.0,0.0,0.0,0.0,0.0,0.0,0.0,0.0,0.0,0.0,0.0,0.0,0.0,0.0,0.0,0.0,0.0,0.0,0.0,0.0,0.0,0.0,0.0,0.0,0.0,0.0,0.0,0.0,0.0,0.0,0.0,0.0,0.0,0.0,0.0,0.0,0.0,0.0,0.0,0.0,0.0,0.0,0.0,0.0,0.0,0.0,0.0,0.0,0.0,0.0,0.0,0.0,0.0,0.0,0.0,0.0,0.0,0.0,0.0,0.0,0.0,0.0,0.0,0.0,0.0,0.0,-4.6653,-4.7266,-4.7669,-4.7858,-4.6383,-4.478,0.0,0.0,0.0,0.0,0.0,0.0,0.0,0.0,0.0,0.0,0.0,0.0,0.0,0.0,0.0,0.0,0.0,0.0,0.0,0.0,0.0,0.0,0.0,0.0,0.0,0.0,0.0,0.0,0.0,0.0,0.0,0.0,0.0,0.0,0.0,0.0,0.0,0.0,0.0,0.0,0.0,0.0,0.0,0.0,0.0,0.0,0.0,0.0,0.0,0.0,0.0,0.0,0.0,0.0,0.0,0.0,0.0,0.0,0.0,0.0,0.0,0.0,0.0,0.0,0.0,0.0,0.0,0.0,0.0,0.0,0.0,0.0,0.0,0.0,0.0,0.0,0.0,0.0,0.0,0.0,0.0,0.0,0.0,0.0,0.0,0.0,0.0,0.0,0.0,0.0,0.0,0.0,0.0,0.0,0.0,0.0,0.0,0.0,0.0,0.0,0.0,0.0,0.0,0.0,0.0,0.0,0.0,0.0,0.0,-4.7128,0.0,-4.7974,0.0,-4.652,-4.5058,0.0,0.0,0.0,0.0,0.0,0.0,0.0,0.0,0.0,0.0,0.0,0.0,0.0,0.0,0.0,0.0,0.0,0.0,0.0,0.0,0.0,0.0,0.0,0.0,0.0,0.0,0.0,0.0,0.0,0.0,0.0,0.0,0.0,0.0,0.0,0.0,0.0,0.0,0.0,0.0,0.0,0.0,0.0,0.0,0.0,0.0,0.0,0.0,0.0,0.0,0.0,0.0,0.0,0.0,0.0,0.0,0.0,0.0,0.0,0.0,0.0,0.0,0.0,0.0,0.0,0.0,0.0,0.0,0.0,0.0,0.0,0.0,0.0,0.0,0.0,0.0,0.0,0.0,0.0,0.0,0.0,0.0,0.0,0.0,0.0,0.0,0.0,0.0,0.0,0.0,0.0,0.0,0.0,0.0,0.0,0.0,0.0,0.0,0.0,0.0,0.0,0.0,0.0,0.0,0.0,0.0,0.0,0.0,-4.6306,-4.7754,-4.8105,-4.8318,-4.8288,-4.6782,-4.5517,0.0,0.0,0.0,0.0,0.0,0.0,0.0,0.0,0.0,0.0,0.0,0.0,0.0,0.0,0.0,0.0,0.0,0.0,0.0,0.0,0.0,0.0,0.0,0.0,0.0,0.0,0.0,0.0,0.0,0.0,0.0,0.0,0.0,0.0,0.0,0.0,0.0,0.0,0.0,0.0,0.0,0.0,0.0,0.0,0.0,0.0,0.0,0.0,0.0,0.0,0.0,0.0,0.0,0.0,0.0,0.0,0.0,0.0,0.0,0.0,0.0,0.0,0.0,0.0,0.0,0.0,0.0,0.0,0.0,0.0,0.0,0.0,0.0,0.0,0.0,0.0,0.0,0.0,0.0,0.0,0.0,0.0,0.0,0.0,0.0,0.0,0.0,0.0,0.0,0.0,0.0,0.0,0.0,0.0,0.0,0.0,0.0,0.0,0.0,0.0,0.0,0.0,0.0,0.0,0.0,0.0,0.0,0.0,0.0,-4.8751,-4.9578,-4.9735,-4.9169,-4.759,-4.6067,0.0,0.0,0.0,0.0,0.0,0.0,0.0,0.0,0.0,0.0,0.0,0.0,0.0,0.0,0.0,0.0,0.0,0.0,0.0,0.0,0.0,0.0,0.0,0.0,0.0,0.0,0.0,0.0,0.0,0.0,0.0,0.0,0.0,0.0,0.0,0.0,0.0,0.0,0.0,0.0,0.0,0.0,0.0,0.0,0.0,0.0,0.0,0.0,0.0,0.0,0.0,0.0,0.0,0.0,0.0,0.0,0.0,0.0,0.0,0.0,0.0,0.0,0.0,0.0,0.0,0.0,0.0,0.0,0.0,0.0,0.0,0.0,0.0,0.0,0.0,0.0,0.0,0.0,0.0,0.0,0.0,0.0,0.0,0.0,0.0,0.0,0.0,0.0,0.0,0.0,0.0,0.0,0.0,0.0,0.0,0.0,0.0,0.0,0.0,0.0,0.0,0.0,0.0,0.0,0.0,0.0,0.0,0.0,0.0,-5.0151,-5.0593,-5.0417,-4.961,-4.8269,-4.6782,-4.5168,0.0,0.0,0.0,0.0,0.0,0.0,0.0,0.0,0.0,0.0,0.0,0.0,0.0,0.0,0.0,0.0,0.0,0.0,0.0,0.0,0.0,0.0,0.0,0.0,0.0,0.0,0.0,0.0,0.0,0.0,0.0,0.0,0.0,0.0,0.0,0.0,0.0,0.0,0.0,0.0,0.0,0.0,0.0,0.0,0.0,0.0,0.0,0.0,0.0,0.0,0.0,0.0,0.0,0.0,0.0,0.0,0.0,0.0,0.0,0.0,0.0,0.0,0.0,0.0,0.0,0.0,0.0,0.0,0.0,0.0,0.0,0.0,0.0,0.0,0.0,0.0,0.0,0.0,0.0,0.0,0.0,0.0,0.0,0.0,0.0,0.0,0.0,0.0,0.0,0.0,0.0,0.0,0.0,0.0,0.0,0.0,0.0,0.0,0.0,0.0,0.0,0.0,0.0,0.0,0.0,0.0,0.0,0.0,-5.1849,-5.1257,-5.0582,-4.9776,-4.8857,-4.7627,0.0,0.0,0.0,0.0,0.0,0.0,0.0,0.0,0.0,0.0,0.0,0.0,0.0,0.0,0.0,0.0,0.0,0.0,0.0,0.0,0.0,0.0,0.0,0.0,0.0,0.0,0.0,0.0,0.0,0.0,0.0,0.0,0.0,0.0,0.0,0.0,0.0,0.0,0.0,0.0,0.0,0.0,0.0,0.0,0.0,0.0,0.0,0.0,0.0,0.0,0.0,0.0,0.0,0.0,0.0,0.0,0.0,0.0,0.0,0.0,0.0,0.0,0.0,0.0,0.0,0.0,0.0,0.0,0.0,0.0,0.0,0.0,0.0,0.0,0.0,0.0,0.0,0.0,0.0,0.0,0.0,0.0,0.0,0.0,0.0,0.0,0.0,0.0,0.0,0.0,0.0,0.0,0.0,0.0,0.0,0.0,0.0,0.0,0.0,0.0,0.0,0.0,0.0,0.0,0.0,0.0,0.0,0.0,0.0,-5.276,-5.2653,-5.2197,-5.1353,-4.9958,-4.8434,0.0,0.0,0.0,0.0,0.0,0.0,0.0,0.0,0.0,0.0,0.0,0.0,0.0,0.0,0.0,0.0,0.0,0.0,0.0,0.0,0.0,0.0,0.0,0.0,0.0,0.0,0.0,0.0,0.0,0.0,0.0,0.0,0.0,0.0,0.0,0.0,0.0,0.0,0.0,0.0,0.0,0.0,0.0,0.0,0.0,0.0,0.0,0.0,0.0,0.0,0.0,0.0,0.0,0.0,0.0,0.0,0.0,0.0,0.0,0.0,0.0,0.0,0.0,0.0,0.0,0.0,0.0,0.0,0.0,0.0,0.0,0.0,0.0,0.0,0.0,0.0,0.0,0.0,0.0,0.0,0.0,0.0,0.0,0.0,0.0,0.0,0.0,0.0,0.0,0.0,0.0,0.0,0.0,0.0,0.0,0.0,0.0,0.0,0.0,0.0,0.0,0.0,0.0,0.0,0.0,0.0,0.0,0.0,-5.1451,-5.3148,-5.3185,-5.2986,-5.2527,-5.0912,-4.9114,0.0,0.0,0.0,0.0,0.0,0.0,0.0,0.0,0.0,0.0,0.0,0.0,0.0,0.0,0.0,0.0,0.0,0.0,0.0,0.0,0.0,0.0,0.0,0.0,0.0,0.0,0.0,0.0,0.0,0.0,0.0,0.0,0.0,0.0,0.0,0.0,0.0,0.0,0.0,0.0,0.0,0.0,0.0,0.0,0.0,0.0,0.0,0.0,0.0,0.0,0.0,0.0,0.0,0.0,0.0,0.0,0.0,0.0,0.0,0.0,0.0,0.0,0.0,0.0,0.0,0.0,0.0,0.0,0.0,0.0,0.0,0.0,0.0,0.0,0.0,0.0,0.0,0.0,0.0,0.0,0.0,0.0,0.0,0.0,0.0,0.0,0.0,0.0,0.0,0.0,0.0,0.0,0.0,0.0,0.0,0.0,0.0,0.0,0.0,0.0,0.0,0.0,0.0,0.0,0.0,0.0,0.0,0.0,-5.1451,-5.313,-5.3185,-5.3185,-5.3148,-5.1646,-4.9738,0.0,0.0,0.0,0.0,0.0,0.0,0.0,0.0,0.0,0.0,0.0,0.0,0.0,0.0,0.0,0.0,0.0,0.0,0.0,0.0,0.0,0.0,0.0,0.0,0.0,0.0,0.0,0.0,0.0,0.0,0.0,0.0,0.0,0.0,0.0,0.0,0.0,0.0,0.0,0.0,0.0,0.0,0.0,0.0,0.0,0.0,0.0,0.0,0.0,0.0,0.0,0.0,0.0,0.0,0.0,0.0,0.0,0.0,0.0,0.0,0.0,0.0,0.0,0.0,0.0,0.0,0.0,0.0,0.0,0.0,0.0,0.0,0.0,0.0,0.0,0.0,0.0,0.0,0.0,0.0,0.0,0.0,0.0,0.0,0.0,0.0,0.0,0.0,0.0,0.0,0.0,0.0,0.0,0.0,0.0,0.0,0.0,0.0,0.0,0.0,0.0,0.0,0.0,0.0,0.0,0.0,0.0,0.0,-5.1552,-5.313,-5.3185,-5.3185,-5.3185,-5.1665,-5.0251,0.0,0.0,0.0,0.0,0.0,0.0,0.0,0.0,0.0,0.0,0.0,0.0,0.0,0.0,0.0,0.0,0.0,0.0,0.0,0.0,0.0,0.0,0.0,0.0,0.0,0.0,0.0,0.0,0.0,0.0,0.0,0.0,0.0,0.0,0.0,0.0,0.0,0.0,0.0,0.0,0.0,0.0,0.0,0.0,0.0,0.0,0.0,0.0,-4.597,0.0,0.0,0.0,0.0,0.0,0.0,0.0,0.0,0.0,0.0,0.0,0.0,0.0,0.0,0.0,0.0,0.0,0.0,0.0,0.0,0.0,0.0,0.0,0.0,0.0,0.0,0.0,0.0,0.0,0.0,0.0,0.0,0.0,0.0,0.0,0.0,0.0,0.0,0.0,0.0,0.0,0.0,0.0,0.0,0.0,0.0,0.0,0.0,0.0,0.0,0.0,0.0,0.0,0.0,0.0,0.0,0.0,0.0,0.0,-5.1573,-5.313,-5.3185,-5.3185,-5.313,-5.1646,-5.0398,0.0,0.0,0.0,0.0,0.0,0.0,0.0,0.0,0.0,0.0,0.0,0.0,0.0,0.0,0.0,0.0,0.0,0.0,0.0,0.0,0.0,0.0,0.0,0.0,0.0,0.0,0.0,0.0,0.0,0.0,0.0,0.0,0.0,0.0,0.0,0.0,0.0,0.0,0.0,0.0,0.0,0.0,0.0,0.0,0.0,0.0,0.0,0.0,0.0,0.0,0.0,0.0,0.0,0.0,0.0,0.0,0.0,0.0,0.0,0.0,0.0,0.0,0.0,0.0,0.0,0.0,0.0,0.0,0.0,0.0,0.0,0.0,0.0,0.0,0.0,0.0,0.0,0.0,0.0,0.0,0.0,0.0,0.0,0.0,0.0,0.0,0.0,0.0,0.0,0.0,0.0,0.0,0.0,0.0,0.0,0.0,0.0,0.0,0.0,0.0,0.0,0.0,0.0,0.0,0.0,0.0,0.0,-5.0643,-5.1571,-5.3112,-5.3185,-5.317,-5.2983,-5.1573,-5.0398,-4.9499,0.0,0.0,0.0,0.0,0.0,0.0,0.0,0.0,0.0,0.0,0.0,0.0,0.0,0.0,0.0,0.0,0.0,0.0,0.0,0.0,0.0,0.0,0.0,0.0,0.0,0.0,0.0,0.0,0.0,0.0,0.0,0.0,0.0,0.0,0.0,0.0,0.0,0.0,-4.2937,-4.5096,0.0,0.0,0.0,0.0,0.0,0.0,0.0,0.0,-4.9303,0.0,0.0,0.0,0.0,0.0,0.0,0.0,0.0,0.0,0.0,0.0,0.0,0.0,0.0,0.0,0.0,0.0,0.0,0.0,0.0,0.0,0.0,0.0,0.0,0.0,0.0,0.0,0.0,0.0,0.0,0.0,0.0,0.0,0.0,0.0,0.0,0.0,0.0,0.0,0.0,0.0,0.0,0.0,0.0,0.0,0.0,0.0,0.0,0.0,0.0,0.0,0.0,0.0,0.0,0.0,0.0,-5.0347,-5.0563,-5.1472,-5.313,-5.3185,-5.2894,-5.2197,-5.1279,-5.0417,-4.9555,0.0,0.0,0.0,0.0,0.0,0.0,0.0,0.0,0.0,0.0,0.0,0.0,0.0,0.0,0.0,0.0,0.0,0.0,0.0,0.0,0.0,0.0,0.0,0.0,0.0,0.0,0.0,0.0,0.0,0.0,0.0,0.0,0.0,0.0,0.0,0.0,0.0,0.0,0.0,-4.698,-4.8103,0.0,0.0,0.0,0.0,0.0,0.0,0.0,0.0,-4.9664,0.0,0.0,0.0,0.0,0.0,0.0,0.0,0.0,0.0,0.0,0.0,0.0,0.0,0.0,0.0,0.0,0.0,0.0,0.0,0.0,0.0,0.0,0.0,0.0,0.0,0.0,0.0,0.0,0.0,0.0,0.0,0.0,0.0,0.0,0.0,0.0,0.0,0.0,0.0,0.0,0.0,0.0,0.0,0.0,0.0,0.0,0.0,0.0,0.0,0.0,0.0,0.0,0.0,0.0,0.0,-4.9567,-5.03,-5.1232,-5.2546,-5.2986,-5.2821,-5.1995,-5.1224,-5.0435,0.0,0.0,0.0,0.0,0.0,0.0,0.0,0.0,0.0,0.0,0.0,0.0,0.0,0.0,0.0,0.0,0.0,0.0,0.0,0.0,0.0,0.0,0.0,0.0,0.0,0.0,0.0,0.0,0.0,0.0,0.0,0.0,0.0,0.0,0.0,0.0,0.0,0.0,0.0,0.0,-4.7543,-4.8452,-4.9411,0.0,0.0,0.0,0.0,0.0,0.0,-5.0474,-5.0457,0.0,0.0,0.0,0.0,0.0,0.0,0.0,0.0,0.0,0.0,0.0,0.0,0.0,0.0,0.0,0.0,0.0,0.0,0.0,0.0,0.0,0.0,0.0,0.0,0.0,0.0,0.0,0.0,0.0,0.0,0.0,0.0,0.0,0.0,0.0,0.0,0.0,0.0,0.0,0.0,0.0,0.0,0.0,0.0,0.0,0.0,0.0,0.0,0.0,0.0,0.0,0.0,0.0,0.0,0.0,-4.8753,-4.9964,-5.1005,-5.1896,-5.2556,-5.2501,-5.1694,-5.0888,-5.0026,0.0,0.0,0.0,0.0,0.0,0.0,0.0,0.0,0.0,0.0,0.0,0.0,0.0,0.0,0.0,0.0,0.0,0.0,0.0,0.0,0.0,0.0,0.0,0.0,0.0,0.0,0.0,0.0,0.0,0.0,0.0,0.0,0.0,0.0,0.0,0.0,0.0,0.0,0.0,0.0,0.0,-4.888,-4.9999,-5.0425,0.0,0.0,0.0,0.0,-5.1361,-5.1237,0.0,0.0,0.0,0.0,0.0,0.0,0.0,0.0,0.0,0.0,0.0,0.0,0.0,0.0,0.0,0.0,0.0,0.0,0.0,0.0,0.0,0.0,0.0,0.0,0.0,0.0,0.0,0.0,0.0,0.0,0.0,0.0,0.0,0.0,0.0,0.0,0.0,0.0,0.0,0.0,0.0,0.0,0.0,0.0,0.0,0.0,0.0,0.0,0.0,0.0,0.0,0.0,0.0,0.0,0.0,0.0,-4.785,-4.9498,-5.0772,-5.159,-5.1736,-5.1408,-5.0602,-4.9799,-4.865,0.0,0.0,0.0,0.0,0.0,0.0,0.0,0.0,0.0,0.0,0.0,0.0,0.0,0.0,0.0,0.0,0.0,0.0,0.0,0.0,0.0,0.0,0.0,0.0,0.0,0.0,0.0,0.0,0.0,0.0,0.0,0.0,0.0,0.0,0.0,0.0,0.0,0.0,0.0,0.0,0.0,-5.0033,-5.1009,-5.1609,-5.2269,0.0,0.0,-5.2674,-5.2674,-5.2103,0.0,0.0,0.0,0.0,0.0,0.0,0.0,0.0,0.0,0.0,0.0,0.0,0.0,0.0,0.0,0.0,0.0,0.0,0.0,0.0,0.0,0.0,0.0,0.0,0.0,0.0,0.0,0.0,0.0,0.0,0.0,0.0,0.0,0.0,0.0,0.0,0.0,0.0,0.0,0.0,0.0,0.0,0.0,0.0,0.0,0.0,0.0,0.0,0.0,0.0,0.0,0.0,0.0,0.0,0.0,-4.5265,-4.6758,-4.8952,-5.0297,-5.0751,-5.1187,-5.1042,-5.0243,-4.9525,-4.8402,0.0,0.0,0.0,0.0,0.0,0.0,0.0,0.0,0.0,0.0,0.0,0.0,0.0,0.0,0.0,0.0,0.0,0.0,0.0,0.0,0.0,0.0,0.0,0.0,0.0,0.0,0.0,0.0,0.0,0.0,0.0,0.0,0.0,0.0,0.0,0.0,0.0,0.0,0.0,0.0,0.0,0.0,-5.1531,-5.2072,0.0,0.0,0.0,-5.3891,-5.3496,0.0,0.0,0.0,0.0,0.0,0.0,0.0,0.0,0.0,0.0,0.0,0.0,0.0,0.0,0.0,0.0,0.0,0.0,0.0,0.0,0.0,0.0,0.0,0.0,0.0,0.0,0.0,0.0,0.0,0.0,0.0,0.0,0.0,0.0,0.0,0.0,0.0,0.0,0.0,0.0,0.0,0.0,0.0,0.0,0.0,0.0,0.0,0.0,0.0,0.0,0.0,0.0,0.0,0.0,0.0,0.0,0.0,-4.5622,-4.8335,-4.9807,-4.9911,-5.047,-5.0506,-4.9893,-4.9086,0.0,0.0,0.0,0.0,0.0,0.0,0.0,0.0,0.0,0.0,0.0,0.0,0.0,0.0,0.0,0.0,0.0,0.0,0.0,0.0,0.0,0.0,0.0,0.0,0.0,0.0,0.0,-3.5413,0.0,0.0,0.0,0.0,0.0,0.0,0.0,0.0,0.0,0.0,0.0,0.0,0.0,0.0,-5.0869,-5.2155,-5.2784,-5.3566,0.0,0.0,-5.5045,-5.4522,-5.4109,-5.3636,0.0,0.0,0.0,0.0,0.0,0.0,0.0,0.0,0.0,0.0,0.0,0.0,0.0,0.0,0.0,0.0,0.0,0.0,0.0,0.0,0.0,0.0,0.0,0.0,0.0,0.0,0.0,0.0,0.0,0.0,0.0,0.0,0.0,0.0,0.0,0.0,0.0,0.0,0.0,0.0,0.0,0.0,0.0,0.0,0.0,0.0,0.0,0.0,0.0,0.0,0.0,0.0,0.0,0.0,0.0,-4.4516,-4.7654,-4.9341,-4.9365,-4.9436,-4.9436,-4.9347,-4.8033,-4.6578,0.0,0.0,0.0,0.0,0.0,0.0,0.0,0.0,0.0,0.0,0.0,0.0,0.0,0.0,0.0,0.0,0.0,0.0,0.0,0.0,0.0,0.0,0.0,0.0,0.0,0.0,0.0,0.0,0.0,0.0,0.0,0.0,0.0,0.0,0.0,0.0,0.0,0.0,0.0,0.0,0.0,-5.2068,-5.3175,-5.4367,-5.5568,0.0,0.0,-5.6146,-5.621,-5.4957,-5.3954,-5.3918,0.0,0.0,0.0,0.0,0.0,0.0,0.0,0.0,0.0,0.0,0.0,0.0,0.0,0.0,0.0,0.0,0.0,0.0,0.0,0.0,0.0,0.0,0.0,0.0,0.0,0.0,0.0,0.0,0.0,0.0,0.0,0.0,0.0,0.0,0.0,0.0,0.0,0.0,0.0,0.0,0.0,0.0,0.0,0.0,0.0,0.0,0.0,0.0,0.0,0.0,0.0,0.0,0.0,-4.3722,-4.3962,-4.7139,-4.8809,-4.8844,-4.9278,-4.9313,-4.8826,-4.7889,-4.6459,0.0,0.0,0.0,0.0,0.0,0.0,0.0,0.0,0.0,0.0,0.0,0.0,0.0,0.0,0.0,0.0,0.0,0.0,0.0,0.0,0.0,0.0,0.0,0.0,0.0,0.0,0.0,0.0,-3.9699,-4.0719,-4.1936,0.0,0.0,0.0,0.0,0.0,0.0,0.0,0.0,0.0,0.0,-5.2116,-5.3246,-5.4482,0.0,0.0,-5.7084,-5.6963,-5.6681,-5.6136,-5.5385,-5.4397,-5.391,0.0,0.0,0.0,0.0,0.0,0.0,0.0,0.0,0.0,0.0,0.0,0.0,0.0,0.0,0.0,0.0,0.0,0.0,0.0,0.0,0.0,0.0,0.0,0.0,0.0,0.0,0.0,0.0,0.0,0.0,0.0,0.0,0.0,0.0,0.0,0.0,0.0,0.0,0.0,0.0,0.0,0.0,0.0,0.0,0.0,0.0,0.0,0.0,0.0,0.0,0.0,0.0,-4.3269,-4.3475,-4.662,-4.826,-4.826,-4.9028,-4.9063,-4.8277,-4.7629,-4.6369,0.0,0.0,0.0,0.0,0.0,0.0,0.0,0.0,0.0,0.0,0.0,0.0,0.0,0.0,0.0,0.0,0.0,0.0,0.0,0.0,0.0,0.0,0.0,0.0,0.0,0.0,0.0,0.0,-4.1253,-4.2243,-4.3291,0.0,0.0,0.0,0.0,0.0,0.0,0.0,0.0,0.0,0.0,-5.2363,-5.3553,-5.4811,-5.599,-5.704,-5.7431,-5.7514,-5.7198,-5.6969,-5.6436,-5.5299,0.0,0.0,0.0,0.0,0.0,0.0,0.0,0.0,0.0,0.0,0.0,0.0,0.0,0.0,0.0,0.0,0.0,0.0,0.0,0.0,0.0,0.0,0.0,0.0,0.0,0.0,0.0,-3.3529,0.0,0.0,-3.3544,0.0,0.0,0.0,0.0,0.0,0.0,0.0,0.0,0.0,0.0,0.0,0.0,0.0,0.0,0.0,0.0,0.0,0.0,0.0,0.0,0.0,0.0,-4.2936,-4.2971,-4.6104,-4.7738,-4.7755,-4.8424,-4.8504,-4.7755,-4.7193,-4.6178,-4.462,0.0,0.0,0.0,0.0,0.0,0.0,0.0,0.0,0.0,0.0,0.0,0.0,0.0,0.0,0.0,0.0,0.0,0.0,0.0,0.0,0.0,0.0,0.0,0.0,0.0,0.0,-4.1221,-4.2462,-4.3358,0.0,0.0,0.0,0.0,0.0,0.0,0.0,0.0,0.0,0.0,-5.1862,-5.3096,-5.431,-5.5648,-5.6679,-5.7138,-5.7412,-5.7697,-5.7895,-5.7317,-5.6785,0.0,0.0,0.0,0.0,0.0,0.0,0.0,0.0,0.0,0.0,0.0,0.0,0.0,0.0,0.0,0.0,0.0,0.0,0.0,0.0,0.0,0.0,0.0,0.0,0.0,0.0,0.0,-3.5863,-3.5489,0.0,0.0,0.0,0.0,0.0,0.0,0.0,0.0,0.0,0.0,0.0,-3.8442,-3.8835,0.0,0.0,0.0,0.0,0.0,0.0,0.0,0.0,0.0,0.0,0.0,0.0,-4.2945,-4.3639,-4.609,-4.7358,-4.7392,-4.8608,-4.8643,-4.7392,-4.7185,-4.5917,-4.3408,0.0,0.0,0.0,0.0,0.0,0.0,0.0,0.0,0.0,0.0,0.0,0.0,0.0,0.0,0.0,0.0,0.0,0.0,0.0,0.0,0.0,0.0,0.0,0.0,0.0,-4.1593,0.0,0.0,0.0,0.0,0.0,0.0,0.0,0.0,0.0,0.0,0.0,-5.0172,-5.0608,-5.2123,-5.3458,-5.4272,-5.5444,-5.6456,0.0,0.0,0.0,0.0,0.0,0.0,0.0,0.0,0.0,0.0,0.0,0.0,0.0,0.0,-5.4245,-5.3244,-5.2261,-5.1489,-5.1317,0.0,0.0,0.0,0.0,0.0,0.0,0.0,0.0,0.0,0.0,0.0,0.0,0.0,0.0,-3.718,0.0,-3.6806,0.0,0.0,0.0,0.0,0.0,0.0,0.0,0.0,-3.859,-3.894,-3.9108,-3.9665,-4.001,0.0,-4.0509,-4.0687,0.0,0.0,0.0,0.0,0.0,0.0,0.0,0.0,-4.3064,-4.3776,-4.592,-4.706,-4.7111,-4.8524,-4.8592,-4.7111,-4.6607,-4.535,-4.3201,-4.2433,-4.1408,0.0,0.0,0.0,0.0,0.0,0.0,0.0,0.0,0.0,0.0,0.0,0.0,0.0,0.0,0.0,0.0,0.0,0.0,0.0,0.0,0.0,0.0,0.0,-4.2392,0.0,0.0,0.0,0.0,0.0,0.0,0.0,0.0,0.0,-4.8646,-4.9619,-5.0572,-5.1222,-5.2457,-5.3614,-5.4413,0.0,0.0,0.0,0.0,0.0,0.0,0.0,-5.7767,-5.7299,-5.7226,-5.7042,-5.651,-5.6436,-5.6418,-5.6418,0.0,0.0,-5.4733,-5.3723,-5.3014,-5.3115,-5.2477,-5.193,-5.2029,-5.1848,-5.1646,0.0,0.0,0.0,0.0,0.0,0.0,0.0,0.0,-3.7509,-3.7509,0.0,-3.7449,0.0,0.0,0.0,0.0,0.0,-3.8167,0.0,0.0,-4.0001,-4.0691,-4.0773,-4.1678,-4.227,-4.2458,-4.21,-4.1912,-4.1784,-4.1245,0.0,0.0,0.0,0.0,0.0,0.0,-4.3288,-4.3544,-4.5657,-4.6802,-4.6887,-4.8257,-4.8291,-4.6836,-4.5524,-4.4541,-4.3875,-4.2976,-4.2096,-4.1178,-3.9699,0.0,0.0,0.0,0.0,0.0,0.0,0.0,0.0,0.0,0.0,0.0,0.0,0.0,0.0,0.0,0.0,0.0,0.0,0.0,0.0,-4.2381,0.0,0.0,0.0,0.0,0.0,0.0,0.0,0.0,0.0,0.0,-5.0016,-5.0135,-5.074,-5.2359,0.0,0.0,0.0,0.0,-5.6098,-5.6689,-5.701,-5.7313,-5.7721,-5.7768,-5.7857,-5.7955,0.0,0.0,-5.7978,-5.7978,-5.7941,-5.7978,-5.7336,-5.6602,-5.5812,-5.5556,-5.5482,-5.5464,-5.484,-5.4436,-5.4326,-5.3628,-5.3151,-4.0248,0.0,0.0,0.0,0.0,-3.9125,-3.929,-3.9499,-3.905,-3.8841,-3.8775,-3.8332,0.0,0.0,0.0,0.0,0.0,0.0,-3.9813,-3.9873,-4.077,-4.1198,-4.1213,-4.1633,-4.1888,-4.1947,-4.2065,-4.2248,-4.2521,-4.2491,-4.1933,-4.0925,0.0,0.0,0.0,0.0,-4.3597,-4.4682,-4.584,-4.674,-4.7383,-4.8357,-4.8138,-4.6608,-4.5706,-4.4609,-4.3322,-4.2997,-4.2263,-4.0983,-4.0476,0.0,0.0,0.0,0.0,0.0,0.0,0.0,0.0,0.0,0.0,0.0,0.0,0.0,0.0,0.0,0.0,0.0,0.0,0.0,-4.2338,-4.3753,-4.4783,0.0,0.0,0.0,0.0,0.0,0.0,0.0,0.0,0.0,-5.0794,-5.0879,-5.1315,0.0,0.0,-5.3982,-5.4676,-5.5212,-5.5722,-5.6237,-5.6724,0.0,-5.7356,-5.7534,-5.7673,-5.7697,-5.7792,-5.7839,-5.7839,-5.795,-5.7978,-5.7978,-5.7813,-5.7574,-5.7317,-5.6345,-5.5688,-5.5596,-5.5412,-5.506,-5.4528,-5.4197,-5.3885,-4.1035,-4.085,-4.0196,-3.9892,-3.9929,-3.9929,-4.0167,-4.0494,-4.0107,-3.9929,-3.9877,-3.9498,-3.8999,-3.8495,-3.8566,0.0,0.0,0.0,-4.0786,-4.0816,-4.1512,-4.1811,-4.1826,-4.2158,-4.237,-4.2484,-4.2387,-4.2572,-4.2925,-4.2911,-4.2476,-4.1694,0.0,0.0,-4.357,-4.384,-4.4497,-4.5517,-4.6235,-4.6912,-4.7502,-4.8003,-4.7667,-4.6458,-4.5702,-4.4704,-4.3375,-4.3041,-4.2283,-4.1022,-4.0662,-3.9954,0.0,0.0,0.0,0.0,0.0,0.0,0.0,0.0,0.0,0.0,0.0,-3.9795,-4.0,0.0,0.0,0.0,-4.1349,-4.2116,-4.3729,-4.4549,0.0,0.0,0.0,0.0,0.0,0.0,0.0,-4.939,-5.0084,-5.0811,-5.1539,-5.1657,-5.1977,-5.2838,-5.3478,-5.4028,-5.4443,0.0,-5.539,-5.589,-5.6402,-5.6821,-5.7028,-5.7282,-5.748,-5.7583,-5.7655,-5.7721,-5.7721,-5.7857,-5.7927,-5.7927,-5.7973,-5.7978,-5.7978,-5.7189,-5.6547,-5.6528,-5.629,-5.5904,-5.5427,-5.5115,-5.4638,-4.1685,-4.1641,-4.0999,-4.0729,-4.0719,-4.0719,-4.0748,-4.0792,-4.0748,-4.0748,-4.0792,-4.0709,-4.0471,-4.0166,-4.0323,0.0,-4.0427,-4.1122,-4.1459,-4.1489,-4.2132,-4.247,-4.2515,-4.3045,-4.3423,-4.3645,-4.2988,-4.2879,-4.319,-4.2796,-4.2798,-4.3209,-4.4008,-4.4654,-4.5114,-4.5307,-4.5594,-4.6005,-4.6684,-4.7145,-4.7433,-4.7465,-4.708,-4.6277,-4.5594,-4.4753,-4.3789,-4.3078,-4.2265,-4.1325,-4.0626,-3.9818,-3.8947,0.0,0.0,0.0,0.0,0.0,0.0,0.0,0.0,0.0,0.0,0.0,0.0,0.0,0.0,0.0,-4.2237,0.0,-4.502,-4.4959,0.0,0.0,0.0,-4.7681,-4.7732,-4.9131,-5.0118,-5.0168,0.0,0.0,-5.2215,-5.2367,-5.2672,-5.3399,-5.3601,-5.3799,-5.4141,-5.4634,-5.5096,-5.5561,-5.6032,-5.6455,-5.6715,-5.7003,-5.7239,-5.748,-5.7577,-5.7577,-5.7601,-5.7697,-5.7768,-5.7792,-5.7904,-5.7997,-5.7978,-5.7923,-5.7978,-5.7905,-5.7373,-5.6877,-5.6693,-5.6143,-5.5464,-4.1459,-4.1445,-4.1286,-4.1033,-4.0733,-4.0719,-4.0998,-4.1396,-4.0925,-4.0998,-4.1425,-4.0939,-4.063,-4.0574,-4.0613,-4.0651,-4.0681,-4.151,-4.187,-4.1915,-4.2712,-4.309,-4.3105,-4.323,-4.3344,-4.3369,-4.3219,-4.3301,-4.3551,-4.3477,-4.3617,-4.4035,-4.4526,-4.4666,-4.4455,-4.459,-4.5113,-4.6061,-4.6225,-4.6832,-4.7816,-4.8105,-4.7519,-4.5955,-4.574,-4.4906,-4.3344,-4.3084,-4.2627,-4.1862,-4.1619,-4.0963,-3.9689,-3.8886,0.0,0.0,0.0,0.0,0.0,0.0,0.0,0.0,0.0,-3.9919,-4.0582,0.0,-4.1016,0.0,-4.2872,-4.3984,-4.4964,-4.5488,0.0,0.0,-4.7449,-4.8243,-4.9051,-4.9629,-5.0163,-5.0719,-5.1541,-5.2114,-5.2266,-5.2841,-5.3281,-5.3484,-5.3584,-5.3733,-5.3832,-5.4254,-5.4745,-5.5144,-5.5561,-5.6021,-5.641,-5.6715,-5.6951,-5.7112,-5.7213,-5.7313,-5.7412,-5.7559,-5.7673,-5.7768,-5.7815,-5.7881,-5.7955,-5.7978,-5.7978,-5.7978,-5.7831,-5.7519,-5.695,-5.6638,-5.6271,-4.1086,-4.1086,-4.1086,-4.0925,-4.0732,-4.0908,-4.1233,-4.1523,-4.1175,-4.1233,-4.1509,-4.0964,-4.0752,-4.0885,-4.0979,-4.1043,-4.119,-4.1967,-4.2302,-4.2357,-4.2912,-4.317,-4.3155,-4.325,-4.3305,-4.3305,-4.3305,-4.3384,-4.3518,-4.3651,-4.3793,-4.4026,-4.4358,-4.4412,-4.4266,-4.4767,-4.541,-4.6175,-4.6447,-4.6944,-4.7605,-4.7935,-4.7256,-4.5659,-4.5498,-4.4619,-4.2947,-4.2805,-4.2418,-4.1675,-4.1579,-4.1093,-4.0008,-3.9424,-3.8904,0.0,0.0,0.0,0.0,0.0,0.0,0.0,0.0,0.0,0.0,0.0,-4.1718,-4.2734,-4.3557,-4.4349,-4.5127,-4.5681,-4.6255,-4.6947,-4.7902,-4.8713,-4.931,-5.0208,-5.0909,-5.1312,-5.2135,-5.2724,-5.2724,-5.3129,-5.3518,-5.3518,-5.3534,-5.3634,-5.3733,-5.4093,-5.4445,-5.4745,-5.5156,-5.5631,-5.6106,-5.6437,-5.668,-5.6794,-5.6925,-5.7061,-5.7188,-5.7313,-5.7461,-5.7601,-5.7673,-5.7763,-5.7904,-5.7909,-5.7927,-5.7997,-5.7978,-5.7831,-5.7428,-5.7336,-5.7097,-4.0686,-4.0602,-4.0602,-4.0602,-4.0645,-4.1057,-4.1255,-4.1311,-4.1297,-4.1297,-4.1311,-4.092,-4.0881,-4.114,-4.1302,-4.1518,-4.1693,-4.2302,-4.2607,-4.2592,-4.2835,-4.2941,-4.2955,-4.317,-4.321,-4.321,-4.325,-4.3265,-4.329,-4.3518,-4.3651,-4.3636,-4.3856,-4.405,-4.4243,-4.5136,-4.578,-4.6179,-4.6772,-4.7098,-4.7132,-4.7335,-4.6716,-4.5277,-4.5017,-4.414,-4.2589,-4.2381,-4.1933,-4.1214,-4.1166,-4.0832,-4.0098,-3.9895,-3.9707,0.0,-3.9456,0.0,0.0,0.0,0.0,0.0,0.0,0.0,0.0,-4.1707,-4.2712,-4.4034,-4.4213,-4.4569,-4.5413,-4.5699,-4.6211,-4.7163,-4.826,-4.9026,-4.9325,-5.0759,-5.1747,-5.1847,-5.2639,-5.3144,-5.3162,-5.3348,-5.3467,-5.3467,-5.3467,-5.3551,-5.3651,-5.3913,-5.4205,-5.4431,-5.4882,-5.5408,-5.5775,-5.6106,-5.6355,-5.6519,-5.668,-5.6812,-5.6925,-5.7079,-5.7213,-5.7356,-5.7504,-5.7625,-5.7745,-5.7792,-5.7839,-5.7932,-5.7955,-5.7978,-5.7941,-5.7923,-5.7758,-4.0584,-4.0126,-4.0126,-4.0126,-4.0126,-4.0213,-4.0487,-4.083,-4.0844,-4.0901,-4.1043,-4.0972,-4.1098,-4.1336,-4.1377,-4.1419,-4.1475,-4.1935,-4.2131,-4.2172,-4.2552,-4.2769,-4.2769,-4.2769,-4.2809,-4.2809,-4.301,-4.3061,-4.3061,-4.325,-4.3384,-4.3369,-4.3636,-4.3769,-4.3832,0.0,0.0,0.0,-4.6195,-4.6547,-4.6738,-4.6927,-4.6246,-4.4704,-4.4474,0.0,-4.2108,-4.1851,-4.1656,-4.1513,-4.1497,0.0,0.0,0.0,0.0,0.0,0.0,0.0,0.0,0.0,0.0,0.0,-4.0713,-4.1283,-4.2032,-4.2745,-4.3469,-4.424,-4.437,-4.4689,-4.5439,-4.5678,-4.6287,-4.7458,-4.7983,-4.8765,-5.0178,-5.096,-5.1534,-5.2148,-5.2629,-5.2938,-5.2972,-5.3127,-5.3264,-5.3264,-5.3382,-5.3501,-5.3534,-5.3684,-5.3913,-5.4237,-5.4772,-5.5259,-5.5537,-5.5724,-5.5982,-5.6189,-5.6401,-5.6519,-5.668,-5.6873,-5.7061,-5.7232,-5.7338,-5.748,-5.7601,-5.7739,-5.7792,-5.7815,-5.7927,-5.7978,-5.7978,-5.7978,-5.796,-3.9983,0.0,-3.9414,-3.9305,0.0,-3.9305,-3.9438,-3.9703,-4.017,-4.043,-4.0502,-4.0502,-4.0617,-4.0845,-4.1001,-4.1128,-4.1198,-4.1535,-4.1717,-4.1717,-4.2158,-4.2363,-4.2363,-4.2607,-4.2688,-4.2688,-4.2809,-4.2835,-4.2835,-4.297,-4.301,-4.301,-4.325,-4.3329,-4.3369,-4.3675,-4.4258,-4.5061,-4.5526,-4.5837,-4.6052,-4.6262,-4.5821,-4.466,-4.3989,0.0,0.0,0.0,0.0,0.0,0.0,0.0,0.0,0.0,0.0,-3.9594,-3.9425,-3.9443,-3.9661,-4.0063,-4.0466,-4.0999,-4.1705,-4.2249,-4.2664,-4.3009,-4.3488,-4.4136,-4.4384,-4.4775,-4.5481,-4.5912,-4.6566,-4.7622,-4.8347,-4.9208,-5.0241,-5.0956,-5.1533,-5.199,-5.2359,-5.2607,-5.2607,-5.2868,-5.3076,-5.3179,-5.3314,-5.3382,-5.3501,-5.3601,-5.3799,-5.4141,-5.4523,-5.493,-5.5131,-5.5419,-5.5654,-5.5839,-5.6039,-5.6245,-5.6465,-5.6626,-5.6768,-5.6951,-5.713,-5.7239,-5.7381,-5.7504,-5.7625,-5.7697,-5.7815,-5.7904,-5.7886,-5.795,-5.7978,-3.9628,-3.9342,-3.8935,-3.8682,-3.8615,-3.8615,-3.8615,-3.8647,0.0,0.0,0.0,-3.9821,-3.9924,-4.0172,-4.0416,-4.0631,-4.083,-4.1086,-4.1213,-4.1311,-4.166,-4.1827,-4.1924,-4.2281,-4.2485,-4.2485,-4.2526,-4.2581,-4.2566,-4.2648,-4.2688,-4.2729,-4.2875,-4.2955,-4.2996,-4.3384,-4.3817,-4.4343,-4.4799,-4.5136,-4.5321,-4.5505,-4.5247,-4.4519,-4.3602,-4.2801,-4.2148,-4.124,-4.0808,-4.0967,-4.0924,-4.0847,-4.0797,-4.0566,-4.0362,-4.0294,-4.0183,-4.0395,-4.101,-4.1055,-4.1328,-4.1948,-4.266,-4.3031,-4.3001,-4.3092,-4.3396,-4.3942,-4.432,-4.4772,-4.5472,-4.6012,-4.6758,-4.7757,-4.8787,-4.9571,-5.007,-5.0923,-5.1503,-5.1704,-5.2017,-5.2252,-5.2305,-5.2589,-5.2868,-5.3041,-5.3127,-5.323,-5.3433,-5.3601,-5.3766,-5.4028,-5.4286,-5.4543,-5.4749,-5.5088,-5.5359,-5.5419,-5.5648,-5.5918,-5.6162,-5.6328,-5.6465,-5.6689,-5.6847,-5.7003,-5.7138,-5.7264,-5.7388,-5.7553,-5.7673,-5.7768,-5.7768,-5.7881,-5.7973,-4.03,-3.9368,-3.9289,-3.9028,-3.8615,-3.8615,-3.8615,-3.8602,-3.8737,-3.889,-3.9042,-3.9042,-3.9295,-3.9692,-3.9736,-3.9881,-4.0156,-4.0372,-4.0574,-4.0787,-4.1057,-4.1283,-4.148,-4.1564,-4.1591,-4.1606,-4.191,-4.209,-4.2131,-4.2485,-4.2688,-4.2688,-4.2729,-4.2729,-4.2769,-4.297,-4.3235,-4.3488,-4.4097,-4.4511,-4.4723,-4.4761,-4.4436,-4.3698,-4.3427,-4.291,-4.2215,-4.1858,-4.1702,-4.1745,-4.1258,-4.0954,-4.0938,-4.0436,-4.0238,-4.0589,-4.0598,-4.0827,-4.1303,-4.1348,-4.1633,-4.2278,-4.2899,-4.3205,-4.3024,-4.3502,-4.3897,-4.4026,-4.408,-4.444,-4.5222,-4.5634,-4.647,-4.7981,-4.867,-4.9304,-5.006,-5.0767,-5.1221,-5.1296,-5.1614,-5.1924,-5.2086,-5.2269,-5.2466,-5.2659,-5.2868,-5.3024,-5.323,-5.3517,-5.3717,-5.3799,-5.4028,-5.4303,-5.4512,-5.4717,-5.4965,-5.507,-5.5341,-5.5596,-5.5683,-5.6039,-5.6346,-5.6437,-5.6653,-5.6865,-5.7003,-5.7156,-5.7239,-5.7388,-5.7528,-5.7625,-5.7625,-5.7721,-5.7881,-3.9829,-3.9047,-3.8721,-3.8277,-3.7815,-3.7815,-3.7769,-3.7815,-3.7769,-3.8122,-3.8724,-3.8756,-3.8845,-3.9056,-3.9176,-3.9353,-3.9645,-3.9837,-4.0055,-4.03,-4.0545,-4.0702,-4.083,-4.1071,-4.1198,-4.1198,-4.1507,-4.1675,-4.1675,-4.1883,-4.2034,-4.2143,-4.2404,-4.2581,-4.2688,-4.2795,-4.289,-4.2985,-4.3621,-4.405,-4.4281,-4.4281,-4.4129,-4.3785,-4.3259,-4.2811,-4.2455,-4.1942,-4.1708,-4.1783,-4.1526,-4.136,-4.136,-4.1109,-4.0969,-4.1092,-4.107,-4.1318,-4.1916,-4.2237,-4.2566,-4.2865,-4.3125,-4.3264,-4.316,-4.3455,-4.3621,-4.3651,-4.404,-4.4658,-4.5445,-4.6121,-4.704,-4.8335,-4.8783,-4.9228,-4.9915,-5.0269,-5.0596,-5.0842,-5.1221,-5.152,-5.161,-5.1835,-5.2145,-5.2395,-5.2694,-5.2938,-5.3041,-5.3247,-5.3517,-5.3667,-5.3832,-5.3996,-5.4207,-5.4465,-5.4637,-5.4731,-5.4992,-5.5299,-5.5448,-5.5799,-5.5954,-5.6134,-5.6383,-5.6573,-5.668,-5.6847,-5.7028,-5.7156,-5.7307,-5.7406,-5.7461,-5.7583,-5.7745,-3.9479,-3.8928,-3.8316,-3.7736,-3.7121,-3.7108,-3.7108,-3.7108,-3.7108,-3.7539,-3.8226,-3.833,-3.8376,-3.8453,-3.8652,-3.8877,-3.9127,-3.9309,-3.9486,-3.9763,-3.9968,-4.0085,-4.0172,-4.0574,-4.0788,-4.0788,-4.1029,-4.117,-4.1255,-4.1297,-4.1423,-4.166,-4.2007,-4.2254,-4.2485,-4.2526,-4.2581,-4.2662,-4.3185,-4.3542,-4.3699,-4.3699,-4.3699,-4.3669,-4.3061,-4.2674,-4.2644,-4.2064,-4.178,-4.1971,-4.1851,-4.1776,-4.1836,-4.1701,-4.1625,-4.1617,-4.1647,-4.1931,-4.256,-4.3045,-4.3305,-4.3305,-4.3305,-4.3305,-4.3305,-4.3305,-4.3305,-4.3404,-4.4073,-4.4855,-4.5626,-4.6538,-4.7511,-4.8388,-4.8759,-4.9072,-4.9613,-4.9812,-4.9995,-5.0418,-5.0804,-5.1108,-5.1221,-5.1483,-5.1798,-5.2197,-5.2553,-5.2764,-5.2834,-5.3007,-5.3247,-5.3467,-5.3634,-5.3766,-5.3915,-5.4192,-5.4385,-5.4448,-5.4683,-5.4978,-5.5221,-5.5389,-5.5549,-5.5822,-5.606,-5.63,-5.6383,-5.6573,-5.6768,-5.6925,-5.7054,-5.7181,-5.7313,-5.7461,-5.7631,-4.0068,-3.9504,-3.8879,-3.8082,-3.7126,-3.7121,-3.7062,-3.7108,-3.7108,-3.7155,-3.7307,-3.7505,-3.7723,-3.7985,-3.8167,-3.8395,-3.8647,-3.8692,-3.88,-3.9042,-3.9278,-3.9499,-3.9662,-3.9938,-4.0083,-4.0126,-4.0329,-4.0545,-4.0787,-4.093,-4.1142,-4.1396,-4.148,-4.1591,-4.1785,-4.2007,-4.2172,-4.2433,-4.2648,-4.2809,-4.2795,-4.2809,-4.2809,-4.2809,-4.2765,-4.268,-4.2691,-4.2621,-4.2657,-4.2813,-4.2277,-4.2097,-4.2246,-4.1767,-4.1707,-4.2261,-4.2306,-4.2551,-4.3125,-4.326,-4.3305,-4.3305,-4.3305,-4.3305,-4.3305,-4.3305,-4.3305,-4.3409,-4.3928,-4.4753,-4.5589,-4.632,-4.7167,-4.8137,-4.8495,-4.8759,-4.9103,-4.9589,-4.9931,-4.9955,-5.0363,-5.0781,-5.1032,-5.1221,-5.1499,-5.1977,-5.2233,-5.243,-5.2605,-5.2764,-5.2972,-5.3196,-5.3467,-5.3667,-5.375,-5.3915,-5.4078,-5.4207,-5.4399,-5.462,-5.4886,-5.5209,-5.5507,-5.5519,-5.5764,-5.6003,-5.6245,-5.6437,-5.6501,-5.6733,-5.6847,-5.6925,-5.7138,-5.7313,-5.7504,-3.9715,-3.9183,-3.8955,-3.8208,-3.7219,-3.6827,-3.6687,-3.6687,-3.6687,-3.6687,-3.6747,-3.6922,-3.7201,-3.7446,-3.7526,-3.7756,-3.8194,-3.8194,-3.8362,-3.8724,-3.8845,-3.8935,-3.9024,-3.9234,-3.9411,-3.9601,-3.9793,-4.0025,-4.03,-4.0488,-4.0716,-4.1001,-4.1114,-4.1283,-4.1507,-4.1591,-4.1731,-4.1814,-4.1897,-4.1924,-4.2007,-4.2444,-4.2688,-4.2688,-4.2688,-4.2688,-4.2688,-4.2688,-4.2729,-4.2795,-4.2543,-4.245,-4.257,-4.2332,-4.2303,-4.2555,-4.2704,-4.2927,-4.3275,-4.3305,-4.3305,-4.3305,-4.3305,-4.3305,-4.3305,-4.3305,-4.3305,-4.3409,-4.4246,-4.5076,-4.553,-4.6485,-4.7407,-4.7861,-4.8202,-4.8495,-4.8744,-4.9144,-4.9428,-4.9573,-4.9916,-5.0262,-5.0496,-5.0864,-5.1258,-5.1557,-5.1798,-5.2053,-5.2302,-5.2447,-5.2607,-5.2834,-5.3076,-5.3315,-5.3534,-5.3717,-5.3849,-5.3948,-5.4143,-5.4367,-5.4606,-5.4842,-5.5118,-5.5191,-5.5443,-5.5677,-5.5828,-5.6049,-5.6199,-5.6447,-5.6715,-5.6847,-5.6951,-5.7079,-5.7239,-3.9356,-3.9044,-3.8931,-3.8228,-3.7174,-3.6759,-3.6543,-3.6417,-3.6417,-3.6417,-3.6405,-3.6534,-3.6722,-3.6922,-3.7015,-3.7341,-3.7618,-3.7664,-3.7848,-3.8181,-3.833,-3.8408,-3.8408,-3.8711,-3.8922,-3.9114,-3.922,-3.9499,-3.9777,-4.0012,-4.0229,-4.0516,-4.0631,-4.0859,-4.1086,-4.1071,-4.1156,-4.1283,-4.1297,-4.1339,-4.148,-4.2007,-4.2336,-4.2377,-4.2404,-4.2444,-4.2444,-4.25,-4.2581,-4.2622,-4.2607,-4.2662,-4.2688,-4.2688,-4.2688,-4.2688,-4.285,-4.301,-4.3145,-4.313,-4.317,-4.3195,-4.321,-4.3235,-4.329,-4.3305,-4.3305,-4.3379,-4.4526,-4.5274,-4.5451,-4.6629,-4.7508,-4.7624,-4.7922,-4.8202,-4.8495,-4.8733,-4.898,-4.921,-4.9517,-4.9797,-4.9955,-5.0541,-5.107,-5.1221,-5.1483,-5.1741,-5.1977,-5.2106,-5.2269,-5.2466,-5.2642,-5.2938,-5.3298,-5.345,-5.3567,-5.3733,-5.3948,-5.411,-5.4353,-5.4543,-5.4717,-5.4886,-5.5161,-5.5371,-5.5502,-5.566,-5.589,-5.6189,-5.6465,-5.6635,-5.6707,-5.6821,-5.6977,-3.9297,-3.925,-3.898,-3.8228,-3.7186,-3.7136,-3.6835,-3.637,-3.6417,-3.6405,-3.6417,-3.6405,-3.6417,-3.6499,-3.6888,-3.7121,-3.7155,-3.7155,-3.7201,-3.7294,-3.771,-3.7952,-3.7939,-3.8376,-3.8602,-3.8647,-3.8634,-3.8904,-3.9336,-3.953,-3.9749,-3.9996,-4.0039,-4.0156,-4.0358,-4.0388,-4.056,-4.093,-4.0972,-4.11,-4.1354,-4.1396,-4.1438,-4.1465,-4.166,-4.1771,-4.1785,-4.198,-4.2201,-4.2392,-4.2392,-4.2474,-4.2648,-4.2688,-4.2648,-4.2688,-4.2688,-4.2729,-4.2729,-4.2769,-4.285,-4.2996,-4.3036,-4.3076,-4.321,-4.3265,-4.325,-4.329,-4.4526,-4.5289,-4.5409,-4.6544,-4.7409,-4.7553,-4.7639,-4.788,-4.826,-4.8453,-4.8718,-4.8939,-4.921,-4.9477,-4.9852,-5.0301,-5.0727,-5.0994,-5.1183,-5.1371,-5.1668,-5.1815,-5.1944,-5.2181,-5.2359,-5.2537,-5.3076,-5.3247,-5.3382,-5.3551,-5.3684,-5.3816,-5.4045,-5.4257,-5.4416,-5.4575,-5.4838,-5.5053,-5.5187,-5.5396,-5.5601,-5.5908,-5.6162,-5.6328,-5.6383,-5.6635,-5.6768,-3.901,-3.8948,-3.852,-3.7852,-3.7171,-3.6813,-3.6452,-3.6158,-3.6146,-3.6228,-3.6358,-3.6417,-3.6417,-3.6417,-3.6546,-3.6734,-3.6803,-3.6862,-3.6956,-3.7108,-3.7307,-3.7387,-3.74,-3.7572,-3.7861,-3.8089,-3.8181,-3.8421,-3.8814,-3.8948,-3.9056,-3.9264,-3.9469,-3.9631,-3.9823,-4.0025,-4.0199,-4.0343,-4.0372,-4.0416,-4.0473,-4.0516,-4.0473,-4.053,-4.1156,-4.1507,-4.1507,-4.1606,-4.1704,-4.1773,-4.1773,-4.1773,-4.1883,-4.1993,-4.2117,-4.224,-4.2418,-4.2581,-4.2688,-4.2688,-4.2729,-4.2809,-4.2795,-4.285,-4.293,-4.305,-4.3115,-4.3339,-4.4445,-4.5244,-4.5529,-4.6501,-4.7352,-4.7381,-4.7495,-4.7666,-4.7837,-4.8091,-4.8301,-4.8552,-4.8841,-4.9225,-4.9517,-4.9876,-5.0207,-5.0363,-5.0634,-5.0956,-5.1296,-5.1392,-5.154,-5.1871,-5.2089,-5.2269,-5.252,-5.2868,-5.311,-5.3281,-5.3433,-5.36,-5.3799,-5.4013,-5.4192,-5.4257,-5.4494,-5.4683,-5.4852,-5.5126,-5.5336,-5.5561,-5.585,-5.5975,-5.6077,-5.631,-5.6465,-3.8736,-3.8739,-3.8408,-3.7929,-3.7401,-3.6874,-3.648,-3.6132,-3.5934,-3.6003,-3.6121,-3.6121,-3.6133,-3.6121,-3.6133,-3.6216,-3.6345,-3.6534,-3.6687,-3.6875,-3.6968,-3.6968,-3.7015,-3.7062,-3.7294,-3.7572,-3.7664,-3.7907,-3.8317,-3.8362,-3.8544,-3.8832,-3.898,-3.9172,-3.9278,-3.9469,-3.9557,-3.9631,-3.9645,-3.9675,-3.9733,-3.9865,-3.9851,-3.9982,-4.0573,-4.1001,-4.1043,-4.1142,-4.117,-4.1185,-4.1213,-4.1297,-4.1396,-4.1507,-4.1675,-4.18,-4.1966,-4.2146,-4.2254,-4.2322,-4.2404,-4.2485,-4.2566,-4.2622,-4.2703,-4.2835,-4.2964,-4.3404,-4.4258,-4.5141,-4.5657,-4.6508,-4.7193,-4.7309,-4.7424,-4.7553,-4.7581,-4.7752,-4.7964,-4.8202,-4.8593,-4.8924,-4.9128,-4.9477,-4.9717,-4.9797,-5.0144,-5.0518,-5.0788,-5.0978,-5.1146,-5.152,-5.1721,-5.1888,-5.2125,-5.2428,-5.2764,-5.3007,-5.323,-5.3366,-5.3534,-5.375,-5.3882,-5.3948,-5.4078,-5.4303,-5.4557,-5.4821,-5.5083,-5.5282,-5.5472,-5.5613,-5.5775,-5.5964,-5.6106,-3.8526,-3.8684,-3.8776,-3.8329,-3.7726,-3.7288,-3.6874,-3.6297,-3.583,-3.5682,-3.5716,-3.5668,-3.5716,-3.5668,-3.5716,-3.5668,-3.5752,-3.6181,-3.6358,-3.6465,-3.664,-3.6709,-3.6709,-3.6922,-3.7062,-3.7168,-3.7155,-3.7387,-3.7861,-3.7907,-3.8089,-3.8453,-3.8557,-3.8602,-3.8589,-3.8679,-3.8769,-3.8922,-3.9011,-3.9056,-3.9292,-3.9455,-3.953,-3.9574,-3.9851,-4.0069,-4.0258,-4.0559,-4.0702,-4.0702,-4.0845,-4.11,-4.1255,-4.1297,-4.1368,-4.1339,-4.1396,-4.1438,-4.148,-4.166,-4.1868,-4.1993,-4.2228,-4.2377,-4.2526,-4.2622,-4.2898,-4.3558,-4.4234,-4.494,-4.5819,-4.6515,-4.7019,-4.7266,-4.7352,-4.7381,-4.751,-4.7596,-4.7724,-4.7964,-4.8328,-4.8578,-4.8702,-4.899,-4.9316,-4.9573,-4.9773,-4.9995,-5.0214,-5.0425,-5.0749,-5.1054,-5.1258,-5.1445,-5.1721,-5.1977,-5.2357,-5.2694,-5.2972,-5.3179,-5.3264,-5.345,-5.3584,-5.3667,-5.3882,-5.4078,-5.4321,-5.4589,-5.4759,-5.4961,-5.5079,-5.5259,-5.5455,-5.5648,-5.5764,-3.756,-3.7613,-3.7601,-3.7316,-3.6927,-3.6892,-3.6534,-3.5901,-3.5831,-3.577,-3.5622,-3.5633,-3.5633,-3.5633,-3.5633,-3.5572,-3.562,-3.5812,-3.5955,-3.6146,-3.637,-3.6487,-3.6499,-3.6593,-3.6687,-3.6815,-3.7015,-3.7155,-3.7341,-3.7341,-3.7446,-3.7585,-3.7952,-3.8089,-3.8135,-3.8421,-3.8634,-3.8666,-3.8679,-3.8724,-3.8814,-3.8859,-3.8904,-3.8948,-3.8993,-3.9069,-3.9158,-3.9821,-4.0227,-4.0213,-4.03,-4.0329,-4.043,-4.0588,-4.0659,-4.0659,-4.0972,-4.1142,-4.1142,-4.1325,-4.1522,-4.1606,-4.1704,-4.18,-4.1993,-4.2172,-4.2617,-4.3355,-4.4125,-4.4942,-4.5649,-4.6299,-4.6829,-4.7251,-4.7309,-4.7294,-4.7396,-4.751,-4.7624,-4.7709,-4.7992,-4.8202,-4.837,-4.8661,-4.8924,-4.9144,-4.9372,-4.9557,-4.9757,-4.9955,-5.0191,-5.0448,-5.0695,-5.1032,-5.1296,-5.1573,-5.1888,-5.2269,-5.2589,-5.2868,-5.299,-5.3179,-5.3298,-5.3467,-5.3684,-5.3882,-5.4127,-5.4321,-5.4494,-5.462,-5.4776,-5.4961,-5.5113,-5.5264,-5.5443,-3.6862,-3.6916,-3.697,-3.6848,-3.665,-3.6696,-3.6402,-3.589,-3.5623,-3.5474,-3.5283,-3.5114,-3.503,-3.5042,-3.5042,-3.509,-3.5175,-3.5284,-3.5464,-3.5704,-3.5991,-3.6086,-3.6133,-3.6228,-3.6323,-3.6452,-3.6687,-3.6875,-3.6968,-3.6956,-3.7015,-3.7155,-3.7433,-3.7618,-3.7618,-3.7893,-3.8044,-3.8044,-3.8148,-3.8194,-3.8239,-3.8362,-3.8453,-3.8453,-3.8544,-3.8615,-3.8661,-3.9172,-3.9469,-3.9513,-3.9557,-3.9675,-3.9851,-3.9954,-4.0085,-4.0229,-4.0445,-4.0631,-4.0659,-4.0802,-4.1029,-4.1128,-4.1213,-4.1367,-4.1578,-4.1861,-4.2477,-4.3269,-4.4079,-4.4908,-4.561,-4.6138,-4.6624,-4.699,-4.7077,-4.7164,-4.7309,-4.7439,-4.7467,-4.7538,-4.7709,-4.7895,-4.8049,-4.8244,-4.8469,-4.8733,-4.8924,-4.9113,-4.9316,-4.9557,-4.9797,-5.0018,-5.0269,-5.0596,-5.0918,-5.1183,-5.1408,-5.1778,-5.2125,-5.243,-5.2642,-5.2921,-5.3144,-5.3349,-5.3517,-5.3717,-5.3948,-5.4078,-5.4239,-5.4335,-5.4463,-5.4606,-5.4776,-5.4948,-5.5113,-3.6375,-3.6592,-3.6646,-3.6688,-3.6834,-3.649,-3.6244,-3.6139,-3.5392,-3.5007,-3.4819,-3.4625,-3.4304,-3.4195,-3.4391,-3.4454,-3.4445,-3.4677,-3.4872,-3.5126,-3.538,-3.5524,-3.5668,-3.5908,-3.6003,-3.6051,-3.6228,-3.6452,-3.664,-3.6628,-3.6769,-3.6968,-3.7062,-3.7108,-3.7155,-3.7108,-3.7201,-3.7294,-3.7446,-3.7505,-3.7551,-3.7893,-3.8109,-3.8109,-3.8272,-3.8376,-3.8376,-3.8453,-3.8544,-3.8647,-3.889,-3.9131,-3.9428,-3.956,-3.9618,-3.9821,-3.9908,-3.9952,-3.9996,-4.0199,-4.0402,-4.0645,-4.0802,-4.11,-4.1383,-4.1882,-4.2467,-4.3312,-4.412,-4.4903,-4.5589,-4.5986,-4.6269,-4.655,-4.6771,-4.6975,-4.7207,-4.7251,-4.7294,-4.7337,-4.7467,-4.7596,-4.7681,-4.788,-4.8049,-4.8301,-4.8495,-4.8661,-4.8867,-4.9128,-4.9452,-4.9653,-4.9852,-5.0168,-5.0441,-5.0634,-5.0864,-5.1258,-5.1668,-5.2017,-5.2359,-5.2677,-5.2938,-5.3144,-5.3349,-5.3551,-5.3717,-5.3849,-5.3948,-5.4045,-5.4143,-5.4271,-5.4448,-5.4589,-5.4745,-3.5687,-3.5742,-3.5742,-3.5797,-3.5884,-3.5888,-3.5733,-3.5455,-3.5561,-3.5271,-3.5055,-3.5172,-3.4895,-3.464,-3.4566,-3.4478,-3.4268,-3.4235,-3.431,-3.4359,-3.4457,-3.4932,-3.5476,-3.5668,-3.5716,-3.5716,-3.5812,-3.5955,-3.6193,-3.6181,-3.6323,-3.6593,-3.6734,-3.6803,-3.6815,-3.6968,-3.7108,-3.7108,-3.7155,-3.7214,-3.7214,-3.7341,-3.7374,-3.7387,-3.7479,-3.7526,-3.7492,-3.7479,-3.7893,-3.8557,-3.8634,-3.8724,-3.8845,-3.889,-3.8935,-3.9038,-3.9158,-3.9292,-3.9469,-3.9689,-3.9895,-4.0126,-4.0354,-4.0538,-4.1217,-4.1574,-4.237,-4.3371,-4.4093,-4.4602,-4.5209,-4.5549,-4.5866,-4.6269,-4.6491,-4.6727,-4.6946,-4.7019,-4.7077,-4.7266,-4.7337,-4.7424,-4.7553,-4.7681,-4.781,-4.8007,-4.8133,-4.826,-4.851,-4.8676,-4.8949,-4.9184,-4.9387,-4.9693,-4.9931,-5.0129,-5.0363,-5.0743,-5.1183,-5.1631,-5.2053,-5.2447,-5.2729,-5.2938,-5.3144,-5.3349,-5.345,-5.3551,-5.3634,-5.3733,-5.3915,-5.4078,-5.4078,-5.4207,-5.4367,-3.4747,-3.4869,-3.4869,-3.498,-3.5257,-3.54,-3.5342,-3.5224,-3.5256,-3.5199,-3.4966,-3.4854,-3.4728,-3.444,-3.4429,-3.4243,-3.3928,-3.3893,-3.3815,-3.3767,-3.3866,-3.4347,-3.4932,-3.5175,-3.532,-3.5428,-3.5524,-3.5668,-3.5824,-3.5824,-3.5908,-3.6086,-3.6275,-3.6417,-3.6405,-3.664,-3.6781,-3.6828,-3.6875,-3.6922,-3.6909,-3.7062,-3.7108,-3.7108,-3.7108,-3.7108,-3.7108,-3.7108,-3.7387,-3.7861,-3.8089,-3.8194,-3.8317,-3.8421,-3.8453,-3.8589,-3.8724,-3.8845,-3.9047,-3.9303,-3.9631,-3.9949,-4.0175,-4.0697,-4.1266,-4.1713,-4.2552,-4.3164,-4.3804,-4.4295,-4.4734,-4.5138,-4.5458,-4.5671,-4.5956,-4.6314,-4.6712,-4.68,-4.6887,-4.7062,-4.7149,-4.7207,-4.7424,-4.7467,-4.7596,-4.7752,-4.7837,-4.7964,-4.816,-4.8286,-4.8469,-4.8759,-4.898,-4.925,-4.9533,-4.9733,-4.9971,-5.034,-5.0727,-5.1221,-5.1704,-5.2161,-5.2412,-5.2659,-5.2903,-5.3076,-5.3128,-5.323,-5.3382,-5.3517,-5.3717,-5.3849,-5.3849,-5.3915,-5.4095,-3.3805,-3.4041,-3.4041,-3.4378,-3.4769,-3.4869,-3.4902,-3.5035,-3.4734,-3.4599,-3.4488,-3.412,-3.4146,-3.3958,-3.4106,-3.3847,-3.3685,-3.3737,-3.3521,-3.3398,-3.3415,-3.3744,-3.4139,-3.4592,-3.4835,-3.503,-3.532,-3.5428,-3.5476,-3.5524,-3.562,-3.5704,-3.586,-3.5968,-3.6051,-3.6228,-3.6323,-3.6417,-3.6546,-3.6628,-3.6675,-3.6862,-3.6922,-3.6947,-3.7087,-3.7147,-3.716,-3.7185,-3.7283,-3.722,-3.7384,-3.7598,-3.7815,-3.7998,-3.824,-3.8515,-3.8608,-3.8753,-3.8804,-3.9275,-3.9614,-3.9938,-4.0586,-4.1104,-4.139,-4.195,-4.2507,-4.283,-4.3493,-4.3984,-4.4383,-4.4769,-4.5032,-4.517,-4.5353,-4.5776,-4.6269,-4.6506,-4.6624,-4.6829,-4.6887,-4.6975,-4.7164,-4.7266,-4.7337,-4.7538,-4.7581,-4.7709,-4.7837,-4.7964,-4.816,-4.8453,-4.862,-4.8744,-4.9072,-4.9396,-4.9693,-4.9971,-5.0379,-5.0804,-5.1333,-5.1762,-5.2053,-5.2324,-5.2537,-5.2712,-5.2817,-5.2921,-5.311,-5.3247,-5.345,-5.3551,-5.3651,-5.3767,-5.3899,-3.3625,-3.3692,-3.3749,-3.3794,-3.3907,-3.3907,-3.3963,-3.3998,-3.4191,-3.4216,-3.4216,-3.4317,-3.423,-3.4127,-3.4105,-3.4022,-3.3757,-3.3731,-3.3611,-3.3191,-3.2853,-3.2869,-3.3331,-3.3936,-3.4284,-3.442,-3.4543,-3.4787,-3.4981,-3.5175,-3.5368,-3.556,-3.5572,-3.5668,-3.5716,-3.5861,-3.5908,-3.6063,-3.6171,-3.6363,-3.6518,-3.66,-3.666,-3.6685,-3.7001,-3.719,-3.7303,-3.7583,-3.7785,-3.7693,-3.7483,-3.7343,-3.7487,-3.7805,-3.8079,-3.829,-3.8756,-3.9107,-3.9302,-3.9544,-3.9899,-4.0114,-4.0421,-4.0676,-4.1239,-4.1659,-4.2188,-4.2692,-4.3239,-4.3594,-4.3988,-4.4364,-4.4583,-4.4769,-4.4986,-4.5216,-4.5489,-4.5941,-4.6358,-4.655,-4.6683,-4.6756,-4.6931,-4.699,-4.7121,-4.7279,-4.7381,-4.7467,-4.7553,-4.7666,-4.788,-4.816,-4.8244,-4.8412,-4.8661,-4.899,-4.9331,-4.9613,-4.9971,-5.0324,-5.0864,-5.1258,-5.1503,-5.1855,-5.2217,-5.2359,-5.2518,-5.2712,-5.2921,-5.3025,-5.3144,-5.3247,-5.3382,-5.3534,-5.3651,-3.2763,-3.2763,-3.2934,-3.3058,-3.3218,-3.3342,-3.3455,-3.3625,-3.3805,-3.3861,-3.3918,-3.3998,-3.4026,-3.3909,-3.3888,-3.3759,-3.3431,-3.3158,-3.3057,-3.2889,-3.2793,-3.2901,-3.3137,-3.3635,-3.4,-3.3945,-3.4162,-3.4359,-3.4506,-3.4627,-3.4787,-3.5017,-3.5187,-3.5271,-3.5502,-3.577,-3.605,-3.6245,-3.6467,-3.6615,-3.6748,-3.6809,-3.6858,-3.6967,-3.723,-3.7441,-3.7613,-3.7814,-3.7965,-3.7913,-3.7705,-3.7617,-3.7738,-3.8089,-3.829,-3.8441,-3.8691,-3.9055,-3.9214,-3.9518,-3.9868,-4.0171,-4.0505,-4.0953,-4.14,-4.1661,-4.1976,-4.2439,-4.2666,-4.297,-4.3417,-4.3737,-4.3974,-4.4209,-4.4429,-4.463,-4.4862,-4.5413,-4.5956,-4.6239,-4.6373,-4.6535,-4.6668,-4.6712,-4.6887,-4.7062,-4.7106,-4.7193,-4.7396,-4.751,-4.7596,-4.7794,-4.788,-4.8049,-4.8286,-4.862,-4.8965,-4.925,-4.9493,-4.9852,-5.0285,-5.0596,-5.088,-5.1333,-5.1831,-5.2069,-5.225,-5.2483,-5.2742,-5.2832,-5.2937,-5.2989,-5.3177,-5.3398,-5.3467,-3.1787,-3.1845,-3.2143,-3.2352,-3.2581,-3.283,-3.3069,-3.3285,-3.3353,-3.3285,-3.3399,-3.3399,-3.3424,-3.3558,-3.3537,-3.3314,-3.3063,-3.2627,-3.262,-3.275,-3.2727,-3.2865,-3.3078,-3.3382,-3.3514,-3.3483,-3.3955,-3.4155,-3.4205,-3.4211,-3.4587,-3.4582,-3.4817,-3.5158,-3.5465,-3.5892,-3.6246,-3.6394,-3.6675,-3.6971,-3.7083,-3.7158,-3.7257,-3.7357,-3.758,-3.7755,-3.7929,-3.8104,-3.8141,-3.8104,-3.8166,-3.8316,-3.8514,-3.8672,-3.8807,-3.8819,-3.8973,-3.9212,-3.9351,-3.9543,-3.991,-4.0111,-4.0659,-4.1182,-4.1458,-4.1604,-4.1828,-4.1954,-4.2141,-4.2373,-4.2741,-4.3032,-4.3245,-4.3485,-4.3737,-4.3974,-4.4317,-4.4908,-4.5276,-4.573,-4.5911,-4.6135,-4.6358,-4.6491,-4.6653,-4.6785,-4.6829,-4.6931,-4.7121,-4.7266,-4.7381,-4.7553,-4.7681,-4.788,-4.8133,-4.8244,-4.8593,-4.8944,-4.9175,-4.9568,-4.9922,-5.0343,-5.0769,-5.1069,-5.1452,-5.1847,-5.2298,-5.2712,-5.2881,-5.2782,-5.3073,-5.3547,-5.3571,-5.3393,-5.3513,-3.1787,-3.1787,-3.1845,-3.1903,-3.196,-3.2018,-3.2133,-3.2076,-3.219,-3.2248,-3.2534,-3.2545,-3.283,-3.3126,-3.325,-3.3289,-3.3113,-3.2775,-3.2696,-3.2731,-3.2617,-3.2501,-3.2695,-3.2976,-3.292,-3.3067,-3.3675,-3.4198,-3.4326,-3.4665,-3.4697,-3.4967,-3.516,-3.5353,-3.5455,-3.5707,-3.6036,-3.6353,-3.6635,-3.6834,-3.7087,-3.7239,-3.7302,-3.744,-3.7735,-3.7984,-3.812,-3.8428,-3.8674,-3.8674,-3.8945,-3.905,-3.9003,-3.8919,-3.8906,-3.9057,-3.9461,-3.9652,-3.9766,-4.0058,-4.0299,-4.0439,-4.0554,-4.0643,-4.0795,-4.0984,-4.1248,-4.1498,-4.1796,-4.2128,-4.2226,-4.2484,-4.2741,-4.2984,-4.3211,-4.3499,-4.3709,-4.4054,-4.4523,-4.5032,-4.5367,-4.573,-4.5911,-4.6135,-4.6314,-4.6491,-4.658,-4.6712,-4.6931,-4.7033,-4.7106,-4.7294,-4.751,-4.7767,-4.7964,-4.8049,-4.8233,-4.8706,-4.9006,-4.9507,-4.9915,-5.0348,-5.0721,-5.1056,-5.154,-5.2063,-5.252,-5.2959,-5.3283,-5.3391,-5.3774,-5.419,-5.4033,-5.3892,-5.4305,-3.1344,-3.1344,-3.1498,-3.1556,-3.1556,-3.174,-3.1787,-3.1787,-3.1787,-3.1903,-3.2018,-3.2018,-3.2201,-3.243,-3.2498,-3.2545,-3.2566,-3.2452,-3.2442,-3.2471,-3.2483,-3.2545,-3.2635,-3.2968,-3.3099,-3.3276,-3.3704,-3.3875,-3.386,-3.4215,-3.4546,-3.4646,-3.4878,-3.5034,-3.5375,-3.5642,-3.5968,-3.6339,-3.6633,-3.688,-3.7152,-3.732,-3.7424,-3.7664,-3.7941,-3.8267,-3.8457,-3.8592,-3.8776,-3.8816,-3.8933,-3.8998,-3.9015,-3.8956,-3.8963,-3.9282,-3.9688,-3.989,-3.989,-4.0044,-4.0134,-4.0275,-4.0287,-4.0351,-4.0504,-4.0656,-4.0757,-4.0959,-4.1198,-4.1534,-4.1696,-4.1944,-4.219,-4.2435,-4.2631,-4.2873,-4.3149,-4.3355,-4.377,-4.4322,-4.4755,-4.5138,-4.5444,-4.5685,-4.5956,-4.6135,-4.6314,-4.6491,-4.6668,-4.6756,-4.6844,-4.7062,-4.7309,-4.7585,-4.783,-4.7961,-4.8271,-4.8663,-4.8982,-4.947,-5.0047,-5.0548,-5.084,-5.1086,-5.1637,-5.2316,-5.2663,-5.3075,-5.3502,-5.3929,-5.4054,-5.4194,-5.4328,-5.4456,-5.4841,-3.0898,-3.0947,-3.117,-3.1218,-3.1276,-3.1508,-3.1624,-3.1624,-3.1566,-3.1614,-3.1672,-3.173,-3.173,-3.1787,-3.1845,-3.1845,-3.1787,-3.1825,-3.1977,-3.2197,-3.2338,-3.2607,-3.2877,-3.3126,-3.3134,-3.3106,-3.3307,-3.3454,-3.3617,-3.3875,-3.4109,-3.4401,-3.4429,-3.4649,-3.5168,-3.5584,-3.5966,-3.6342,-3.6682,-3.6947,-3.7131,-3.737,-3.7584,-3.7814,-3.8039,-3.8173,-3.8255,-3.8279,-3.8368,-3.8473,-3.8579,-3.8684,-3.8736,-3.8788,-3.8998,-3.9438,-3.9581,-3.9645,-3.9697,-3.9749,-3.9852,-3.9993,-4.0032,-4.0134,-4.0249,-4.0351,-4.044,-4.0504,-4.0694,-4.0946,-4.1161,-4.1411,-4.1647,-4.1881,-4.2043,-4.219,-4.2582,-4.2825,-4.297,-4.3485,-4.4068,-4.449,-4.4815,-4.5184,-4.5473,-4.5685,-4.5851,-4.6105,-4.6314,-4.6491,-4.658,-4.6844,-4.7063,-4.7385,-4.7664,-4.7901,-4.8406,-4.9046,-4.9326,-4.9654,-5.0281,-5.0851,-5.1122,-5.1468,-5.2041,-5.2675,-5.2938,-5.3287,-5.3874,-5.4226,-5.4186,-5.4365,-5.4765,-5.5007,-5.5264,-3.0898,-3.0898,-3.0947,-3.0947,-3.0947,-3.1005,-3.0995,-3.1064,-3.1064,-3.116,-3.1383,-3.1383,-3.1498,-3.1672,-3.173,-3.1787,-3.1787,-3.173,-3.173,-3.1845,-3.196,-3.2018,-3.2018,-3.196,-3.2363,-3.2534,-3.2753,-3.313,-3.3383,-3.3763,-3.4161,-3.4406,-3.4582,-3.5034,-3.5108,-3.5307,-3.5585,-3.5902,-3.6231,-3.6592,-3.6916,-3.7078,-3.7131,-3.7185,-3.7292,-3.7346,-3.7453,-3.7507,-3.756,-3.7797,-3.7986,-3.8198,-3.8409,-3.8684,-3.8788,-3.8945,-3.9166,-3.9413,-3.9594,-3.9594,-3.9645,-3.9736,-3.9736,-3.9736,-3.989,-4.0096,-4.0236,-4.0504,-4.0555,-4.0555,-4.0656,-4.0846,-4.1097,-4.1348,-4.1547,-4.1796,-4.2141,-4.2239,-4.2373,-4.2679,-4.3245,-4.3784,-4.4209,-4.4597,-4.4968,-4.5184,-4.5398,-4.57,-4.5925,-4.6135,-4.6459,-4.6741,-4.7096,-4.7421,-4.7866,-4.8059,-4.861,-4.9357,-4.9686,-4.9926,-5.0588,-5.1252,-5.169,-5.2063,-5.257,-5.2781,-5.2939,-5.3406,-5.4202,-5.4475,-5.443,-5.4907,-5.5489,-5.564,-5.5591,-3.0343,-3.0352,-3.0343,-3.046,-3.0645,-3.0635,-3.0704,-3.0889,-3.0889,-3.0937,-3.1054,-3.1054,-3.117,-3.1286,-3.1276,-3.1276,-3.1286,-3.1344,-3.1392,-3.1498,-3.1556,-3.1624,-3.1787,-3.1787,-3.1903,-3.2018,-3.2123,-3.2238,-3.2763,-3.3399,-3.3918,-3.3963,-3.4132,-3.4312,-3.4702,-3.4858,-3.5069,-3.5334,-3.5621,-3.5895,-3.6102,-3.6254,-3.6352,-3.6417,-3.6688,-3.6808,-3.6862,-3.7024,-3.7131,-3.7304,-3.7453,-3.7495,-3.772,-3.7945,-3.8157,-3.8356,-3.8631,-3.8893,-3.9114,-3.9166,-3.9322,-3.9426,-3.9478,-3.9517,-3.9685,-3.9788,-3.989,-4.0044,-4.0198,-4.0236,-4.0338,-4.0542,-4.0707,-4.0858,-4.1047,-4.1298,-4.1547,-4.1647,-4.1796,-4.2092,-4.2427,-4.3058,-4.3623,-4.4129,-4.4438,-4.4644,-4.4922,-4.5227,-4.5533,-4.5821,-4.6232,-4.6703,-4.7122,-4.7554,-4.8059,-4.8491,-4.8923,-4.9583,-5.011,-5.0442,-5.1092,-5.1638,-5.1911,-5.2093,-5.2317,-5.2566,-5.2854,-5.3365,-5.3967,-5.4333,-5.4665,-5.4915,-5.5189,-5.5483,-5.5505,-2.945,-2.945,-2.9745,-3.0049,-3.0274,-3.0274,-3.0401,-3.0645,-3.0596,-3.0655,-3.0704,-3.0704,-3.0762,-3.082,-3.0879,-3.0947,-3.0947,-3.0898,-3.0995,-3.116,-3.1218,-3.1344,-3.145,-3.1508,-3.1556,-3.1672,-3.173,-3.1845,-3.2133,-3.2592,-3.3115,-3.3388,-3.3523,-3.3738,-3.3963,-3.4188,-3.4412,-3.4758,-3.4913,-3.5135,-3.5368,-3.5566,-3.5653,-3.5829,-3.6114,-3.6386,-3.644,-3.6495,-3.6592,-3.6742,-3.6862,-3.697,-3.7078,-3.7411,-3.7572,-3.7773,-3.7933,-3.8092,-3.8368,-3.8579,-3.8893,-3.9102,-3.9206,-3.9258,-3.953,-3.9581,-3.9633,-3.9749,-3.989,-3.9993,-4.0032,-4.0236,-4.0389,-4.044,-4.0555,-4.0757,-4.0985,-4.1214,-4.1496,-4.1878,-4.2245,-4.2562,-4.3098,-4.3625,-4.396,-4.4118,-4.4439,-4.4789,-4.526,-4.5669,-4.6255,-4.6795,-4.7224,-4.7735,-4.8311,-4.8833,-4.9311,-4.9812,-5.0285,-5.0679,-5.1147,-5.1513,-5.1789,-5.1972,-5.2094,-5.226,-5.2467,-5.308,-5.3612,-5.3915,-5.4157,-5.4343,-5.4639,-5.4957,-5.5328,-2.814,-2.8259,-2.939,-2.9863,-2.9922,-2.9922,-2.9922,-3.0039,-3.0039,-3.0039,-3.0108,-3.0274,-3.045,-3.0518,-3.0645,-3.0772,-3.0889,-3.0898,-3.0889,-3.0889,-3.0947,-3.1005,-3.1064,-3.1112,-3.117,-3.1325,-3.1334,-3.1508,-3.173,-3.1913,-3.2352,-3.2685,-3.2944,-3.3296,-3.3512,-3.3681,-3.3918,-3.4142,-3.4311,-3.4524,-3.4813,-3.498,-3.5091,-3.5301,-3.5412,-3.5478,-3.5478,-3.5632,-3.573,-3.5982,-3.6211,-3.644,-3.6603,-3.6874,-3.7024,-3.7078,-3.7227,-3.74,-3.756,-3.8145,-3.8671,-3.8788,-3.8893,-3.8985,-3.9258,-3.931,-3.9426,-3.9594,-3.9685,-3.9799,-3.9877,-3.9942,-4.0223,-4.0477,-4.063,-4.0824,-4.0965,-4.0875,-4.1234,-4.1672,-4.2071,-4.2405,-4.2765,-4.3336,-4.376,-4.3965,-4.4386,-4.4791,-4.5453,-4.5988,-4.65,-4.7005,-4.7384,-4.7894,-4.8541,-4.9099,-4.953,-4.9943,-5.0342,-5.0587,-5.086,-5.1231,-5.1541,-5.1741,-5.1834,-5.1941,-5.2139,-5.2608,-5.304,-5.3334,-5.364,-5.3872,-5.4173,-5.4555,-5.4915,-2.7831,-2.802,-2.8558,-2.8975,-2.939,-2.9568,-2.9745,-2.9863,-2.9922,-2.9922,-2.9863,-3.0039,-3.0098,-3.0157,-3.0167,-3.0284,-3.0294,-3.0294,-3.0411,-3.0577,-3.0635,-3.0704,-3.083,-3.0889,-3.1005,-3.1044,-3.1054,-3.1122,-3.1228,-3.1392,-3.1556,-3.1903,-3.2211,-3.2487,-3.2773,-3.3172,-3.3466,-3.3692,-3.3749,-3.3963,-3.4019,-3.4142,-3.4188,-3.4311,-3.4534,-3.459,-3.4646,-3.498,-3.5135,-3.5356,-3.5577,-3.5742,-3.595,-3.6157,-3.632,-3.6375,-3.6603,-3.6855,-3.6951,-3.7584,-3.8157,-3.8566,-3.8684,-3.8841,-3.8945,-3.901,-3.9166,-3.9322,-3.9488,-3.969,-4.0174,-4.0329,-4.0482,-4.0774,-4.0902,-4.0996,-4.1011,-4.0986,-4.1296,-4.1942,-4.2124,-4.228,-4.2697,-4.31,-4.3493,-4.3872,-4.4338,-4.4829,-4.5511,-4.616,-4.6679,-4.7149,-4.7552,-4.7946,-4.8609,-4.9151,-4.9683,-5.0022,-5.0313,-5.0489,-5.0618,-5.0793,-5.109,-5.1308,-5.1556,-5.1649,-5.188,-5.2155,-5.2518,-5.2862,-5.3173,-5.3452,-5.3801,-5.4103,-5.4428,-2.722,-2.7409,-2.7539,-2.802,-2.8677,-2.8966,-2.9144,-2.9331,-2.9272,-2.939,-2.9518,-2.9577,-2.9686,-2.9745,-2.9863,-2.9922,-2.9981,-2.9981,-3.0108,-3.0157,-3.0284,-3.0401,-3.0528,-3.0587,-3.0577,-3.0694,-3.0762,-3.0762,-3.0947,-3.1102,-3.1218,-3.1276,-3.1392,-3.174,-3.2201,-3.2545,-3.2887,-3.3001,-3.3172,-3.3285,-3.3332,-3.3455,-3.3625,-3.3692,-3.3918,-3.3974,-3.4086,-3.43,-3.4468,-3.4635,-3.4813,-3.4969,-3.5135,-3.529,-3.5499,-3.5764,-3.6063,-3.6472,-3.6691,-3.7094,-3.7596,-3.788,-3.821,-3.8368,-3.8538,-3.8753,-3.916,-3.9424,-3.9563,-3.9904,-4.0592,-4.0671,-4.0774,-4.1015,-4.1119,-4.1188,-4.1266,-4.1307,-4.1707,-4.2174,-4.2332,-4.2516,-4.3065,-4.3463,-4.3611,-4.4046,-4.4516,-4.4934,-4.5427,-4.6131,-4.6715,-4.7183,-4.7666,-4.807,-4.8567,-4.895,-4.9328,-4.9616,-4.9926,-5.0264,-5.0394,-5.057,-5.0745,-5.0996,-5.1199,-5.1339,-5.1587,-5.1818,-5.2109,-5.2397,-5.2743,-5.31,-5.3365,-5.3714,-5.3899,-2.6136,-2.6197,-2.651,-2.7177,-2.796,-2.8011,-2.808,-2.8191,-2.8199,-2.8388,-2.8636,-2.8865,-2.9153,-2.939,-2.9509,-2.9568,-2.9627,-2.9686,-2.9804,-2.9813,-2.9931,-2.9931,-2.999,-3.0098,-3.0216,-3.0392,-3.045,-3.0518,-3.0762,-3.0762,-3.082,-3.0937,-3.1054,-3.1286,-3.1797,-3.1845,-3.1845,-3.1903,-3.2248,-3.2524,-3.2696,-3.2944,-3.3126,-3.3285,-3.3342,-3.3342,-3.3512,-3.3614,-3.3727,-3.3861,-3.4183,-3.4374,-3.443,-3.4877,-3.5112,-3.5157,-3.5759,-3.6072,-3.6196,-3.6772,-3.7169,-3.7486,-3.7994,-3.8096,-3.8226,-3.8698,-3.9253,-3.9492,-3.9893,-4.035,-4.074,-4.0885,-4.1056,-4.1326,-4.1401,-4.1547,-4.1639,-4.1827,-4.2242,-4.2477,-4.2633,-4.2869,-4.3499,-4.3984,-4.3924,-4.4203,-4.4726,-4.5142,-4.5495,-4.598,-4.6562,-4.6938,-4.7378,-4.7729,-4.8086,-4.8567,-4.8966,-4.9242,-4.9537,-4.9829,-5.0072,-5.0264,-5.0489,-5.0713,-5.0949,-5.109,-5.1246,-5.1448,-5.1726,-5.2063,-5.2397,-5.2743,-5.3011,-5.3277,-5.3481,-2.5341,-2.5786,-2.5908,-2.6266,-2.6805,-2.7409,-2.765,-2.7702,-2.79,-2.808,-2.814,-2.8319,-2.8379,-2.8549,-2.8609,-2.8728,-2.8737,-2.8925,-2.9053,-2.934,-2.9459,-2.9745,-2.9804,-2.9804,-2.9922,-3.0039,-3.0098,-3.0098,-3.0225,-3.0284,-3.046,-3.0518,-3.0762,-3.1112,-3.145,-3.1614,-3.1787,-3.1845,-3.196,-3.2018,-3.2123,-3.2258,-3.2373,-3.2477,-3.2545,-3.2633,-3.2882,-3.3007,-3.3163,-3.3397,-3.3809,-3.4093,-3.4214,-3.4712,-3.4938,-3.5017,-3.5475,-3.5854,-3.6199,-3.6726,-3.7243,-3.7623,-3.7985,-3.8194,-3.8489,-3.8847,-3.923,-3.9552,-3.9934,-4.0422,-4.0961,-4.1102,-4.1348,-4.1812,-4.1979,-4.2134,-4.2257,-4.2479,-4.2746,-4.2783,-4.2914,-4.303,-4.3454,-4.3819,-4.3857,-4.4077,-4.4479,-4.501,-4.542,-4.575,-4.6292,-4.658,-4.6933,-4.7219,-4.7633,-4.7976,-4.838,-4.8631,-4.898,-4.934,-4.9634,-4.9892,-5.0183,-5.0456,-5.0632,-5.084,-5.1043,-5.1199,-5.1448,-5.1726,-5.2017,-5.2337,-5.2608,-5.2833,-5.3026,-2.4672,-2.5042,-2.5111,-2.5226,-2.5578,-2.6545,-2.7039,-2.7039,-2.7228,-2.7418,-2.7478,-2.7478,-2.765,-2.7771,-2.7831,-2.796,-2.802,-2.8208,-2.8388,-2.8687,-2.8856,-2.8975,-2.9153,-2.939,-2.94,-2.9577,-2.9745,-2.9804,-2.9981,-2.9922,-3.0039,-3.0216,-3.0479,-3.0752,-3.1113,-3.1357,-3.145,-3.145,-3.1508,-3.1614,-3.1672,-3.1787,-3.1845,-3.1953,-3.2034,-3.2203,-3.2408,-3.2643,-3.2919,-3.3254,-3.3595,-3.3979,-3.4152,-3.4395,-3.4713,-3.4821,-3.5285,-3.5757,-3.6284,-3.6692,-3.7197,-3.7732,-3.8114,-3.828,-3.8428,-3.8756,-3.9143,-3.9495,-3.9802,-4.0415,-4.1055,-4.1196,-4.1443,-4.1891,-4.2118,-4.2238,-4.2338,-4.2538,-4.2693,-4.2781,-4.2961,-4.3129,-4.324,-4.3462,-4.3678,-4.3949,-4.4287,-4.4789,-4.5207,-4.5542,-4.5808,-4.6126,-4.6389,-4.6703,-4.7015,-4.7325,-4.7722,-4.8064,-4.8431,-4.8781,-4.9192,-4.9502,-4.9844,-5.0149,-5.0313,-5.0537,-5.0822,-5.1011,-5.1261,-5.1401,-5.1556,-5.188,-5.2139,-5.2382,-5.2578,-2.4053,-2.4038,-2.41,-2.4108,-2.4355,-2.5517,-2.6014,-2.6075,-2.6136,-2.6327,-2.6571,-2.664,-2.6926,-2.734,-2.7392,-2.7521,-2.7719,-2.784,-2.79,-2.796,-2.8071,-2.814,-2.8259,-2.8448,-2.8746,-2.8975,-2.9153,-2.9331,-2.9745,-2.9867,-2.9858,-3.0005,-3.0246,-3.0627,-3.0942,-3.1062,-3.1152,-3.1348,-3.1525,-3.1593,-3.1652,-3.1728,-3.1836,-3.1974,-3.2124,-3.2313,-3.2483,-3.2772,-3.2944,-3.3114,-3.3205,-3.3415,-3.3605,-3.3844,-3.4152,-3.4655,-3.5301,-3.583,-3.6278,-3.6602,-3.6876,-3.7253,-3.7297,-3.7438,-3.7977,-3.8608,-3.9035,-3.9462,-3.982,-4.0402,-4.0928,-4.1076,-4.1236,-4.1573,-4.1928,-4.2029,-4.2086,-4.2243,-4.2388,-4.2581,-4.2806,-4.2961,-4.3085,-4.3308,-4.3474,-4.3585,-4.3806,-4.4081,-4.4559,-4.4951,-4.5221,-4.5542,-4.5808,-4.6073,-4.6389,-4.6755,-4.7053,-4.7452,-4.7824,-4.8243,-4.8645,-4.9058,-4.9355,-4.9649,-4.9941,-5.0264,-5.06,-5.0885,-5.112,-5.1229,-5.1338,-5.1556,-5.1864,-5.1972,-5.2124,-2.3168,-2.3417,-2.3604,-2.386,-2.417,-2.4541,-2.4903,-2.541,-2.5602,-2.5847,-2.5908,-2.6144,-2.625,-2.6493,-2.6493,-2.6562,-2.6744,-2.6865,-2.6935,-2.7116,-2.7409,-2.759,-2.7711,-2.79,-2.8148,-2.8268,-2.8388,-2.8612,-2.8777,-2.9144,-3.0014,-3.0419,-3.0377,-3.0789,-3.0948,-3.106,-3.1325,-3.1578,-3.1738,-3.172,-3.1809,-3.1919,-3.2038,-3.2107,-3.2206,-3.2375,-3.2574,-3.2734,-3.2894,-3.3055,-3.3437,-3.369,-3.371,-3.4095,-3.4411,-3.4779,-3.5241,-3.5673,-3.6034,-3.6351,-3.6595,-3.6656,-3.6686,-3.7356,-3.7918,-3.8496,-3.8904,-3.9254,-3.9546,-4.0013,-4.0351,-4.0525,-4.0757,-4.1057,-4.1344,-4.1528,-4.1643,-4.1928,-4.2073,-4.2369,-4.2525,-4.2806,-4.2918,-4.3085,-4.3197,-4.3252,-4.3351,-4.3628,-4.3916,-4.4354,-4.4639,-4.4964,-4.5234,-4.5488,-4.5861,-4.6218,-4.6533,-4.6832,-4.726,-4.7685,-4.8106,-4.8509,-4.8795,-4.9371,-5.0095,-5.0369,-5.0471,-5.0813,-5.1348,-5.113,-5.1195,-5.14,-5.1617,-5.1831,-5.2045,-2.2487,-2.2738,-2.2926,-2.3106,-2.33,-2.3479,-2.3728,-2.417,-2.4734,-2.4988,-2.505,-2.5226,-2.5394,-2.5517,-2.5525,-2.5647,-2.5961,-2.6144,-2.6266,-2.6562,-2.6744,-2.6857,-2.7039,-2.7297,-2.7358,-2.7513,-2.7808,-2.8182,-2.8305,-2.8867,-2.9667,-2.997,-3.0362,-3.0739,-3.0919,-3.1151,-3.1584,-3.1836,-3.1944,-3.1922,-3.1954,-3.2024,-3.2046,-3.2246,-3.2314,-3.2525,-3.2676,-3.2797,-3.3048,-3.319,-3.3528,-3.3711,-3.3793,-3.422,-3.4403,-3.4674,-3.4808,-3.5067,-3.5232,-3.5552,-3.5798,-3.5983,-3.6116,-3.6685,-3.727,-3.7828,-3.8339,-3.8789,-3.9049,-3.9356,-3.965,-3.9873,-4.0176,-4.0479,-4.0711,-4.0942,-4.123,-4.1516,-4.1802,-4.2098,-4.2312,-4.2581,-4.275,-4.2862,-4.303,-4.3085,-4.3129,-4.324,-4.353,-4.3929,-4.4148,-4.4367,-4.4639,-4.491,-4.5328,-4.5688,-4.5954,-4.627,-4.6637,-4.7119,-4.7559,-4.8387,-4.9098,-4.981,-5.0469,-5.0714,-5.0935,-5.133,-5.1672,-5.1472,-5.1542,-5.2004,-5.2147,-5.2062,-5.2309,-2.2048,-2.2048,-2.2118,-2.2174,-2.2174,-2.248,-2.2613,-2.2668,-2.3549,-2.3984,-2.4046,-2.4108,-2.4417,-2.4664,-2.4734,-2.4972,-2.5226,-2.5418,-2.5525,-2.5945,-2.5953,-2.5945,-2.6083,-2.6361,-2.6713,-2.6964,-2.738,-2.7901,-2.8252,-2.8737,-2.919,-2.919,-2.9735,-3.0247,-3.0746,-3.0954,-3.1308,-3.161,-3.1508,-3.1422,-3.1727,-3.1763,-3.1838,-3.2209,-3.2494,-3.2789,-3.2877,-3.3072,-3.3418,-3.3408,-3.3461,-3.3558,-3.3809,-3.4017,-3.4225,-3.436,-3.4423,-3.4548,-3.4673,-3.4922,-3.5108,-3.5356,-3.5675,-3.5983,-3.6524,-3.7071,-3.7626,-3.8047,-3.8276,-3.8645,-3.8882,-3.9178,-3.9485,-3.9826,-4.0118,-4.0409,-4.0769,-4.1057,-4.1414,-4.1688,-4.2029,-4.2243,-4.2481,-4.265,-4.2806,-4.2918,-4.303,-4.303,-4.3197,-4.3543,-4.3708,-4.3874,-4.4216,-4.4476,-4.4735,-4.5113,-4.5448,-4.5808,-4.6139,-4.671,-4.7317,-4.8329,-4.9545,-5.0078,-5.0558,-5.1179,-5.1524,-5.1716,-5.1891,-5.2152,-5.2314,-5.2762,-5.2819,-5.2695,-5.2675,-2.1734,-2.1734,-2.1985,-2.2104,-2.2104,-2.2174,-2.223,-2.223,-2.248,-2.305,-2.3666,-2.3922,-2.4046,-2.4053,-2.4115,-2.4293,-2.4417,-2.461,-2.4541,-2.4795,-2.4926,-2.5175,-2.5191,-2.5824,-2.6091,-2.6479,-2.696,-2.7672,-2.8146,-2.8626,-2.9127,-2.9547,-2.9868,-3.0188,-3.0406,-3.0617,-3.0818,-3.1111,-3.1121,-3.1282,-3.1806,-3.2144,-3.2327,-3.2434,-3.2685,-3.2782,-3.2966,-3.3141,-3.3355,-3.3408,-3.3418,-3.3471,-3.3534,-3.3607,-3.3796,-3.3985,-3.4047,-3.411,-3.4298,-3.4423,-3.461,-3.4725,-3.4984,-3.5294,-3.5726,-3.629,-3.6778,-3.7132,-3.7555,-3.7867,-3.8178,-3.8477,-3.8786,-3.9178,-3.9532,-3.9884,-4.0246,-4.0595,-4.0954,-4.1287,-4.1618,-4.1903,-4.2142,-4.2369,-4.2525,-4.275,-4.2918,-4.303,-4.2974,-4.3209,-4.3364,-4.353,-4.3832,-4.4094,-4.43,-4.4626,-4.5018,-4.534,-4.5742,-4.6316,-4.7105,-4.8342,-4.9623,-4.9977,-5.0465,-5.1216,-5.1663,-5.1628,-5.1866,-5.2452,-5.2841,-5.3203,-5.358,-5.3565,-5.338,-2.1362,-2.1425,-2.1544,-2.167,-2.167,-2.1796,-2.1859,-2.1929,-2.2048,-2.2418,-2.2918,-2.3113,-2.3238,-2.33,-2.3362,-2.3549,-2.3673,-2.386,-2.4046,-2.4185,-2.4338,-2.4594,-2.4968,-2.5297,-2.5478,-2.5882,-2.6616,-2.7319,-2.7858,-2.8349,-2.8801,-2.9151,-2.9504,-2.9774,-2.9913,-3.0044,-3.0174,-3.0434,-3.0564,-3.0944,-3.1653,-3.1846,-3.223,-3.2422,-3.254,-3.2667,-3.2794,-3.2985,-3.3102,-3.3228,-3.3301,-3.3355,-3.3418,-3.3418,-3.3481,-3.3607,-3.367,-3.3733,-3.3985,-3.411,-3.4173,-3.4298,-3.4475,-3.4859,-3.4922,-3.5418,-3.5972,-3.6401,-3.6778,-3.7154,-3.7435,-3.7736,-3.8118,-3.8466,-3.8834,-3.919,-3.9661,-4.0176,-4.0467,-4.0699,-4.1033,-4.1459,-4.1757,-4.2098,-4.2256,-4.2369,-4.2594,-4.2806,-4.2806,-4.293,-4.3073,-4.324,-4.3543,-4.3653,-4.3793,-4.419,-4.4585,-4.4922,-4.5324,-4.6583,-4.7731,-4.8681,-4.9619,-5.0241,-5.0837,-5.1459,-5.18,-5.1817,-5.2309,-5.2923,-5.3268,-5.3529,-5.3929,-5.4265,-5.4192,-2.1102,-2.1102,-2.1102,-2.1102,-2.1102,-2.1418,-2.1544,-2.1614,-2.1853,-2.1922,-2.1978,-2.1985,-2.1985,-2.2237,-2.2355,-2.2668,-2.2955,-2.323,-2.3583,-2.3868,-2.4227,-2.4254,-2.4476,-2.4872,-2.5241,-2.5685,-2.6244,-2.6801,-2.737,-2.7726,-2.799,-2.818,-2.8518,-2.8839,-2.9176,-2.9438,-2.9635,-2.9839,-2.997,-3.0174,-3.0629,-3.1147,-3.1653,-3.2038,-3.2284,-3.2284,-3.2422,-3.2603,-3.2794,-3.2921,-3.3111,-3.3238,-3.3292,-3.3355,-3.3418,-3.3481,-3.3481,-3.3481,-3.3544,-3.3733,-3.3796,-3.3922,-3.4173,-3.4298,-3.435,-3.4662,-3.5232,-3.5613,-3.6044,-3.6412,-3.6707,-3.7071,-3.7385,-3.7818,-3.8178,-3.8559,-3.9131,-3.9708,-3.9931,-4.0106,-4.0525,-4.0942,-4.1299,-4.17,-4.1928,-4.2029,-4.2199,-4.2356,-4.2525,-4.2694,-4.2862,-4.3017,-4.3252,-4.3364,-4.3462,-4.3789,-4.4255,-4.4746,-4.5336,-4.6908,-4.8238,-4.9048,-4.9927,-5.0753,-5.1399,-5.1626,-5.2059,-5.2266,-5.2838,-5.3183,-5.3448,-5.3635,-5.4045,-5.4368,-5.4741,-2.1102,-2.1102,-2.1102,-2.1102,-2.1102,-2.1172,-2.1172,-2.1229,-2.1229,-2.1299,-2.1355,-2.1362,-2.1551,-2.2111,-2.2167,-2.2321,-2.2468,-2.2779,-2.2773,-2.2929,-2.3644,-2.3746,-2.4014,-2.4575,-2.5342,-2.57,-2.5932,-2.6254,-2.6658,-2.6926,-2.7126,-2.74,-2.7716,-2.8048,-2.8395,-2.8593,-2.865,-2.8922,-2.9111,-2.9242,-2.9643,-3.023,-3.075,-3.1129,-3.1442,-3.1708,-3.1974,-3.2294,-3.2485,-3.2613,-3.2794,-3.2921,-3.3048,-3.3175,-3.3301,-3.3355,-3.3355,-3.3418,-3.3481,-3.3544,-3.3607,-3.3617,-3.3859,-3.3975,-3.4037,-3.4235,-3.461,-3.4797,-3.518,-3.5675,-3.6034,-3.6412,-3.6728,-3.7203,-3.7566,-3.8058,-3.8537,-3.9001,-3.9356,-3.965,-3.9943,-4.0363,-4.0723,-4.1057,-4.1402,-4.1631,-4.1915,-4.2073,-4.2369,-4.2538,-4.2756,-4.2962,-4.3168,-4.3184,-4.3351,-4.3576,-4.3955,-4.4485,-4.5283,-4.6737,-4.8043,-4.9212,-5.0043,-5.0642,-5.1128,-5.1429,-5.191,-5.2289,-5.2598,-5.2914,-5.3314,-5.3666,-5.4089,-5.4399,-5.4619]},{"header":{"parameterUnit":"m.s-1","parameterCategory":1,"la1":31.0,"la2":29.5877,"lo1":-88.7671,"lo2":-86.6584,"dy":0.0162,"dx":0.0185,"nx":115,"ny":88,"refTime":"2024-06-10T12:00:00:Z","depth":0,"parameterNumber":3,"parameterNumberName":"V-component_of_WINDS"},"data":[0.0,0.0,0.0,0.0,0.0,0.0,0.0,0.0,0.0,0.0,0.0,0.0,0.0,0.0,0.0,0.0,0.0,0.0,0.0,0.0,0.0,0.0,0.0,0.0,0.0,0.0,0.0,0.0,0.0,0.0,0.0,0.0,0.0,0.0,0.0,0.0,0.0,0.0,0.0,0.0,0.0,0.0,0.0,0.0,0.0,0.0,0.0,0.0,0.0,0.0,0.0,0.0,0.0,0.0,0.0,0.0,0.0,0.0,0.0,0.0,0.0,0.0,0.0,0.0,0.0,0.0,0.0,0.0,0.0,0.0,0.0,0.0,0.0,0.0,0.0,0.0,0.0,0.0,0.0,0.0,0.0,0.0,0.0,0.0,0.0,0.0,0.0,0.0,0.0,0.0,0.0,0.0,0.0,0.0,0.0,0.0,0.0,0.0,0.0,0.0,0.0,0.0,0.0,0.0,0.0,0.0,0.0,0.0,0.0,0.0,0.0,0.0,0.0,0.0,0.0,0.0,0.0,0.0,0.0,0.0,0.0,0.0,0.0,0.0,0.0,0.0,0.0,0.0,0.0,0.0,0.0,0.0,0.0,0.0,0.0,0.0,0.0,0.0,0.0,0.0,0.0,0.0,0.0,0.0,0.0,0.0,0.0,0.0,0.0,0.0,0.0,0.0,0.0,0.0,0.0,0.0,0.0,0.0,0.0,0.0,0.0,0.0,0.0,0.0,0.0,0.0,0.0,0.0,0.0,0.0,0.0,0.0,0.0,0.0,0.0,0.0,0.0,0.0,0.0,0.0,0.0,0.0,0.0,0.0,0.0,0.0,0.0,0.0,0.0,0.0,0.0,0.0,0.0,0.0,0.0,0.0,0.0,0.0,0.0,0.0,0.0,0.0,0.0,0.0,0.0,0.0,0.0,0.0,0.0,0.0,0.0,0.0,0.0,0.0,0.0,0.0,0.0,0.0,0.0,0.0,0.0,0.0,0.0,0.0,0.0,0.0,0.0,0.0,0.0,0.0,0.0,0.0,0.0,0.0,0.0,0.0,0.0,0.0,0.0,0.0,0.0,0.0,0.0,0.0,0.0,0.0,0.0,0.0,0.0,0.0,0.0,0.0,0.0,0.0,0.0,0.0,0.0,0.0,0.0,0.0,0.0,0.0,0.0,0.0,0.0,0.0,0.0,0.0,0.0,0.0,0.0,0.0,0.0,0.0,0.0,0.0,0.0,0.0,0.0,0.0,0.0,0.0,0.0,0.0,0.0,0.0,0.0,0.0,0.0,0.0,0.0,0.0,0.0,0.0,0.0,0.0,0.0,0.0,0.0,0.0,0.0,0.0,0.0,0.0,0.0,0.0,0.0,0.0,0.0,0.0,0.0,0.0,0.0,0.0,0.0,0.0,0.0,0.0,0.0,0.0,0.0,0.0,0.0,0.0,0.0,0.0,0.0,0.0,0.0,0.0,0.0,0.0,0.0,0.0,0.0,0.0,0.0,0.0,0.0,0.0,0.0,0.0,0.0,0.0,0.0,0.0,0.0,0.0,0.0,0.0,0.0,0.0,0.0,0.0,0.0,0.0,0.0,0.0,0.0,0.0,0.0,0.0,0.0,0.0,0.0,0.0,0.0,0.0,0.0,0.0,0.0,0.0,0.0,0.0,0.0,0.0,0.0,0.0,0.0,0.0,0.0,0.0,0.0,0.0,0.0,0.0,0.0,0.0,0.0,0.0,0.0,0.0,0.0,0.0,0.0,0.0,0.0,0.0,0.0,0.0,0.0,0.0,0.0,0.0,0.0,0.0,0.0,0.0,0.0,0.0,0.0,0.0,0.0,0.0,0.0,0.0,0.0,0.0,0.0,0.0,0.0,0.0,0.0,0.0,0.0,0.0,0.0,0.0,0.0,0.0,0.0,0.0,0.0,0.0,0.0,0.0,0.0,0.0,0.0,0.0,0.0,0.0,0.0,0.0,0.0,0.0,0.0,0.0,0.0,0.0,0.0,0.0,0.0,0.0,0.0,0.0,0.0,0.0,0.0,0.0,0.0,0.0,0.0,0.0,0.0,0.0,0.0,0.0,0.0,0.0,0.0,0.0,0.0,0.0,0.0,0.0,0.0,0.0,0.0,0.0,0.0,0.0,0.0,0.0,0.0,0.0,0.0,0.0,0.0,0.0,0.0,0.0,0.0,0.0,0.0,0.0,0.0,0.0,0.0,0.0,0.0,0.0,0.0,0.0,0.0,0.0,0.0,0.0,0.0,0.0,0.0,0.0,0.0,0.0,0.0,0.0,0.0,0.0,0.0,0.0,0.0,0.0,0.0,0.0,0.0,0.0,0.0,0.0,0.0,0.0,0.0,0.0,0.0,0.0,0.0,0.0,0.0,0.0,0.0,0.0,0.0,0.0,0.0,0.0,0.0,0.0,0.0,0.0,0.0,0.0,0.0,0.0,0.0,0.0,0.0,0.0,0.0,0.0,0.0,0.0,0.0,0.0,0.0,0.0,0.0,0.0,0.0,0.0,0.0,0.0,0.0,0.0,0.0,0.0,0.0,0.0,0.0,0.0,0.0,0.0,0.0,0.0,0.0,0.0,0.0,0.0,0.0,0.0,0.0,0.0,0.0,0.0,0.0,0.0,0.0,0.0,0.0,0.0,0.0,0.0,0.0,0.0,0.0,0.0,0.0,0.0,0.0,0.0,0.0,0.0,0.0,0.0,0.0,0.0,0.0,0.0,0.0,0.0,0.0,0.0,0.0,0.0,0.0,0.0,0.0,0.0,0.0,0.0,0.0,0.0,0.0,0.0,0.0,0.0,0.0,0.0,0.0,0.0,0.0,0.0,0.0,0.0,0.0,0.0,0.0,0.0,0.0,0.0,0.0,0.0,0.0,0.0,0.0,0.0,0.0,0.0,0.0,0.0,0.0,0.0,0.0,0.0,0.0,0.0,0.0,0.0,0.0,0.0,0.0,0.0,0.0,0.0,0.0,0.0,0.0,0.0,0.0,0.0,0.0,0.0,0.0,0.0,0.0,0.0,0.0,0.0,0.0,0.0,0.0,0.0,0.0,0.0,0.0,0.0,0.0,0.0,0.0,0.0,0.0,0.0,0.0,0.0,0.0,0.0,0.0,0.0,0.0,0.0,0.0,0.0,0.0,0.0,0.0,0.0,0.0,0.0,0.0,0.0,0.0,0.0,0.0,0.0,0.0,0.0,0.0,0.0,0.0,0.0,0.0,0.0,0.0,0.0,0.0,0.0,0.0,0.0,0.0,0.0,0.0,0.0,0.0,0.0,0.0,0.0,0.0,0.0,0.0,0.0,0.0,0.0,0.0,0.0,0.0,0.0,0.0,0.0,0.0,0.0,0.0,0.0,0.0,0.0,0.0,0.0,0.0,0.0,0.0,0.0,0.0,0.0,0.0,0.0,0.0,0.0,0.0,0.0,0.0,0.0,0.0,0.0,0.0,0.0,0.0,0.0,0.0,0.0,0.0,0.0,0.0,0.0,0.0,0.0,0.0,0.0,0.0,0.0,0.0,0.0,0.0,0.0,0.0,0.0,0.0,0.0,0.0,0.0,0.0,0.0,0.0,0.0,0.0,0.0,0.0,0.0,0.0,0.0,0.0,0.0,0.0,0.0,0.0,0.0,0.0,0.0,0.0,0.0,0.0,0.0,0.0,0.0,0.0,0.0,0.0,0.0,0.0,0.0,0.0,0.0,0.0,0.0,0.0,0.0,0.0,0.0,0.0,0.0,0.0,0.0,0.0,0.0,0.0,0.0,0.0,0.0,0.0,0.0,0.0,0.0,0.0,0.0,0.0,0.0,0.0,0.0,0.0,0.0,0.0,0.0,0.0,0.0,0.0,0.0,0.0,0.0,0.0,0.0,0.0,0.0,0.0,0.0,0.0,0.0,0.0,0.0,0.0,0.0,0.0,0.0,0.0,0.0,0.0,0.0,0.0,0.0,0.0,0.0,0.0,0.0,0.0,0.0,0.0,0.0,0.0,0.0,0.0,0.0,0.0,0.0,0.0,0.0,0.0,0.0,0.0,0.0,0.0,0.0,0.0,0.0,0.0,0.0,0.0,0.0,0.0,0.0,0.0,0.0,0.0,0.0,0.0,0.0,0.0,0.0,0.0,0.0,0.0,0.0,0.0,0.0,0.0,0.0,0.0,0.0,0.0,0.0,0.0,0.0,0.0,0.0,0.0,0.0,0.0,0.0,0.0,0.0,0.0,0.0,0.0,0.0,0.0,0.0,0.0,0.0,0.0,0.0,0.0,0.0,2.1894,0.0,0.0,0.0,0.0,0.0,0.0,0.0,0.0,0.0,0.0,0.0,0.0,0.0,0.0,0.0,0.0,0.0,0.0,0.0,0.0,0.0,0.0,0.0,0.0,0.0,0.0,0.0,0.0,0.0,0.0,0.0,0.0,0.0,0.0,0.0,0.0,0.0,0.0,0.0,0.0,0.0,0.0,0.0,0.0,0.0,0.0,0.0,0.0,0.0,0.0,0.0,0.0,0.0,0.0,0.0,0.0,0.0,0.0,0.0,0.0,0.0,0.0,0.0,0.0,0.0,0.0,0.0,0.0,0.0,0.0,0.0,0.0,0.0,0.0,0.0,0.0,0.0,0.0,0.0,0.0,0.0,0.0,0.0,0.0,0.0,0.0,0.0,0.0,0.0,0.0,0.0,0.0,0.0,0.0,0.0,0.0,0.0,0.0,0.0,0.0,0.0,0.0,0.0,0.0,0.0,0.0,0.0,0.0,0.0,0.0,2.3633,2.3019,2.2628,2.216,2.1543,0.0,0.0,0.0,0.0,0.0,0.0,0.0,0.0,0.0,0.0,0.0,0.0,0.0,0.0,0.0,0.0,0.0,0.0,0.0,0.0,0.0,0.0,0.0,0.0,0.0,0.0,0.0,0.0,0.0,0.0,0.0,0.0,0.0,0.0,0.0,0.0,0.0,0.0,0.0,0.0,0.0,0.0,0.0,0.0,0.0,0.0,0.0,0.0,0.0,0.0,0.0,0.0,0.0,0.0,0.0,0.0,0.0,0.0,0.0,0.0,0.0,0.0,0.0,0.0,0.0,0.0,0.0,0.0,0.0,0.0,0.0,0.0,0.0,0.0,0.0,0.0,0.0,0.0,0.0,0.0,0.0,0.0,0.0,0.0,0.0,0.0,0.0,0.0,0.0,0.0,0.0,0.0,0.0,0.0,0.0,0.0,0.0,0.0,0.0,0.0,0.0,0.0,0.0,0.0,0.0,0.0,0.0,0.0,0.0,0.0,0.0,0.0,2.1961,2.1538,2.0855,0.0,0.0,0.0,0.0,0.0,0.0,0.0,0.0,0.0,0.0,0.0,0.0,0.0,0.0,0.0,0.0,0.0,0.0,0.0,0.0,0.0,0.0,0.0,0.0,0.0,0.0,0.0,0.0,0.0,0.0,0.0,0.0,0.0,0.0,0.0,0.0,0.0,0.0,0.0,0.0,0.0,0.0,0.0,0.0,0.0,0.0,0.0,0.0,0.0,0.0,0.0,0.0,0.0,0.0,0.0,0.0,0.0,0.0,0.0,0.0,0.0,0.0,0.0,0.0,0.0,0.0,0.0,0.0,0.0,0.0,0.0,0.0,0.0,0.0,0.0,0.0,0.0,0.0,0.0,0.0,0.0,0.0,0.0,0.0,0.0,0.0,0.0,0.0,0.0,0.0,0.0,0.0,0.0,0.0,0.0,0.0,0.0,0.0,0.0,0.0,0.0,0.0,0.0,0.0,0.0,0.0,0.0,0.0,0.0,0.0,2.2865,2.1993,2.1697,0.0,1.9785,0.0,0.0,0.0,0.0,0.0,0.0,0.0,0.0,0.0,0.0,0.0,0.0,0.0,0.0,0.0,0.0,0.0,0.0,0.0,0.0,0.0,0.0,0.0,0.0,0.0,0.0,0.0,0.0,0.0,0.0,0.0,0.0,0.0,0.0,0.0,0.0,0.0,0.0,0.0,0.0,0.0,0.0,0.0,0.0,0.0,0.0,0.0,0.0,0.0,0.0,0.0,0.0,0.0,0.0,0.0,0.0,0.0,0.0,0.0,0.0,0.0,0.0,0.0,0.0,0.0,0.0,0.0,0.0,0.0,0.0,0.0,0.0,0.0,0.0,0.0,0.0,0.0,0.0,0.0,0.0,0.0,0.0,0.0,0.0,0.0,0.0,0.0,0.0,0.0,0.0,0.0,0.0,0.0,0.0,0.0,0.0,0.0,0.0,0.0,0.0,0.0,0.0,0.0,0.0,0.0,0.0,0.0,0.0,0.0,0.0,2.2005,2.1317,2.0653,1.9757,0.0,0.0,0.0,0.0,0.0,0.0,0.0,0.0,0.0,0.0,0.0,0.0,0.0,0.0,0.0,0.0,0.0,0.0,0.0,0.0,0.0,0.0,0.0,0.0,0.0,0.0,0.0,0.0,0.0,0.0,0.0,0.0,0.0,0.0,0.0,0.0,0.0,0.0,0.0,0.0,0.0,0.0,0.0,0.0,0.0,0.0,0.0,0.0,0.0,0.0,0.0,0.0,0.0,0.0,0.0,0.0,0.0,0.0,0.0,0.0,0.0,0.0,0.0,0.0,0.0,0.0,0.0,0.0,0.0,0.0,0.0,0.0,0.0,0.0,0.0,0.0,0.0,0.0,0.0,0.0,0.0,0.0,0.0,0.0,0.0,0.0,0.0,0.0,0.0,0.0,0.0,0.0,0.0,0.0,0.0,0.0,0.0,0.0,0.0,0.0,0.0,0.0,0.0,0.0,0.0,0.0,0.0,0.0,0.0,0.0,2.1787,2.1054,2.0313,1.9495,1.8667,1.7751,0.0,0.0,0.0,0.0,0.0,0.0,0.0,0.0,0.0,0.0,0.0,0.0,0.0,0.0,0.0,0.0,0.0,0.0,0.0,0.0,0.0,0.0,0.0,0.0,0.0,0.0,0.0,0.0,0.0,0.0,0.0,0.0,0.0,0.0,0.0,0.0,0.0,0.0,0.0,0.0,0.0,0.0,0.0,0.0,0.0,0.0,0.0,0.0,0.0,0.0,0.0,0.0,0.0,0.0,0.0,0.0,0.0,0.0,0.0,0.0,0.0,0.0,0.0,0.0,0.0,0.0,0.0,0.0,0.0,0.0,0.0,0.0,0.0,0.0,0.0,0.0,0.0,0.0,0.0,0.0,0.0,0.0,0.0,0.0,0.0,0.0,0.0,0.0,0.0,0.0,0.0,0.0,0.0,0.0,0.0,0.0,0.0,0.0,0.0,0.0,0.0,0.0,0.0,0.0,0.0,0.0,0.0,0.0,0.0,2.1089,2.0012,1.8968,1.8282,1.7748,0.0,0.0,0.0,0.0,0.0,0.0,0.0,0.0,0.0,0.0,0.0,0.0,0.0,0.0,0.0,0.0,0.0,0.0,0.0,0.0,0.0,0.0,0.0,0.0,0.0,0.0,0.0,0.0,0.0,0.0,0.0,0.0,0.0,0.0,0.0,0.0,0.0,0.0,0.0,0.0,0.0,0.0,0.0,0.0,0.0,0.0,0.0,0.0,0.0,0.0,0.0,0.0,0.0,0.0,0.0,0.0,0.0,0.0,0.0,0.0,0.0,0.0,0.0,0.0,0.0,0.0,0.0,0.0,0.0,0.0,0.0,0.0,0.0,0.0,0.0,0.0,0.0,0.0,0.0,0.0,0.0,0.0,0.0,0.0,0.0,0.0,0.0,0.0,0.0,0.0,0.0,0.0,0.0,0.0,0.0,0.0,0.0,0.0,0.0,0.0,0.0,0.0,0.0,0.0,0.0,0.0,0.0,0.0,0.0,2.1261,2.0063,1.9138,1.8551,1.7979,1.7414,0.0,0.0,0.0,0.0,0.0,0.0,0.0,0.0,0.0,0.0,0.0,0.0,0.0,0.0,0.0,0.0,0.0,0.0,0.0,0.0,0.0,0.0,0.0,0.0,0.0,0.0,0.0,0.0,0.0,0.0,0.0,0.0,0.0,0.0,0.0,0.0,0.0,0.0,0.0,0.0,0.0,0.0,0.0,0.0,0.0,0.0,0.0,0.0,0.0,0.0,0.0,0.0,0.0,0.0,0.0,0.0,0.0,0.0,0.0,0.0,0.0,0.0,0.0,0.0,0.0,0.0,0.0,0.0,0.0,0.0,0.0,0.0,0.0,0.0,0.0,0.0,0.0,0.0,0.0,0.0,0.0,0.0,0.0,0.0,0.0,0.0,0.0,0.0,0.0,0.0,0.0,0.0,0.0,0.0,0.0,0.0,0.0,0.0,0.0,0.0,0.0,0.0,0.0,0.0,0.0,0.0,0.0,0.0,0.0,2.0187,0.0,1.8415,0.0,1.7567,1.7015,0.0,0.0,0.0,0.0,0.0,0.0,0.0,0.0,0.0,0.0,0.0,0.0,0.0,0.0,0.0,0.0,0.0,0.0,0.0,0.0,0.0,0.0,0.0,0.0,0.0,0.0,0.0,0.0,0.0,0.0,0.0,0.0,0.0,0.0,0.0,0.0,0.0,0.0,0.0,0.0,0.0,0.0,0.0,0.0,0.0,0.0,0.0,0.0,0.0,0.0,0.0,0.0,0.0,0.0,0.0,0.0,0.0,0.0,0.0,0.0,0.0,0.0,0.0,0.0,0.0,0.0,0.0,0.0,0.0,0.0,0.0,0.0,0.0,0.0,0.0,0.0,0.0,0.0,0.0,0.0,0.0,0.0,0.0,0.0,0.0,0.0,0.0,0.0,0.0,0.0,0.0,0.0,0.0,0.0,0.0,0.0,0.0,0.0,0.0,0.0,0.0,0.0,0.0,0.0,0.0,0.0,0.0,0.0,2.0315,1.8871,1.8345,1.7945,1.7575,1.7085,1.6679,0.0,0.0,0.0,0.0,0.0,0.0,0.0,0.0,0.0,0.0,0.0,0.0,0.0,0.0,0.0,0.0,0.0,0.0,0.0,0.0,0.0,0.0,0.0,0.0,0.0,0.0,0.0,0.0,0.0,0.0,0.0,0.0,0.0,0.0,0.0,0.0,0.0,0.0,0.0,0.0,0.0,0.0,0.0,0.0,0.0,0.0,0.0,0.0,0.0,0.0,0.0,0.0,0.0,0.0,0.0,0.0,0.0,0.0,0.0,0.0,0.0,0.0,0.0,0.0,0.0,0.0,0.0,0.0,0.0,0.0,0.0,0.0,0.0,0.0,0.0,0.0,0.0,0.0,0.0,0.0,0.0,0.0,0.0,0.0,0.0,0.0,0.0,0.0,0.0,0.0,0.0,0.0,0.0,0.0,0.0,0.0,0.0,0.0,0.0,0.0,0.0,0.0,0.0,0.0,0.0,0.0,0.0,0.0,0.0,1.8897,1.8536,1.8225,1.7896,1.7321,1.6824,0.0,0.0,0.0,0.0,0.0,0.0,0.0,0.0,0.0,0.0,0.0,0.0,0.0,0.0,0.0,0.0,0.0,0.0,0.0,0.0,0.0,0.0,0.0,0.0,0.0,0.0,0.0,0.0,0.0,0.0,0.0,0.0,0.0,0.0,0.0,0.0,0.0,0.0,0.0,0.0,0.0,0.0,0.0,0.0,0.0,0.0,0.0,0.0,0.0,0.0,0.0,0.0,0.0,0.0,0.0,0.0,0.0,0.0,0.0,0.0,0.0,0.0,0.0,0.0,0.0,0.0,0.0,0.0,0.0,0.0,0.0,0.0,0.0,0.0,0.0,0.0,0.0,0.0,0.0,0.0,0.0,0.0,0.0,0.0,0.0,0.0,0.0,0.0,0.0,0.0,0.0,0.0,0.0,0.0,0.0,0.0,0.0,0.0,0.0,0.0,0.0,0.0,0.0,0.0,0.0,0.0,0.0,0.0,0.0,1.9063,1.8665,1.835,1.7995,1.7569,1.7085,1.6496,0.0,0.0,0.0,0.0,0.0,0.0,0.0,0.0,0.0,0.0,0.0,0.0,0.0,0.0,0.0,0.0,0.0,0.0,0.0,0.0,0.0,0.0,0.0,0.0,0.0,0.0,0.0,0.0,0.0,0.0,0.0,0.0,0.0,0.0,0.0,0.0,0.0,0.0,0.0,0.0,0.0,0.0,0.0,0.0,0.0,0.0,0.0,0.0,0.0,0.0,0.0,0.0,0.0,0.0,0.0,0.0,0.0,0.0,0.0,0.0,0.0,0.0,0.0,0.0,0.0,0.0,0.0,0.0,0.0,0.0,0.0,0.0,0.0,0.0,0.0,0.0,0.0,0.0,0.0,0.0,0.0,0.0,0.0,0.0,0.0,0.0,0.0,0.0,0.0,0.0,0.0,0.0,0.0,0.0,0.0,0.0,0.0,0.0,0.0,0.0,0.0,0.0,0.0,0.0,0.0,0.0,0.0,0.0,1.9321,1.8783,1.841,1.8055,1.7782,1.7335,0.0,0.0,0.0,0.0,0.0,0.0,0.0,0.0,0.0,0.0,0.0,0.0,0.0,0.0,0.0,0.0,0.0,0.0,0.0,0.0,0.0,0.0,0.0,0.0,0.0,0.0,0.0,0.0,0.0,0.0,0.0,0.0,0.0,0.0,0.0,0.0,0.0,0.0,0.0,0.0,0.0,0.0,0.0,0.0,0.0,0.0,0.0,0.0,0.0,0.0,0.0,0.0,0.0,0.0,0.0,0.0,0.0,0.0,0.0,0.0,0.0,0.0,0.0,0.0,0.0,0.0,0.0,0.0,0.0,0.0,0.0,0.0,0.0,0.0,0.0,0.0,0.0,0.0,0.0,0.0,0.0,0.0,0.0,0.0,0.0,0.0,0.0,0.0,0.0,0.0,0.0,0.0,0.0,0.0,0.0,0.0,0.0,0.0,0.0,0.0,0.0,0.0,0.0,0.0,0.0,0.0,0.0,0.0,0.0,1.9334,1.9229,1.8998,1.8691,1.8183,1.7629,0.0,0.0,0.0,0.0,0.0,0.0,0.0,0.0,0.0,0.0,0.0,0.0,0.0,0.0,0.0,0.0,0.0,0.0,0.0,0.0,0.0,0.0,0.0,0.0,0.0,0.0,0.0,0.0,0.0,0.0,0.0,0.0,0.0,0.0,0.0,0.0,0.0,0.0,0.0,0.0,0.0,0.0,0.0,0.0,0.0,0.0,0.0,0.0,0.0,0.0,0.0,0.0,0.0,0.0,0.0,0.0,0.0,0.0,0.0,0.0,0.0,0.0,0.0,0.0,0.0,0.0,0.0,0.0,0.0,0.0,0.0,0.0,0.0,0.0,0.0,0.0,0.0,0.0,0.0,0.0,0.0,0.0,0.0,0.0,0.0,0.0,0.0,0.0,0.0,0.0,0.0,0.0,0.0,0.0,0.0,0.0,0.0,0.0,0.0,0.0,0.0,0.0,0.0,0.0,0.0,0.0,0.0,0.0,1.9045,1.941,1.9424,1.9285,1.9118,1.8531,1.7876,0.0,0.0,0.0,0.0,0.0,0.0,0.0,0.0,0.0,0.0,0.0,0.0,0.0,0.0,0.0,0.0,0.0,0.0,0.0,0.0,0.0,0.0,0.0,0.0,0.0,0.0,0.0,0.0,0.0,0.0,0.0,0.0,0.0,0.0,0.0,0.0,0.0,0.0,0.0,0.0,0.0,0.0,0.0,0.0,0.0,0.0,0.0,0.0,0.0,0.0,0.0,0.0,0.0,0.0,0.0,0.0,0.0,0.0,0.0,0.0,0.0,0.0,0.0,0.0,0.0,0.0,0.0,0.0,0.0,0.0,0.0,0.0,0.0,0.0,0.0,0.0,0.0,0.0,0.0,0.0,0.0,0.0,0.0,0.0,0.0,0.0,0.0,0.0,0.0,0.0,0.0,0.0,0.0,0.0,0.0,0.0,0.0,0.0,0.0,0.0,0.0,0.0,0.0,0.0,0.0,0.0,0.0,0.0,1.9045,1.9403,1.9424,1.9424,1.941,1.8798,1.8103,0.0,0.0,0.0,0.0,0.0,0.0,0.0,0.0,0.0,0.0,0.0,0.0,0.0,0.0,0.0,0.0,0.0,0.0,0.0,0.0,0.0,0.0,0.0,0.0,0.0,0.0,0.0,0.0,0.0,0.0,0.0,0.0,0.0,0.0,0.0,0.0,0.0,0.0,0.0,0.0,0.0,0.0,0.0,0.0,0.0,0.0,0.0,0.0,0.0,0.0,0.0,0.0,0.0,0.0,0.0,0.0,0.0,0.0,0.0,0.0,0.0,0.0,0.0,0.0,0.0,0.0,0.0,0.0,0.0,0.0,0.0,0.0,0.0,0.0,0.0,0.0,0.0,0.0,0.0,0.0,0.0,0.0,0.0,0.0,0.0,0.0,0.0,0.0,0.0,0.0,0.0,0.0,0.0,0.0,0.0,0.0,0.0,0.0,0.0,0.0,0.0,0.0,0.0,0.0,0.0,0.0,0.0,0.0,1.8827,1.9403,1.9424,1.9424,1.9424,1.8804,1.829,0.0,0.0,0.0,0.0,0.0,0.0,0.0,0.0,0.0,0.0,0.0,0.0,0.0,0.0,0.0,0.0,0.0,0.0,0.0,0.0,0.0,0.0,0.0,0.0,0.0,0.0,0.0,0.0,0.0,0.0,0.0,0.0,0.0,0.0,0.0,0.0,0.0,0.0,0.0,0.0,0.0,0.0,0.0,0.0,0.0,0.0,0.0,0.0,2.8378,0.0,0.0,0.0,0.0,0.0,0.0,0.0,0.0,0.0,0.0,0.0,0.0,0.0,0.0,0.0,0.0,0.0,0.0,0.0,0.0,0.0,0.0,0.0,0.0,0.0,0.0,0.0,0.0,0.0,0.0,0.0,0.0,0.0,0.0,0.0,0.0,0.0,0.0,0.0,0.0,0.0,0.0,0.0,0.0,0.0,0.0,0.0,0.0,0.0,0.0,0.0,0.0,0.0,0.0,0.0,0.0,0.0,0.0,0.0,1.8771,1.9403,1.9424,1.9424,1.9403,1.8798,1.8343,0.0,0.0,0.0,0.0,0.0,0.0,0.0,0.0,0.0,0.0,0.0,0.0,0.0,0.0,0.0,0.0,0.0,0.0,0.0,0.0,0.0,0.0,0.0,0.0,0.0,0.0,0.0,0.0,0.0,0.0,0.0,0.0,0.0,0.0,0.0,0.0,0.0,0.0,0.0,0.0,0.0,0.0,0.0,0.0,0.0,0.0,0.0,0.0,0.0,0.0,0.0,0.0,0.0,0.0,0.0,0.0,0.0,0.0,0.0,0.0,0.0,0.0,0.0,0.0,0.0,0.0,0.0,0.0,0.0,0.0,0.0,0.0,0.0,0.0,0.0,0.0,0.0,0.0,0.0,0.0,0.0,0.0,0.0,0.0,0.0,0.0,0.0,0.0,0.0,0.0,0.0,0.0,0.0,0.0,0.0,0.0,0.0,0.0,0.0,0.0,0.0,0.0,0.0,0.0,0.0,0.0,0.0,1.8809,1.8834,1.9397,1.9424,1.9352,1.935,1.8771,1.8343,1.8016,0.0,0.0,0.0,0.0,0.0,0.0,0.0,0.0,0.0,0.0,0.0,0.0,0.0,0.0,0.0,0.0,0.0,0.0,0.0,0.0,0.0,0.0,0.0,0.0,0.0,0.0,0.0,0.0,0.0,0.0,0.0,0.0,0.0,0.0,0.0,0.0,0.0,0.0,2.6635,2.7298,0.0,0.0,0.0,0.0,0.0,0.0,0.0,0.0,2.7682,0.0,0.0,0.0,0.0,0.0,0.0,0.0,0.0,0.0,0.0,0.0,0.0,0.0,0.0,0.0,0.0,0.0,0.0,0.0,0.0,0.0,0.0,0.0,0.0,0.0,0.0,0.0,0.0,0.0,0.0,0.0,0.0,0.0,0.0,0.0,0.0,0.0,0.0,0.0,0.0,0.0,0.0,0.0,0.0,0.0,0.0,0.0,0.0,0.0,0.0,0.0,0.0,0.0,0.0,0.0,0.0,1.9263,1.8968,1.8989,1.9403,1.9424,1.9252,1.8998,1.8664,1.835,1.7975,0.0,0.0,0.0,0.0,0.0,0.0,0.0,0.0,0.0,0.0,0.0,0.0,0.0,0.0,0.0,0.0,0.0,0.0,0.0,0.0,0.0,0.0,0.0,0.0,0.0,0.0,0.0,0.0,0.0,0.0,0.0,0.0,0.0,0.0,0.0,0.0,0.0,0.0,0.0,2.7261,2.7424,0.0,0.0,0.0,0.0,0.0,0.0,0.0,0.0,2.6825,0.0,0.0,0.0,0.0,0.0,0.0,0.0,0.0,0.0,0.0,0.0,0.0,0.0,0.0,0.0,0.0,0.0,0.0,0.0,0.0,0.0,0.0,0.0,0.0,0.0,0.0,0.0,0.0,0.0,0.0,0.0,0.0,0.0,0.0,0.0,0.0,0.0,0.0,0.0,0.0,0.0,0.0,0.0,0.0,0.0,0.0,0.0,0.0,0.0,0.0,0.0,0.0,0.0,0.0,0.0,1.9276,1.9057,1.8964,1.9125,1.9285,1.9225,1.8925,1.8644,1.8357,0.0,0.0,0.0,0.0,0.0,0.0,0.0,0.0,0.0,0.0,0.0,0.0,0.0,0.0,0.0,0.0,0.0,0.0,0.0,0.0,0.0,0.0,0.0,0.0,0.0,0.0,0.0,0.0,0.0,0.0,0.0,0.0,0.0,0.0,0.0,0.0,0.0,0.0,0.0,0.0,2.7104,2.7204,2.7248,0.0,0.0,0.0,0.0,0.0,0.0,2.5441,2.5432,0.0,0.0,0.0,0.0,0.0,0.0,0.0,0.0,0.0,0.0,0.0,0.0,0.0,0.0,0.0,0.0,0.0,0.0,0.0,0.0,0.0,0.0,0.0,0.0,0.0,0.0,0.0,0.0,0.0,0.0,0.0,0.0,0.0,0.0,0.0,0.0,0.0,0.0,0.0,0.0,0.0,0.0,0.0,0.0,0.0,0.0,0.0,0.0,0.0,0.0,0.0,0.0,0.0,0.0,0.0,1.9266,1.9117,1.907,1.9081,1.9324,1.9304,1.9007,1.871,1.8394,0.0,0.0,0.0,0.0,0.0,0.0,0.0,0.0,0.0,0.0,0.0,0.0,0.0,0.0,0.0,0.0,0.0,0.0,0.0,0.0,0.0,0.0,0.0,0.0,0.0,0.0,0.0,0.0,0.0,0.0,0.0,0.0,0.0,0.0,0.0,0.0,0.0,0.0,0.0,0.0,0.0,2.6956,2.6655,2.618,0.0,0.0,0.0,0.0,2.4155,2.4097,0.0,0.0,0.0,0.0,0.0,0.0,0.0,0.0,0.0,0.0,0.0,0.0,0.0,0.0,0.0,0.0,0.0,0.0,0.0,0.0,0.0,0.0,0.0,0.0,0.0,0.0,0.0,0.0,0.0,0.0,0.0,0.0,0.0,0.0,0.0,0.0,0.0,0.0,0.0,0.0,0.0,0.0,0.0,0.0,0.0,0.0,0.0,0.0,0.0,0.0,0.0,0.0,0.0,0.0,0.0,0.0,1.9211,1.956,1.968,1.9675,1.973,1.9605,1.9361,1.9054,1.8614,0.0,0.0,0.0,0.0,0.0,0.0,0.0,0.0,0.0,0.0,0.0,0.0,0.0,0.0,0.0,0.0,0.0,0.0,0.0,0.0,0.0,0.0,0.0,0.0,0.0,0.0,0.0,0.0,0.0,0.0,0.0,0.0,0.0,0.0,0.0,0.0,0.0,0.0,0.0,0.0,0.0,2.6673,2.6624,2.5661,2.4931,0.0,0.0,2.359,2.359,2.3334,0.0,0.0,0.0,0.0,0.0,0.0,0.0,0.0,0.0,0.0,0.0,0.0,0.0,0.0,0.0,0.0,0.0,0.0,0.0,0.0,0.0,0.0,0.0,0.0,0.0,0.0,0.0,0.0,0.0,0.0,0.0,0.0,0.0,0.0,0.0,0.0,0.0,0.0,0.0,0.0,0.0,0.0,0.0,0.0,0.0,0.0,0.0,0.0,0.0,0.0,0.0,0.0,0.0,0.0,0.0,1.9917,1.9607,2.0027,2.0194,2.0055,2.0228,2.017,1.9854,1.9384,1.8823,0.0,0.0,0.0,0.0,0.0,0.0,0.0,0.0,0.0,0.0,0.0,0.0,0.0,0.0,0.0,0.0,0.0,0.0,0.0,0.0,0.0,0.0,0.0,0.0,0.0,0.0,0.0,0.0,0.0,0.0,0.0,0.0,0.0,0.0,0.0,0.0,0.0,0.0,0.0,0.0,0.0,0.0,2.5904,2.5116,0.0,0.0,0.0,2.2598,2.2227,0.0,0.0,0.0,0.0,0.0,0.0,0.0,0.0,0.0,0.0,0.0,0.0,0.0,0.0,0.0,0.0,0.0,0.0,0.0,0.0,0.0,0.0,0.0,0.0,0.0,0.0,0.0,0.0,0.0,0.0,0.0,0.0,0.0,0.0,0.0,0.0,0.0,0.0,0.0,0.0,0.0,0.0,0.0,0.0,0.0,0.0,0.0,0.0,0.0,0.0,0.0,0.0,0.0,0.0,0.0,0.0,0.0,2.0074,2.0642,2.0822,2.0674,2.0906,2.092,2.0666,1.9957,0.0,0.0,0.0,0.0,0.0,0.0,0.0,0.0,0.0,0.0,0.0,0.0,0.0,0.0,0.0,0.0,0.0,0.0,0.0,0.0,0.0,0.0,0.0,0.0,0.0,0.0,0.0,2.2128,0.0,0.0,0.0,0.0,0.0,0.0,0.0,0.0,0.0,0.0,0.0,0.0,0.0,0.0,2.6129,2.5437,2.4754,2.413,0.0,0.0,2.1891,2.1408,2.1178,2.0993,0.0,0.0,0.0,0.0,0.0,0.0,0.0,0.0,0.0,0.0,0.0,0.0,0.0,0.0,0.0,0.0,0.0,0.0,0.0,0.0,0.0,0.0,0.0,0.0,0.0,0.0,0.0,0.0,0.0,0.0,0.0,0.0,0.0,0.0,0.0,0.0,0.0,0.0,0.0,0.0,0.0,0.0,0.0,0.0,0.0,0.0,0.0,0.0,0.0,0.0,0.0,0.0,0.0,0.0,0.0,2.0581,2.1466,2.1904,2.185,2.1881,2.1881,2.1842,2.0948,2.0132,0.0,0.0,0.0,0.0,0.0,0.0,0.0,0.0,0.0,0.0,0.0,0.0,0.0,0.0,0.0,0.0,0.0,0.0,0.0,0.0,0.0,0.0,0.0,0.0,0.0,0.0,0.0,0.0,0.0,0.0,0.0,0.0,0.0,0.0,0.0,0.0,0.0,0.0,0.0,0.0,0.0,2.5748,2.5435,2.4633,2.3946,0.0,0.0,2.1975,2.1647,2.1096,2.0711,2.0697,0.0,0.0,0.0,0.0,0.0,0.0,0.0,0.0,0.0,0.0,0.0,0.0,0.0,0.0,0.0,0.0,0.0,0.0,0.0,0.0,0.0,0.0,0.0,0.0,0.0,0.0,0.0,0.0,0.0,0.0,0.0,0.0,0.0,0.0,0.0,0.0,0.0,0.0,0.0,0.0,0.0,0.0,0.0,0.0,0.0,0.0,0.0,0.0,0.0,0.0,0.0,0.0,0.0,2.1739,2.1383,2.2484,2.302,2.3036,2.3307,2.3323,2.3028,2.2267,2.1357,0.0,0.0,0.0,0.0,0.0,0.0,0.0,0.0,0.0,0.0,0.0,0.0,0.0,0.0,0.0,0.0,0.0,0.0,0.0,0.0,0.0,0.0,0.0,0.0,0.0,0.0,0.0,0.0,2.3384,2.3806,2.4395,0.0,0.0,0.0,0.0,0.0,0.0,0.0,0.0,0.0,0.0,2.5913,2.5468,2.4757,0.0,0.0,2.263,2.1866,2.1122,2.0849,2.057,2.0203,2.0223,0.0,0.0,0.0,0.0,0.0,0.0,0.0,0.0,0.0,0.0,0.0,0.0,0.0,0.0,0.0,0.0,0.0,0.0,0.0,0.0,0.0,0.0,0.0,0.0,0.0,0.0,0.0,0.0,0.0,0.0,0.0,0.0,0.0,0.0,0.0,0.0,0.0,0.0,0.0,0.0,0.0,0.0,0.0,0.0,0.0,0.0,0.0,0.0,0.0,0.0,0.0,0.0,2.2584,2.2271,2.3498,2.4193,2.4193,2.4578,2.4596,2.4202,2.3488,2.2553,0.0,0.0,0.0,0.0,0.0,0.0,0.0,0.0,0.0,0.0,0.0,0.0,0.0,0.0,0.0,0.0,0.0,0.0,0.0,0.0,0.0,0.0,0.0,0.0,0.0,0.0,0.0,0.0,2.3938,2.445,2.5057,0.0,0.0,0.0,0.0,0.0,0.0,0.0,0.0,0.0,0.0,2.625,2.5687,2.4979,2.42,2.3263,2.255,2.179,2.096,2.0735,2.0541,2.0127,0.0,0.0,0.0,0.0,0.0,0.0,0.0,0.0,0.0,0.0,0.0,0.0,0.0,0.0,0.0,0.0,0.0,0.0,0.0,0.0,0.0,0.0,0.0,0.0,0.0,0.0,0.0,2.8134,0.0,0.0,2.8147,0.0,0.0,0.0,0.0,0.0,0.0,0.0,0.0,0.0,0.0,0.0,0.0,0.0,0.0,0.0,0.0,0.0,0.0,0.0,0.0,0.0,0.0,2.3252,2.327,2.4578,2.5249,2.5258,2.5748,2.5722,2.5258,2.4436,2.3592,2.2735,0.0,0.0,0.0,0.0,0.0,0.0,0.0,0.0,0.0,0.0,0.0,0.0,0.0,0.0,0.0,0.0,0.0,0.0,0.0,0.0,0.0,0.0,0.0,0.0,0.0,0.0,2.3799,2.4578,2.5096,0.0,0.0,0.0,0.0,0.0,0.0,0.0,0.0,0.0,0.0,2.7142,2.6618,2.605,2.5214,2.4278,2.323,2.2543,2.1859,2.1215,2.0862,2.0668,0.0,0.0,0.0,0.0,0.0,0.0,0.0,0.0,0.0,0.0,0.0,0.0,0.0,0.0,0.0,0.0,0.0,0.0,0.0,0.0,0.0,0.0,0.0,0.0,0.0,0.0,0.0,3.0093,2.9779,0.0,0.0,0.0,0.0,0.0,0.0,0.0,0.0,0.0,0.0,0.0,3.017,2.9598,0.0,0.0,0.0,0.0,0.0,0.0,0.0,0.0,0.0,0.0,0.0,0.0,2.3805,2.4003,2.522,2.5914,2.5933,2.6599,2.6617,2.5933,2.5619,2.4802,2.3446,0.0,0.0,0.0,0.0,0.0,0.0,0.0,0.0,0.0,0.0,0.0,0.0,0.0,0.0,0.0,0.0,0.0,0.0,0.0,0.0,0.0,0.0,0.0,0.0,0.0,2.4014,0.0,0.0,0.0,0.0,0.0,0.0,0.0,0.0,0.0,0.0,0.0,2.8169,2.7908,2.786,2.7459,2.6397,2.5707,2.4841,0.0,0.0,0.0,0.0,0.0,0.0,0.0,0.0,0.0,0.0,0.0,0.0,0.0,0.0,2.0552,2.0706,2.0323,1.9829,1.957,0.0,0.0,0.0,0.0,0.0,0.0,0.0,0.0,0.0,0.0,0.0,0.0,0.0,0.0,3.1198,0.0,3.0884,0.0,0.0,0.0,0.0,0.0,0.0,0.0,0.0,3.167,3.1674,3.1528,3.1269,3.1049,0.0,2.9839,2.8622,0.0,0.0,0.0,0.0,0.0,0.0,0.0,0.0,2.4551,2.4641,2.5848,2.649,2.6519,2.7314,2.7352,2.6519,2.6101,2.5267,2.3947,2.34,2.2953,0.0,0.0,0.0,0.0,0.0,0.0,0.0,0.0,0.0,0.0,0.0,0.0,0.0,0.0,0.0,0.0,0.0,0.0,0.0,0.0,0.0,0.0,0.0,2.466,0.0,0.0,0.0,0.0,0.0,0.0,0.0,0.0,0.0,2.8086,2.8431,2.8612,2.8612,2.8556,2.8133,2.7129,0.0,0.0,0.0,0.0,0.0,0.0,0.0,2.1168,2.0855,2.0828,2.0762,2.0568,2.0541,2.0535,2.0535,0.0,0.0,2.0532,2.022,1.9887,1.9727,1.9425,1.9158,1.9001,1.8871,1.8798,0.0,0.0,0.0,0.0,0.0,0.0,0.0,0.0,3.1474,3.1474,0.0,3.1424,0.0,0.0,0.0,0.0,0.0,3.2026,0.0,0.0,3.3121,3.3543,3.3536,3.36,3.3548,3.3246,3.2305,3.1226,3.0011,2.7951,0.0,0.0,0.0,0.0,0.0,0.0,2.5372,2.5204,2.6427,2.7021,2.707,2.7861,2.7881,2.7041,2.5953,2.5072,2.4383,2.4191,2.3999,2.3834,2.3268,0.0,0.0,0.0,0.0,0.0,0.0,0.0,0.0,0.0,0.0,0.0,0.0,0.0,0.0,0.0,0.0,0.0,0.0,0.0,0.0,2.5027,0.0,0.0,0.0,0.0,0.0,0.0,0.0,0.0,0.0,0.0,2.8877,2.8945,2.9147,2.9699,0.0,0.0,0.0,0.0,2.5639,2.4355,2.3542,2.2793,2.1796,2.167,2.1488,2.1166,0.0,0.0,2.1102,2.1102,2.1089,2.1102,2.0869,2.0601,2.0314,2.0221,2.0194,2.0187,1.996,1.9813,1.9773,1.9519,1.9345,3.4375,0.0,0.0,0.0,0.0,3.283,3.2968,3.3144,3.2767,3.2591,3.2608,3.2164,0.0,0.0,0.0,0.0,0.0,0.0,3.3407,3.3458,3.4059,3.434,3.4352,3.4243,3.4148,3.4044,3.346,3.2785,3.2042,3.1298,2.9498,2.6704,0.0,0.0,0.0,0.0,2.6002,2.6583,2.7272,2.767,2.7772,2.8272,2.8144,2.7317,2.6655,2.6015,2.5391,2.5327,2.4957,2.4322,2.4141,0.0,0.0,0.0,0.0,0.0,0.0,0.0,0.0,0.0,0.0,0.0,0.0,0.0,0.0,0.0,0.0,0.0,0.0,0.0,2.5251,2.6159,2.6643,0.0,0.0,0.0,0.0,0.0,0.0,0.0,0.0,0.0,2.9326,2.9375,2.9478,0.0,0.0,2.931,2.8462,2.7452,2.6355,2.5333,2.4224,0.0,2.2738,2.223,2.1922,2.1859,2.1607,2.1481,2.1481,2.1235,2.1102,2.1102,2.1042,2.0955,2.0862,2.0508,2.02,2.0167,2.01,2.004,1.9846,1.9726,1.9613,3.5437,3.4812,3.4255,3.4071,3.4027,3.4027,3.423,3.4508,3.4179,3.4027,3.4058,3.366,3.3161,3.2517,3.2432,0.0,0.0,0.0,3.4223,3.4248,3.4756,3.5006,3.5019,3.514,3.516,3.5021,3.4555,3.4015,3.3537,3.3076,3.1646,2.9262,0.0,0.0,2.7757,2.7328,2.7268,2.7621,2.8056,2.8258,2.8261,2.8488,2.8289,2.7571,2.7123,2.6662,2.6256,2.6054,2.5721,2.52,2.504,2.4664,0.0,0.0,0.0,0.0,0.0,0.0,0.0,0.0,0.0,0.0,0.0,2.3911,2.4213,0.0,0.0,0.0,2.5153,2.562,2.6275,2.7033,0.0,0.0,0.0,0.0,0.0,0.0,0.0,2.8516,2.8916,2.9336,2.9756,2.9824,2.9933,3.0199,3.0179,2.9795,2.8948,0.0,2.709,2.6136,2.4964,2.4046,2.3549,2.2926,2.2425,2.2104,2.1915,2.1796,2.1796,2.1488,2.1299,2.1299,2.1172,2.1102,2.1102,2.0815,2.0581,2.0575,2.0488,2.0347,2.0174,2.006,1.9887,3.6476,3.6437,3.5955,3.564,3.5474,3.5474,3.55,3.5538,3.55,3.55,3.5538,3.5544,3.5104,3.4381,3.4136,0.0,3.4073,3.4582,3.4788,3.4813,3.5353,3.5558,3.5596,3.6119,3.6275,3.5978,3.5516,3.5034,3.4586,3.389,3.3287,3.2783,3.1536,3.0475,2.9648,2.9353,2.8977,2.8469,2.8819,2.889,2.8642,2.859,2.8358,2.7875,2.7531,2.7224,2.6965,2.6593,2.6346,2.6264,2.5944,2.5612,2.5232,0.0,0.0,0.0,0.0,0.0,0.0,0.0,0.0,0.0,0.0,0.0,0.0,0.0,0.0,0.0,2.6392,0.0,2.7386,2.7821,0.0,0.0,0.0,2.8227,2.8257,2.8652,2.8935,2.8965,0.0,0.0,3.0146,3.0234,3.041,3.083,3.0635,3.0206,2.9549,2.8668,2.7771,2.6874,2.5831,2.4988,2.4293,2.3611,2.2981,2.2425,2.2174,2.2174,2.2111,2.1859,2.167,2.1607,2.1362,2.1109,2.1102,2.1082,2.1102,2.1076,2.0882,2.0702,2.0635,2.0434,2.0187,3.8073,3.806,3.7915,3.6946,3.5487,3.5474,3.5718,3.6064,3.5654,3.5718,3.609,3.5667,3.5397,3.5193,3.5149,3.5105,3.513,3.5453,3.5603,3.5641,3.5999,3.6157,3.6169,3.6355,3.637,3.631,3.6185,3.5934,3.5662,3.5443,3.5085,3.4559,3.3859,3.2526,3.0696,3.0431,3.0215,2.9984,3.0091,2.9979,2.9662,2.9191,2.8764,2.8438,2.8304,2.8128,2.7747,2.7646,2.7418,2.7056,2.6963,2.6538,2.5775,2.5434,0.0,0.0,0.0,0.0,0.0,0.0,0.0,0.0,0.0,2.5923,2.648,0.0,2.6636,0.0,2.7974,2.87,2.92,2.9611,0.0,0.0,2.9291,2.9491,2.94,2.9307,2.9401,2.9727,2.9907,3.0088,3.0176,3.0508,3.0762,3.0879,3.0626,3.0323,3.0147,2.9381,2.8498,2.7719,2.6874,2.59,2.5042,2.4293,2.3736,2.3293,2.3043,2.2793,2.2543,2.2167,2.1922,2.167,2.1544,2.1425,2.1166,2.1102,2.1102,2.1102,2.1049,2.0935,2.0728,2.0615,2.0481,3.8904,3.8904,3.8904,3.8247,3.7161,3.6996,3.7045,3.7306,3.6992,3.7045,3.7293,3.6642,3.6293,3.6172,3.6096,3.5994,3.5885,3.6241,3.645,3.6416,3.6489,3.6546,3.6534,3.6452,3.6417,3.6417,3.6417,3.6323,3.6193,3.6063,3.586,3.5572,3.5126,3.4233,3.2905,3.2153,3.1649,3.1366,3.0961,3.0705,3.0547,3.0099,2.9601,2.8948,2.9055,2.8907,2.8358,2.8466,2.8343,2.7978,2.798,2.7653,2.6922,2.6843,2.6738,0.0,0.0,0.0,0.0,0.0,0.0,0.0,0.0,0.0,0.0,0.0,2.8472,2.9165,2.9657,3.0125,3.051,3.0595,3.0543,3.0197,3.0224,3.0292,3.0217,3.0168,3.0213,3.0452,3.0633,3.0671,3.0671,3.0829,3.0898,3.0898,3.0752,3.0577,3.0323,2.9677,2.9025,2.8498,2.765,2.6684,2.5717,2.498,2.4425,2.4108,2.3798,2.3417,2.3106,2.2793,2.2418,2.2111,2.1922,2.174,2.1362,2.1292,2.1299,2.1109,2.1102,2.1049,2.0902,2.0869,2.0782,3.9462,3.938,3.938,3.938,3.9336,3.8962,3.8724,3.8692,3.8679,3.8679,3.8607,3.7909,3.7461,3.7206,3.7026,3.6813,3.6644,3.7016,3.7201,3.7188,3.6909,3.6756,3.6769,3.6546,3.6499,3.6499,3.6452,3.6465,3.6405,3.6193,3.6063,3.6051,3.5752,3.5512,3.5271,3.4089,3.3185,3.2561,3.1772,3.1322,3.127,3.1034,3.0483,2.9614,2.9796,2.9633,2.8998,2.9128,2.9158,2.8993,2.8959,2.879,2.8339,2.8457,2.8585,0.0,2.8798,0.0,0.0,0.0,0.0,0.0,0.0,0.0,0.0,2.975,3.0326,3.1264,3.1247,3.1353,3.1577,3.1335,3.1243,3.1365,3.1116,3.0933,3.0971,3.1105,3.1247,3.1307,3.1317,3.1383,3.1315,3.1112,3.0947,3.0947,3.0947,3.0762,3.0509,2.9962,2.9431,2.9094,2.8191,2.7099,2.638,2.5717,2.5165,2.4795,2.4425,2.4115,2.3798,2.3425,2.3043,2.2738,2.2362,2.2048,2.1734,2.1607,2.1481,2.1229,2.1166,2.1102,2.1089,2.1082,2.1022,4.0319,3.9865,3.9865,3.9865,3.9865,3.9777,3.9526,3.9172,3.9185,3.9069,3.8863,3.8711,3.8492,3.8294,3.8249,3.8204,3.8172,3.7841,3.7769,3.7723,3.7235,3.7015,3.7015,3.7015,3.6968,3.6968,3.6734,3.6615,3.6615,3.6452,3.6323,3.631,3.6051,3.592,3.5812,0.0,0.0,0.0,3.2572,3.2066,3.1823,3.1578,3.112,3.0438,3.0566,0.0,2.9759,2.9852,2.9988,2.9954,2.9942,0.0,0.0,0.0,0.0,0.0,0.0,0.0,0.0,0.0,0.0,0.0,3.1737,3.1606,3.1031,3.1414,3.1946,3.2512,3.2534,3.2693,3.3089,3.2959,3.2712,3.2465,3.2213,3.2201,3.2431,3.2076,3.1968,3.2349,3.2015,3.173,3.1672,3.145,3.1218,3.1218,3.1054,3.0889,3.083,3.045,2.9962,2.9372,2.8361,2.7401,2.7012,2.6579,2.6031,2.5533,2.5111,2.4795,2.4425,2.3922,2.3417,2.305,2.2731,2.2425,2.2111,2.1803,2.1607,2.1544,2.1299,2.1102,2.1102,2.1102,2.1096,4.1404,0.0,4.0814,4.0702,0.0,4.0702,4.0573,4.0314,3.9821,3.9557,3.9455,3.9455,3.9309,3.91,3.8993,3.8859,3.8756,3.8395,3.8226,3.8226,3.771,3.7479,3.7479,3.7201,3.7108,3.7108,3.6968,3.6909,3.6909,3.6781,3.6734,3.6734,3.6452,3.6358,3.631,3.6003,3.5284,3.4188,3.3534,3.3074,3.2773,3.2544,3.2084,3.1563,3.1595,0.0,0.0,0.0,0.0,0.0,0.0,0.0,0.0,0.0,0.0,3.0726,3.0941,3.1234,3.1619,3.1867,3.2333,3.2979,3.3472,3.3606,3.3109,3.3301,3.3672,3.4174,3.398,3.4048,3.4506,3.4128,3.3832,3.3734,3.3618,3.3504,3.3333,3.317,3.3068,3.3042,3.2638,3.2238,3.2238,3.1845,3.1498,3.1325,3.117,3.1054,3.0889,3.0635,3.0206,2.9549,2.8838,2.814,2.7788,2.7254,2.677,2.6336,2.5908,2.541,2.4919,2.4548,2.417,2.3736,2.33,2.2981,2.2675,2.2362,2.2048,2.1859,2.1544,2.1362,2.1355,2.1235,2.1102,4.2496,4.2281,4.1753,4.1481,4.141,4.141,4.141,4.1354,0.0,0.0,0.0,4.017,4.0012,3.9736,3.9543,3.9322,3.9087,3.8904,3.8769,3.8692,3.8258,3.8076,3.7998,3.7572,3.7341,3.7341,3.7294,3.7261,3.7248,3.7155,3.7108,3.7062,3.6862,3.6769,3.6722,3.6323,3.58,3.5114,3.4531,3.4089,3.3843,3.3595,3.3253,3.2792,3.2782,3.2546,3.205,3.2076,3.2026,3.1791,3.1687,3.1627,3.166,3.1765,3.1962,3.2267,3.2467,3.2857,3.3432,3.3469,3.3691,3.4197,3.4777,3.5001,3.4821,3.4895,3.5141,3.5584,3.5175,3.5137,3.5606,3.5067,3.4757,3.5017,3.496,3.4629,3.4251,3.4106,3.4009,3.3738,3.3218,3.281,3.2763,3.2305,3.1845,3.1556,3.145,3.1276,3.1005,3.0635,3.0265,2.9795,2.9322,2.8925,2.8576,2.7917,2.7375,2.7254,2.6692,2.6075,2.5594,2.5226,2.4919,2.4355,2.3984,2.3611,2.323,2.2918,2.2606,2.2237,2.1922,2.167,2.167,2.1425,2.1172,4.3311,4.231,4.2224,4.1853,4.141,4.141,4.141,4.1396,4.1269,4.1071,4.0873,4.0873,4.0603,4.0215,4.0172,4.0055,3.9807,3.9587,3.9353,3.9216,3.8877,3.8666,3.8512,3.8421,3.8362,3.8376,3.7985,3.7815,3.7769,3.7341,3.7108,3.7108,3.7062,3.7062,3.7015,3.6781,3.6439,3.6168,3.5391,3.4932,3.4628,3.458,3.4329,3.3911,3.4005,3.3903,3.3429,3.3594,3.3694,3.3579,3.3187,3.2942,3.293,3.2526,3.2584,3.3237,3.3318,3.3655,3.4427,3.4465,3.4702,3.524,3.5837,3.5774,3.4918,3.5227,3.5547,3.5572,3.5537,3.5588,3.5891,3.5653,3.5658,3.5992,3.5686,3.5412,3.5461,3.4891,3.4468,3.4356,3.384,3.3399,3.3182,3.282,3.2467,3.219,3.1845,3.1624,3.1276,3.0743,3.0392,3.0206,2.9795,2.9331,2.8984,2.8636,2.8157,2.7908,2.7366,2.6891,2.6709,2.5908,2.5234,2.498,2.4487,2.3991,2.3611,2.3238,2.2981,2.2606,2.2299,2.2048,2.2048,2.1796,2.1425,4.4429,4.3556,4.3193,4.2698,4.209,4.209,4.2131,4.209,4.2131,4.1785,4.1255,4.1198,4.1114,4.0887,4.0745,4.0574,4.0343,4.0099,3.9881,3.9689,3.9411,3.922,3.9087,3.889,3.8756,3.8756,3.8453,3.8272,3.8272,3.8044,3.7848,3.7697,3.7433,3.7261,3.7108,3.6956,3.6875,3.6794,3.6038,3.5512,3.5223,3.5223,3.5101,3.4906,3.4875,3.4745,3.4533,3.4421,3.4305,3.4214,3.4004,3.3868,3.3868,3.3588,3.3697,3.41,3.4157,3.444,3.5094,3.5441,3.5717,3.5968,3.6267,3.6223,3.5737,3.5901,3.6038,3.6063,3.6143,3.6406,3.68,3.6769,3.6835,3.7173,3.6844,3.651,3.61,3.5774,3.5345,3.5024,3.4468,3.4019,3.3918,3.3501,3.298,3.2581,3.2133,3.173,3.1556,3.1208,3.0743,3.0441,3.0147,2.9853,2.9509,2.9112,2.8746,2.8567,2.802,2.7496,2.7194,2.6466,2.6092,2.5656,2.5103,2.4672,2.4425,2.3984,2.3549,2.3238,2.2863,2.2613,2.2418,2.2104,2.1734,4.5415,4.4781,4.4175,4.341,4.2703,4.2688,4.2688,4.2688,4.2688,4.2336,4.1717,4.1647,4.1606,4.1507,4.1269,4.1057,4.0873,4.0617,4.0445,4.0199,3.9968,3.9823,3.9736,3.9353,3.9131,3.9131,3.8935,3.8814,3.8724,3.8679,3.8544,3.8258,3.7907,3.7631,3.7341,3.7294,3.7261,3.7168,3.6559,3.6133,3.5943,3.5943,3.5943,3.5918,3.5734,3.5649,3.5624,3.5374,3.5135,3.4907,3.4807,3.4744,3.4641,3.4529,3.462,3.4843,3.4868,3.5107,3.5633,3.6119,3.6417,3.6417,3.6417,3.6417,3.6417,3.6417,3.6417,3.642,3.6655,3.7058,3.7444,3.7685,3.7877,3.806,3.7838,3.74,3.6712,3.644,3.6157,3.5632,3.508,3.4635,3.4468,3.4076,3.3558,3.2934,3.2363,3.2018,3.1903,3.1614,3.1208,3.0791,3.0499,3.0265,3.0039,2.9577,2.9222,2.9103,2.8618,2.8089,2.7608,2.7315,2.6943,2.6327,2.577,2.5288,2.5103,2.4672,2.417,2.3798,2.3487,2.3175,2.2793,2.2418,2.1978,4.6093,4.5445,4.4824,4.3808,4.2802,4.2703,4.2729,4.2688,4.2688,4.2648,4.2541,4.2392,4.2172,4.191,4.1744,4.1535,4.1354,4.1311,4.1156,4.0873,4.0674,4.0459,4.0272,4.0025,3.9908,3.9865,3.9631,3.9411,3.9216,3.9011,3.8787,3.8602,3.8512,3.8362,3.8122,3.7907,3.7723,3.7459,3.7155,3.6968,3.6956,3.6968,3.6968,3.6968,3.693,3.6938,3.6866,3.6887,3.6756,3.6485,3.6029,3.5638,3.537,3.4969,3.4919,3.5382,3.542,3.5705,3.6267,3.638,3.6417,3.6417,3.6417,3.6417,3.6417,3.6417,3.6417,3.6505,3.686,3.7304,3.7581,3.8014,3.8366,3.8376,3.8145,3.7838,3.7423,3.6777,3.6277,3.6211,3.5676,3.5146,3.4747,3.4468,3.4086,3.3353,3.2877,3.2524,3.2315,3.2018,3.1672,3.1257,3.0791,3.0441,3.0333,3.0039,2.9745,2.9509,2.9153,2.8737,2.8268,2.7677,2.7073,2.7004,2.6449,2.5892,2.541,2.498,2.4787,2.4301,2.3984,2.3798,2.323,2.2793,2.2362,4.6603,4.5979,4.5711,4.4834,4.3675,4.3214,4.305,4.305,4.305,4.305,4.3025,4.285,4.2607,4.2418,4.2322,4.2117,4.1773,4.1773,4.1591,4.1255,4.1114,4.1029,4.0944,4.0716,4.0545,4.0386,4.0142,3.9938,3.9689,3.9441,3.9234,3.8993,3.8845,3.8666,3.8453,3.8362,3.8239,3.8148,3.8057,3.7998,3.7907,3.7387,3.7108,3.7108,3.7108,3.7108,3.7108,3.7108,3.7062,3.6956,3.6739,3.6577,3.6438,3.6235,3.621,3.6426,3.6311,3.626,3.6392,3.6417,3.6417,3.6417,3.6417,3.6417,3.6417,3.6417,3.6417,3.6505,3.7209,3.774,3.7867,3.849,3.8906,3.8844,3.8514,3.8145,3.7826,3.737,3.6993,3.6766,3.6266,3.5852,3.5522,3.4958,3.4412,3.3963,3.3558,3.3161,3.2841,3.2534,3.2238,3.1903,3.1498,3.1092,3.0752,3.0392,3.0157,2.9981,2.9627,2.9213,2.8806,2.8397,2.7857,2.7668,2.7116,2.6631,2.6405,2.5839,2.5464,2.4911,2.4293,2.3984,2.3736,2.3425,2.2981,4.7111,4.6634,4.6396,4.5559,4.4302,4.3808,4.3454,4.3305,4.3305,4.3305,4.329,4.3155,4.2996,4.285,4.2769,4.2485,4.224,4.2199,4.2034,4.1758,4.1647,4.1549,4.1549,4.1241,4.1015,4.0859,4.0702,4.0459,4.0213,3.9924,3.9706,3.9469,3.9322,3.9114,3.8904,3.889,3.88,3.8666,3.8679,3.8634,3.8512,3.7907,3.7539,3.7492,3.7433,3.7387,3.7387,3.7353,3.7261,3.7214,3.7201,3.7168,3.7108,3.7108,3.7108,3.7108,3.6922,3.6734,3.6606,3.6593,3.6546,3.6487,3.6499,3.6439,3.6405,3.6417,3.6417,3.648,3.7362,3.799,3.8053,3.8867,3.9337,3.9258,3.8893,3.8514,3.8145,3.7904,3.7584,3.7251,3.6808,3.6429,3.6211,3.5389,3.4691,3.4468,3.4076,3.3681,3.3353,3.3115,3.282,3.2467,3.218,3.173,3.116,3.0859,3.0616,3.0323,2.9981,2.9686,2.9281,2.8925,2.8636,2.8268,2.7728,2.7306,2.6995,2.6623,2.6136,2.5533,2.4919,2.4479,2.4363,2.4046,2.3673,4.7566,4.7402,4.6661,4.5559,4.4317,4.4257,4.3898,4.3344,4.3305,4.329,4.3305,4.329,4.3305,4.321,4.2905,4.2703,4.2648,4.2648,4.2607,4.2526,4.2158,4.1966,4.1951,4.1606,4.1396,4.1354,4.1339,4.1086,4.0645,4.0402,4.0185,3.9996,3.9952,3.9807,3.9574,3.9516,3.9339,3.9011,3.8966,3.8832,3.8647,3.8602,3.8557,3.8498,3.8258,3.8109,3.8122,3.7965,3.7749,3.7505,3.7505,3.7413,3.7155,3.7108,3.7155,3.7108,3.7108,3.7062,3.7062,3.7015,3.6922,3.6722,3.6675,3.6628,3.6499,3.6465,3.6452,3.6405,3.7362,3.8002,3.8103,3.8968,3.9517,3.9374,3.927,3.8945,3.8473,3.8198,3.7892,3.7637,3.7251,3.6862,3.6386,3.5797,3.5191,3.4802,3.4524,3.4244,3.3794,3.3568,3.3332,3.2924,3.2638,3.2352,3.1498,3.1208,3.0976,3.0684,3.045,3.0216,2.9804,2.9459,2.9163,2.8865,2.8319,2.79,2.759,2.7168,2.6744,2.6144,2.5594,2.5226,2.5103,2.4479,2.417,4.7852,4.7776,4.7042,4.6226,4.5394,4.4956,4.4318,4.3572,4.3557,4.3463,4.3329,4.3305,4.3305,4.3305,4.317,4.301,4.29,4.2875,4.2795,4.2688,4.2541,4.2444,4.2459,4.2281,4.2049,4.1841,4.1758,4.1564,4.117,4.1043,4.0887,4.0659,4.0516,4.0329,4.0085,3.9938,3.9763,3.9645,3.9587,3.9543,3.9513,3.9469,3.9513,3.9482,3.88,3.8453,3.8453,3.8376,3.8298,3.8194,3.8194,3.8194,3.8044,3.7893,3.7756,3.7618,3.7446,3.7261,3.7108,3.7108,3.7062,3.6968,3.6956,3.6922,3.6828,3.6687,3.6581,3.677,3.7459,3.7965,3.8203,3.9019,3.9645,3.9581,3.9413,3.9206,3.8998,3.8684,3.8421,3.8104,3.7732,3.7262,3.6808,3.632,3.5895,3.5676,3.529,3.4858,3.4356,3.4177,3.3952,3.3445,3.3105,3.282,3.2342,3.1845,3.1441,3.115,3.085,3.0558,3.0206,2.9863,2.9577,2.9459,2.8975,2.8618,2.825,2.7711,2.7289,2.6874,2.6266,2.5953,2.5778,2.5218,2.4919,4.8049,4.7946,4.7536,4.6943,4.629,4.5637,4.4849,4.4125,4.3883,4.3675,4.3527,4.3527,4.3542,4.3527,4.3542,4.3448,4.3314,4.3155,4.305,4.289,4.2809,4.2809,4.2769,4.2729,4.2526,4.2281,4.2199,4.2007,4.1633,4.1591,4.1423,4.11,4.0986,4.083,4.0674,4.0516,4.043,4.0329,4.0343,4.0286,4.0257,4.0126,4.0112,3.9982,3.9438,3.8993,3.8948,3.8872,3.8814,3.8827,3.8769,3.8679,3.8602,3.8453,3.8272,3.8135,3.7952,3.7782,3.7631,3.7526,3.7433,3.7341,3.7248,3.7214,3.7121,3.6909,3.6939,3.7235,3.78,3.8299,3.8566,3.9285,3.9775,3.9697,3.953,3.9374,3.931,3.9102,3.8841,3.8514,3.8051,3.7625,3.7358,3.6862,3.6538,3.6429,3.6016,3.5455,3.5069,3.4791,3.4579,3.4019,3.3749,3.3455,3.3048,3.2602,3.2018,3.1614,3.1199,3.0966,3.0675,3.0333,3.0098,2.9981,2.9745,2.9331,2.8856,2.831,2.784,2.7487,2.7056,2.6675,2.638,2.6022,2.5717,4.8218,4.8091,4.7992,4.765,4.7006,4.6356,4.5637,4.4923,4.4345,4.4063,4.391,4.3949,4.391,4.3949,4.391,4.3949,4.3856,4.3503,4.3329,4.3265,4.309,4.2981,4.2981,4.285,4.2729,4.2662,4.2648,4.2444,4.2049,4.2007,4.1841,4.1507,4.1438,4.1396,4.1381,4.1297,4.1213,4.1015,4.093,4.0887,4.0688,4.0502,4.0402,4.0358,4.0112,3.9895,3.9648,3.9424,3.9305,3.9305,3.91,3.8832,3.8724,3.8679,3.8661,3.8634,3.8602,3.8557,3.8512,3.8258,3.8031,3.7893,3.769,3.7492,3.7294,3.7214,3.7373,3.7864,3.8367,3.8894,3.922,3.9728,3.9981,3.9749,3.9645,3.9581,3.9426,3.9322,3.9166,3.8841,3.8356,3.8039,3.788,3.7507,3.7078,3.6766,3.6495,3.6157,3.5817,3.5554,3.5124,3.468,3.4412,3.4132,3.3749,3.3353,3.2716,3.2133,3.1672,3.1325,3.1141,3.0859,3.0626,3.0441,3.0098,2.9745,2.934,2.8797,2.843,2.808,2.7762,2.7401,2.7047,2.6692,2.6449,4.8949,4.8908,4.8893,4.8521,4.7908,4.754,4.6656,4.5439,4.5046,4.4569,4.4087,4.4003,4.4003,4.4003,4.4003,4.4026,4.3988,4.3832,4.3714,4.3557,4.3344,4.3195,4.321,4.313,4.305,4.2915,4.2769,4.2648,4.2485,4.2485,4.2418,4.2295,4.1966,4.1841,4.18,4.1564,4.1339,4.1283,4.1297,4.1255,4.117,4.1128,4.1086,4.1043,4.1001,4.0901,4.0816,4.017,3.9791,3.9777,3.9689,3.9631,3.9557,3.9367,3.9264,3.9264,3.8966,3.8787,3.8787,3.8621,3.8466,3.8376,3.8298,3.8135,3.7893,3.7723,3.787,3.8273,3.8611,3.8981,3.9507,4.007,4.0173,3.9736,3.9697,3.9685,3.9594,3.9426,3.9258,3.9154,3.8776,3.8514,3.8303,3.7933,3.7625,3.737,3.7036,3.6754,3.6483,3.6211,3.5884,3.5488,3.5168,3.4747,3.4356,3.3974,3.3455,3.282,3.2305,3.1845,3.1604,3.1325,3.1082,3.0791,3.045,3.0098,2.9695,2.934,2.8975,2.8737,2.8439,2.808,2.7779,2.7478,2.7116,4.9477,4.9437,4.9396,4.9122,4.8636,4.8258,4.7548,4.6562,4.5904,4.5303,4.4857,4.4542,4.4435,4.445,4.445,4.4412,4.432,4.4258,4.4089,4.3895,4.366,4.3581,4.3542,4.3463,4.3384,4.325,4.305,4.289,4.2809,4.2795,4.2769,4.2648,4.2404,4.224,4.224,4.1993,4.1883,4.1883,4.1814,4.1773,4.1731,4.1591,4.1507,4.1507,4.1423,4.141,4.1368,4.083,4.0516,4.0473,4.043,4.0286,4.0112,3.9954,3.9823,3.9706,3.9486,3.9322,3.9264,3.9145,3.8935,3.8859,3.8769,3.8575,3.8434,3.8358,3.8668,3.9045,3.9429,3.9731,4.0264,4.0462,4.044,4.0044,3.9942,3.9839,3.9697,3.9542,3.9478,3.9362,3.9154,3.8958,3.8736,3.8461,3.821,3.7904,3.7625,3.7346,3.7078,3.6754,3.6429,3.6091,3.5774,3.5345,3.4913,3.4524,3.4188,3.3625,3.3048,3.2524,3.218,3.172,3.1383,3.1034,3.0743,3.0392,2.9981,2.9745,2.945,2.9272,2.9035,2.8806,2.8439,2.8148,2.7779,4.9836,4.9677,4.9637,4.9582,4.9327,4.8755,4.8427,4.8067,4.6967,4.6351,4.6102,4.5637,4.5316,4.5276,4.5226,4.5104,4.4889,4.4685,4.4534,4.4358,4.4181,4.4065,4.3949,4.3754,4.3675,4.3636,4.3463,4.325,4.309,4.3076,4.2955,4.2809,4.2729,4.2688,4.2648,4.2688,4.2607,4.2526,4.2418,4.2392,4.2351,4.1993,4.1771,4.1771,4.1675,4.1606,4.1606,4.1507,4.1423,4.1354,4.1071,4.0788,4.0474,4.0345,4.0315,4.017,4.0083,4.0039,3.9996,3.9763,3.953,3.9336,3.9145,3.8917,3.893,3.9226,3.9687,4.0213,4.0517,4.0877,4.1138,4.1134,4.0846,4.0555,4.03,4.0032,3.9788,3.9736,3.9685,3.9633,3.9478,3.9322,3.9218,3.8945,3.8736,3.8421,3.8145,3.7933,3.7667,3.7358,3.6928,3.6657,3.6386,3.595,3.5566,3.529,3.4958,3.4412,3.3794,3.3218,3.2638,3.2123,3.173,3.1383,3.1034,3.0684,3.0392,3.0157,2.9981,2.9804,2.9627,2.939,2.9103,2.8797,2.8498,5.0379,5.034,5.034,5.0301,5.0191,4.9851,4.9409,4.8911,4.8278,4.7666,4.7267,4.6887,4.6412,4.5968,4.5975,4.565,4.527,4.5123,4.5017,4.498,4.4905,4.4511,4.4104,4.3949,4.391,4.391,4.3832,4.3714,4.3518,4.3503,4.3384,4.313,4.301,4.29,4.2915,4.2809,4.2688,4.2688,4.2648,4.2622,4.2622,4.2485,4.243,4.2444,4.2363,4.2322,4.2377,4.2363,4.1993,4.1438,4.1339,4.1255,4.1114,4.1071,4.1029,4.0958,4.0816,4.0688,4.0516,4.03,4.0069,3.9865,3.9829,3.9837,4.0064,4.006,4.0472,4.0978,4.1208,4.132,4.17,4.1647,4.1298,4.0846,4.0593,4.0351,4.0096,3.9981,3.9942,3.9749,3.9633,3.953,3.9374,3.9218,3.9062,3.8788,3.8631,3.8473,3.8157,3.7945,3.756,3.7316,3.7047,3.6603,3.6277,3.6004,3.5676,3.5202,3.4524,3.3851,3.3161,3.2534,3.2076,3.173,3.1383,3.1034,3.0859,3.0684,3.0499,3.0323,3.0039,2.9745,2.9745,2.9509,2.9213,5.1032,5.0972,5.0972,5.0896,5.0705,5.0557,5.024,4.9726,4.9199,4.8783,4.8349,4.7972,4.758,4.7186,4.717,4.6701,4.606,4.6013,4.5803,4.5426,4.5352,4.4964,4.4511,4.432,4.4205,4.4143,4.4065,4.3949,4.3847,4.3847,4.3754,4.3581,4.3423,4.3305,4.329,4.309,4.297,4.293,4.289,4.285,4.2835,4.2729,4.2688,4.2688,4.2688,4.2688,4.2688,4.2688,4.2444,4.2049,4.1841,4.1773,4.1633,4.1564,4.1507,4.1381,4.1255,4.1114,4.1057,4.1056,4.1039,4.092,4.0972,4.1144,4.1266,4.126,4.1633,4.1957,4.2025,4.2218,4.2266,4.2092,4.1746,4.1484,4.1198,4.0795,4.0338,4.0236,4.0134,3.9929,3.9826,3.9788,3.953,3.9478,3.9322,3.9102,3.8998,3.8841,3.8566,3.8409,3.821,3.7838,3.7584,3.7197,3.682,3.6549,3.6223,3.5742,3.5191,3.4468,3.3738,3.2991,3.2592,3.219,3.1787,3.1498,3.1373,3.1199,3.0976,3.0743,3.0392,3.0157,3.0157,3.0039,2.9754,5.1684,5.1552,5.1552,5.1328,5.1064,5.0972,5.0902,5.0621,5.0069,4.9758,4.9598,4.9069,4.8765,4.861,4.8483,4.8115,4.7225,4.7188,4.667,4.6181,4.5782,4.5395,4.5098,4.4776,4.4587,4.4435,4.4205,4.4143,4.4104,4.4065,4.3988,4.3895,4.3793,4.3729,4.3636,4.3463,4.3384,4.3305,4.317,4.3076,4.3036,4.2875,4.285,4.2879,4.3042,4.3016,4.3031,4.3061,4.3079,4.3005,4.2629,4.231,4.209,4.1924,4.1915,4.1849,4.1949,4.1922,4.1795,4.221,4.2295,4.2178,4.2396,4.2657,4.2488,4.2596,4.2787,4.3017,4.321,4.3129,4.286,4.2484,4.2177,4.2029,4.1832,4.1398,4.0846,4.0605,4.044,4.0173,4.0134,4.0032,3.9839,3.9749,3.9633,3.9362,3.931,3.9154,3.8998,3.8841,3.8566,3.8198,3.7986,3.7826,3.74,3.697,3.6603,3.6223,3.5687,3.508,3.43,3.3614,3.3161,3.2696,3.2352,3.2065,3.1893,3.172,3.1441,3.1208,3.0859,3.0684,3.0509,3.0343,3.0108,5.1778,5.1758,5.1721,5.1668,5.1594,5.1594,5.1557,5.1487,5.1171,5.0967,5.0967,5.0639,5.0155,4.9539,4.9507,4.9042,4.8322,4.8173,4.778,4.7073,4.6379,4.608,4.5771,4.5446,4.5086,4.4958,4.4814,4.4625,4.4473,4.432,4.4166,4.4011,4.4026,4.3949,4.391,4.3892,4.3754,4.3651,4.3587,4.3528,4.3424,4.3329,4.3304,4.3334,4.3707,4.393,4.4065,4.4493,4.4732,4.4426,4.3501,4.2769,4.2746,4.3013,4.3136,4.3184,4.3423,4.3528,4.3458,4.3344,4.3257,4.3111,4.3251,4.3334,4.3743,4.3613,4.3782,4.392,4.3904,4.3689,4.3321,4.2935,4.2679,4.2484,4.2226,4.198,4.1683,4.1185,4.0744,4.0555,4.0402,4.0287,4.0083,4.0044,3.989,3.9672,3.9581,3.9478,3.9374,3.9206,3.8945,3.8566,3.8461,3.825,3.7933,3.7507,3.7089,3.6712,3.6223,3.573,3.4958,3.4412,3.4009,3.3434,3.2867,3.2638,3.242,3.2065,3.172,3.1546,3.1383,3.1208,3.0976,3.0752,3.0587,5.2305,5.2305,5.2197,5.2142,5.2017,5.1961,5.1888,5.1778,5.1684,5.1647,5.161,5.1487,5.1164,5.0749,5.0716,5.0285,4.9564,4.9159,4.878,4.8304,4.7825,4.7537,4.7325,4.6829,4.637,4.5561,4.5129,4.498,4.4867,4.4823,4.4625,4.4419,4.4335,4.4243,4.4234,4.4369,4.4419,4.4461,4.4633,4.4714,4.4579,4.4554,4.4514,4.4449,4.4764,4.4918,4.4825,4.5065,4.5244,4.5083,4.4441,4.3849,4.3797,4.401,4.4145,4.4221,4.4314,4.4436,4.4323,4.4471,4.4472,4.4225,4.4397,4.4595,4.4688,4.4578,4.4524,4.4624,4.4569,4.4303,4.3893,4.3546,4.3307,4.3067,4.2811,4.2631,4.2387,4.1796,4.1198,4.0909,4.0757,4.0542,4.0389,4.0338,4.0134,3.9929,3.9878,3.9775,3.9594,3.9426,3.9322,3.905,3.8945,3.8736,3.8409,3.7986,3.7572,3.7197,3.6874,3.6386,3.5785,3.5345,3.4969,3.43,3.3579,3.3172,3.2887,3.2477,3.2241,3.1981,3.1808,3.1682,3.148,3.1297,3.1103,5.2903,5.2868,5.2711,5.2537,5.2395,5.2285,5.2158,5.1997,5.1977,5.1997,5.1924,5.1924,5.1838,5.1798,5.1765,5.1421,5.0792,5.0121,4.9635,4.9479,4.9096,4.8839,4.8695,4.8345,4.7753,4.6191,4.5992,4.5843,4.5806,4.5606,4.569,4.5375,4.517,4.5203,4.4987,4.5122,4.5364,4.5346,4.5696,4.5859,4.5794,4.5784,4.5703,4.5621,4.5792,4.58,4.5706,4.5815,4.586,4.5713,4.5687,4.5562,4.5394,4.508,4.4938,4.4953,4.513,4.5207,4.5268,4.5489,4.5609,4.5537,4.5756,4.5838,4.5642,4.5403,4.525,4.5187,4.5092,4.4847,4.4551,4.427,4.4007,4.377,4.3546,4.3307,4.2984,4.2338,4.1944,4.1448,4.1248,4.0997,4.0744,4.0593,4.0377,4.0224,4.0173,4.0083,3.989,3.9749,3.9581,3.9374,3.9218,3.8945,3.8631,3.8461,3.8051,3.7726,3.7393,3.7099,3.6688,3.6409,3.588,3.4935,3.4298,3.3912,3.372,3.3581,3.3204,3.2662,3.2523,3.2573,3.2268,3.1844,3.1679,5.2903,5.2903,5.2868,5.2834,5.2799,5.2764,5.2694,5.2729,5.2659,5.2624,5.2447,5.2464,5.2285,5.2122,5.2066,5.1878,5.1481,5.0955,5.0588,5.0402,4.9987,4.969,4.9632,4.9469,4.9037,4.8679,4.8093,4.7723,4.7462,4.7385,4.6997,4.704,4.6872,4.6702,4.6625,4.685,4.6647,4.6425,4.6576,4.6619,4.6417,4.6295,4.627,4.6234,4.6598,4.6698,4.6864,4.7243,4.7546,4.7546,4.735,4.7162,4.6896,4.6381,4.606,4.6034,4.6203,4.6324,4.6354,4.6387,4.6461,4.6418,4.6447,4.6447,4.6314,4.6121,4.5911,4.5685,4.5413,4.5078,4.4986,4.4769,4.4551,4.4317,4.4068,4.3784,4.3519,4.3197,4.2714,4.2177,4.1845,4.1448,4.1248,4.0997,4.0795,4.0593,4.0491,4.0338,4.0083,3.9993,3.9878,3.9685,3.9426,3.9114,3.8841,3.8736,3.8538,3.8224,3.803,3.7988,3.7613,3.7426,3.6851,3.6083,3.5422,3.5035,3.4844,3.4639,3.4355,3.3932,3.3765,3.3615,3.3274,3.2944,3.2791,5.3212,5.3212,5.3076,5.3041,5.3041,5.2955,5.2903,5.2903,5.2903,5.2834,5.2764,5.2764,5.2676,5.2535,5.2516,5.2464,5.2243,5.2061,5.1792,5.1588,5.1234,5.0963,5.0859,5.0645,5.0605,5.0513,5.0204,4.9404,4.8583,4.819,4.8098,4.7906,4.7785,4.7671,4.7589,4.7731,4.7731,4.7572,4.7741,4.7846,4.766,4.7553,4.7472,4.7456,4.7485,4.7574,4.7597,4.7764,4.7992,4.7934,4.7864,4.7837,4.7646,4.7468,4.7056,4.6918,4.6985,4.7121,4.7121,4.699,4.6887,4.6741,4.6756,4.6727,4.6594,4.6462,4.6373,4.6194,4.5956,4.5625,4.5504,4.5276,4.5046,4.4815,4.463,4.4397,4.4101,4.3926,4.3485,4.2895,4.2471,4.2092,4.1733,4.1498,4.1198,4.0997,4.0795,4.0593,4.0389,4.0287,4.0185,3.9929,3.9697,3.9488,3.9253,3.9186,3.9176,3.8969,3.8788,3.8737,3.8663,3.8524,3.8137,3.7544,3.6917,3.6463,3.5857,3.5631,3.5412,3.5189,3.4852,3.4526,3.4278,3.4111,3.3937,5.3518,5.3467,5.3314,5.3264,5.323,5.3093,5.3024,5.3024,5.3058,5.3007,5.2972,5.2938,5.2938,5.2903,5.2868,5.2868,5.2903,5.2835,5.2697,5.254,5.2385,5.231,5.2233,5.2122,5.1885,5.1717,5.1658,5.1026,4.9839,4.9404,4.9053,4.9016,4.8829,4.8577,4.8516,4.8866,4.8828,4.889,4.9124,4.9365,4.9275,4.9144,4.898,4.8728,4.8578,4.8423,4.8309,4.8339,4.8343,4.826,4.8175,4.8091,4.8049,4.8007,4.7837,4.7525,4.7381,4.7352,4.7309,4.7266,4.7179,4.7033,4.6975,4.6887,4.6815,4.6727,4.6624,4.6594,4.6403,4.618,4.6015,4.579,4.5549,4.5307,4.5184,4.5046,4.4676,4.4443,4.4303,4.377,4.3211,4.2776,4.2435,4.2043,4.1759,4.1498,4.1285,4.106,4.0795,4.0593,4.0491,4.0185,4.0019,3.9849,3.973,3.975,3.9814,3.9894,3.9766,3.9763,3.9728,3.9729,3.9316,3.896,3.8684,3.8183,3.7413,3.6709,3.6681,3.6404,3.5865,3.5558,3.548,3.5212,3.4954,5.3518,5.3518,5.3467,5.3467,5.3467,5.3433,5.3416,5.3399,5.3399,5.3298,5.3144,5.3144,5.3076,5.2972,5.2938,5.2903,5.2903,5.2938,5.2938,5.2868,5.2799,5.2764,5.2764,5.2799,5.2553,5.2447,5.2288,5.2004,5.1283,5.101,5.0885,5.065,5.0435,5.0384,5.0023,5.0074,5.0236,4.9986,4.9868,4.9677,4.9437,4.9316,4.9275,4.9235,4.9153,4.9113,4.9031,4.899,4.8949,4.8816,4.862,4.8453,4.8286,4.8091,4.8007,4.788,4.7724,4.7495,4.7396,4.7396,4.7352,4.7251,4.7251,4.7251,4.7121,4.6946,4.68,4.6594,4.655,4.655,4.6462,4.6269,4.6046,4.5821,4.564,4.5413,4.5092,4.5,4.4847,4.4583,4.4007,4.3499,4.3067,4.2693,4.2302,4.2043,4.1782,4.1511,4.1261,4.0997,4.1014,4.0811,4.0581,4.0412,4.0521,4.0505,4.0608,4.0778,4.0686,4.0701,4.0783,4.0767,4.0749,4.0494,4.0156,3.9683,3.8816,3.8271,3.8129,3.7703,3.7147,3.6861,3.6727,3.6392,3.5929,5.3767,5.3784,5.3767,5.3701,5.3618,5.3601,5.3584,5.3501,5.3501,5.345,5.3382,5.3382,5.3314,5.3246,5.323,5.323,5.3246,5.3212,5.3161,5.3076,5.3041,5.3024,5.2903,5.2903,5.2834,5.2764,5.2677,5.2607,5.2305,5.1924,5.161,5.1557,5.1445,5.1231,5.1086,5.0956,5.0788,5.0579,5.0402,5.0207,5.0034,4.99,4.9805,4.9781,4.9582,4.9517,4.9477,4.9356,4.9275,4.9169,4.9031,4.8975,4.8826,4.8676,4.851,4.8328,4.8133,4.7922,4.7767,4.7724,4.7596,4.751,4.7467,4.7409,4.7294,4.7207,4.7121,4.699,4.6858,4.68,4.6712,4.6535,4.6417,4.6284,4.609,4.5866,4.564,4.5549,4.5413,4.5138,4.4904,4.449,4.4101,4.365,4.3195,4.2644,4.2351,4.2083,4.1723,4.1348,4.1445,4.1593,4.1325,4.1066,4.1319,4.1415,4.16,4.1697,4.14,4.1489,4.1744,4.1815,4.1663,4.1529,4.1151,4.061,4.0009,3.9488,3.903,3.8755,3.8455,3.8096,3.7665,3.716,3.6738,5.4239,5.4239,5.4078,5.3932,5.3783,5.3783,5.3734,5.3618,5.3668,5.3635,5.3584,5.3584,5.3551,5.3517,5.3484,5.3467,5.3467,5.3518,5.3416,5.3298,5.3264,5.3212,5.3127,5.3093,5.3041,5.2972,5.2938,5.2868,5.2694,5.2412,5.2106,5.1908,5.1868,5.1704,5.1557,5.1408,5.1258,5.1048,5.0918,5.0765,5.0628,5.0441,5.0331,5.023,5.005,4.9852,4.9812,4.9773,4.9677,4.9541,4.9477,4.9396,4.9316,4.9087,4.8965,4.8785,4.8661,4.8537,4.8343,4.8175,4.7922,4.7752,4.7666,4.7624,4.7424,4.7381,4.7337,4.7266,4.7121,4.7033,4.6975,4.68,4.6668,4.6624,4.655,4.6373,4.6224,4.6177,4.6187,4.6104,4.5901,4.5742,4.5317,4.4783,4.4152,4.3355,4.2914,4.269,4.2391,4.2123,4.2293,4.2599,4.2241,4.2047,4.2368,4.2543,4.2677,4.2544,4.2288,4.2243,4.2444,4.237,4.2125,4.1992,4.1903,4.157,4.0992,4.0454,3.9943,3.9532,3.9167,3.8942,3.8526,3.8036,3.7495,5.493,5.4869,5.4271,5.4013,5.398,5.398,5.398,5.3915,5.3915,5.3915,5.3899,5.3783,5.3684,5.3668,5.3618,5.3568,5.3501,5.3518,5.3501,5.3501,5.3467,5.3433,5.3399,5.3348,5.3314,5.3179,5.3195,5.3093,5.2938,5.285,5.2537,5.2307,5.2214,5.2013,5.1851,5.1741,5.161,5.1462,5.135,5.1183,5.101,5.0896,5.082,5.065,5.0573,5.055,5.055,5.0418,5.0324,5.0097,4.9955,4.9812,4.9693,4.9493,4.9356,4.9316,4.9178,4.9072,4.8949,4.8495,4.8076,4.8007,4.7922,4.7822,4.7624,4.7581,4.751,4.7396,4.7294,4.7326,4.7209,4.7077,4.7095,4.7288,4.7362,4.717,4.7021,4.6918,4.6916,4.6998,4.693,4.6787,4.667,4.6168,4.5414,4.4642,4.4001,4.3729,4.3607,4.3356,4.3552,4.3641,4.3229,4.3219,4.361,4.363,4.3437,4.332,4.3187,4.311,4.3151,4.2893,4.2581,4.2369,4.2256,4.2155,4.194,4.1287,4.0699,4.0281,3.9873,3.9591,3.9178,3.8645,3.8096,5.5066,5.4992,5.4714,5.4494,5.4271,5.4175,5.4078,5.4013,5.398,5.398,5.4013,5.3915,5.3882,5.3849,5.3866,5.38,5.3817,5.3817,5.3751,5.3634,5.3601,5.3584,5.3534,5.3501,5.3433,5.3365,5.3382,5.3365,5.328,5.3161,5.3041,5.2834,5.2692,5.2499,5.2321,5.2069,5.1904,5.1758,5.1721,5.1557,5.152,5.1462,5.1408,5.135,5.1199,5.1162,5.1124,5.0896,5.0765,5.0612,5.0457,5.034,5.0168,4.9995,4.9876,4.9836,4.9693,4.958,4.9484,4.898,4.851,4.816,4.8091,4.7964,4.788,4.7852,4.7724,4.7596,4.7585,4.7722,4.7878,4.785,4.7925,4.8164,4.8209,4.8001,4.7911,4.7778,4.7821,4.7931,4.7928,4.7894,4.7733,4.7554,4.6743,4.5929,4.5316,4.4829,4.4724,4.4674,4.4783,4.4743,4.4343,4.4321,4.4639,4.445,4.4149,4.4061,4.4026,4.3793,4.3615,4.3381,4.306,4.2862,4.2594,4.2481,4.2199,4.1859,4.1402,4.093,4.0525,4.0188,3.972,3.9308,3.8823,5.5348,5.5277,5.5234,5.4992,5.4652,5.4477,5.4382,5.4303,5.4335,5.4271,5.4224,5.4192,5.411,5.4078,5.4013,5.398,5.3948,5.3948,5.3899,5.3849,5.38,5.3734,5.3685,5.3651,5.3634,5.3568,5.3551,5.3551,5.3467,5.3332,5.3264,5.323,5.3161,5.2955,5.2676,5.2464,5.225,5.2178,5.2069,5.1997,5.1944,5.1888,5.1778,5.1758,5.161,5.1573,5.1499,5.1333,5.1221,5.1108,5.101,5.088,5.0765,5.0634,5.0464,5.0372,5.0327,5.02,5.004,4.945,4.8996,4.8702,4.8469,4.8343,4.8233,4.8286,4.8359,4.8145,4.8207,4.8407,4.8699,4.8685,4.87,4.888,4.8895,4.8761,4.8745,4.8685,4.8832,4.8946,4.8913,4.8909,4.8999,4.8803,4.7802,4.7028,4.6502,4.6126,4.6025,4.593,4.6007,4.5864,4.5531,4.5617,4.5688,4.5249,4.4807,4.4576,4.4463,4.4081,4.3903,4.367,4.3436,4.3172,4.2961,4.2793,4.2525,4.2243,4.1915,4.1586,4.1115,4.0653,4.0305,3.9837,3.9521,5.589,5.5861,5.5735,5.5413,5.5022,5.4974,5.4961,5.4882,5.49,5.4824,5.4717,5.4575,5.4399,5.4271,5.4207,5.4175,5.4143,5.411,5.4045,5.4063,5.3997,5.3997,5.3965,5.3882,5.3816,5.3717,5.3684,5.3668,5.3551,5.3551,5.3517,5.345,5.3382,5.3246,5.292,5.2868,5.2868,5.2834,5.2624,5.243,5.2324,5.2214,5.2122,5.1997,5.1961,5.1961,5.1851,5.1762,5.1688,5.1647,5.1645,5.1566,5.1528,5.1345,5.1208,5.1154,5.1426,5.1517,5.1454,5.0151,4.9662,4.9521,4.9404,4.9202,4.8927,4.8979,4.9237,4.9096,4.9374,4.9607,4.9642,4.9598,4.9584,4.9689,4.9779,4.9734,4.9733,4.9627,4.9788,4.9844,4.9916,4.9971,5.015,4.9934,4.8889,4.8134,4.7649,4.7363,4.7214,4.7097,4.7073,4.6836,4.6558,4.6395,4.6335,4.5887,4.5462,4.5221,4.4897,4.4572,4.43,4.4081,4.3793,4.3504,4.3227,4.306,4.2905,4.2694,4.2356,4.1972,4.1586,4.1115,4.0769,4.0421,4.0118,5.6255,5.6095,5.6039,5.585,5.5572,5.5277,5.5156,5.5109,5.5053,5.4961,5.493,5.4838,5.4807,5.4697,5.4665,5.4603,5.462,5.4543,5.4497,5.4321,5.4257,5.4078,5.4045,5.4045,5.398,5.3915,5.3882,5.3882,5.3833,5.38,5.3701,5.3668,5.3551,5.3348,5.3127,5.3007,5.2903,5.2868,5.2799,5.2764,5.2677,5.264,5.257,5.2483,5.2464,5.2478,5.2368,5.2313,5.2307,5.2297,5.231,5.2499,5.256,5.2443,5.2786,5.278,5.2967,5.2783,5.2547,5.1845,5.1378,5.1077,5.0637,5.0455,5.0501,5.0399,5.0325,5.0171,5.0317,5.0478,5.047,5.0531,5.0608,5.1061,5.1151,5.0999,5.0922,5.0737,5.0717,5.0762,5.0805,5.0604,5.0653,5.0519,4.9681,4.9276,4.8861,4.8479,4.8283,4.8105,4.7937,4.7712,4.7448,4.7219,4.6911,4.6533,4.6112,4.5848,4.5475,4.5113,4.4789,4.4531,4.4203,4.3861,4.3628,4.3326,4.3116,4.2961,4.2694,4.2356,4.2029,4.1631,4.1287,4.1,4.0781,5.6573,5.641,5.6401,5.6328,5.6126,5.5653,5.5437,5.5437,5.5366,5.5294,5.5264,5.5264,5.5156,5.5096,5.5066,5.5022,5.4992,5.4917,5.4824,5.4669,5.4557,5.4494,5.4399,5.4271,5.4289,5.4192,5.4078,5.4045,5.3948,5.398,5.3915,5.3816,5.3735,5.3804,5.3619,5.35,5.3127,5.3127,5.3093,5.3007,5.2972,5.2903,5.2868,5.2917,5.3051,5.32,5.3144,5.3138,5.3197,5.3218,5.3374,5.3593,5.3737,5.386,5.4098,5.4005,5.4076,5.4023,5.4048,5.389,5.3495,5.3143,5.2339,5.1732,5.1696,5.1548,5.1476,5.1354,5.129,5.1381,5.1497,5.1559,5.1637,5.2079,5.1895,5.1697,5.1589,5.1374,5.1219,5.1324,5.1199,5.1058,5.0964,5.0775,5.0357,5.0224,5.0057,4.9634,4.9227,4.8945,4.8695,4.8395,4.8142,4.7838,4.7531,4.7222,4.6794,4.6414,4.606,4.5688,4.5274,4.4964,4.4585,4.4271,4.4026,4.3738,4.3406,4.3184,4.2918,4.275,4.2594,4.2199,4.1846,4.1573,4.1357,5.6839,5.6803,5.6776,5.6794,5.6689,5.6154,5.5947,5.5918,5.589,5.5822,5.5706,5.5695,5.5514,5.5289,5.5242,5.5199,5.5144,5.5083,5.5053,5.5022,5.4944,5.493,5.4869,5.4793,5.4637,5.4494,5.4399,5.4303,5.4078,5.43,5.4283,5.4269,5.4426,5.4549,5.455,5.4347,5.3957,5.3889,5.3786,5.3768,5.3734,5.3462,5.3511,5.3611,5.3862,5.4045,5.4194,5.4408,5.4692,5.484,5.4991,5.4932,5.4839,5.4691,5.4523,5.4529,5.4881,5.5306,5.5597,5.5431,5.532,5.4713,5.3639,5.2729,5.239,5.2655,5.2632,5.2606,5.2604,5.2653,5.274,5.2575,5.2425,5.2382,5.2124,5.2017,5.1972,5.1818,5.165,5.1541,5.1354,5.1199,5.112,5.0932,5.079,5.0695,5.0504,5.0264,4.9815,4.9488,4.9242,4.8945,4.8695,4.8445,4.8142,4.7787,4.7466,4.704,4.669,4.6284,4.5861,4.5448,4.5126,4.4802,4.4476,4.4081,4.3696,4.3364,4.3085,4.2986,4.2887,4.2594,4.2187,4.2086,4.1928,5.7163,5.7061,5.6984,5.6899,5.6768,5.6609,5.6429,5.6245,5.6179,5.6067,5.6039,5.5908,5.5815,5.57,5.57,5.5689,5.5601,5.5543,5.5531,5.5443,5.5277,5.5187,5.5126,5.5053,5.4948,5.4886,5.4824,5.4818,5.4842,5.4957,5.5422,5.5735,5.5513,5.5688,5.5689,5.5604,5.5366,5.511,5.4972,5.4802,5.4818,5.4732,5.4662,5.478,5.4949,5.5099,5.5162,5.5295,5.5427,5.5286,5.5649,5.5793,5.5826,5.6187,5.6429,5.6203,5.6261,5.6265,5.629,5.6109,5.595,5.591,5.5165,5.4737,5.4278,5.3845,5.3793,5.3659,5.3565,5.3462,5.3305,5.3173,5.2995,5.2788,5.2563,5.2443,5.2352,5.2124,5.1956,5.1741,5.1587,5.1354,5.1261,5.112,5.1026,5.0979,5.087,5.0632,5.0408,5.0023,4.9795,4.9502,4.9256,4.8994,4.8645,4.828,4.7976,4.7657,4.726,4.686,4.6455,4.6034,4.5702,4.5339,4.5007,4.4465,4.3874,4.3687,4.3662,4.3285,4.3148,4.2843,4.255,4.2536,4.2522,5.7455,5.7356,5.7282,5.7188,5.713,5.7036,5.6933,5.6768,5.6546,5.6455,5.6428,5.6328,5.6209,5.6154,5.6172,5.6116,5.5993,5.5908,5.585,5.5689,5.5601,5.5525,5.5437,5.5354,5.5324,5.5334,5.5471,5.561,5.5701,5.605,5.6537,5.6664,5.6654,5.6762,5.6797,5.6782,5.6833,5.6558,5.6317,5.5993,5.5907,5.5889,5.5786,5.5852,5.597,5.6052,5.6031,5.6097,5.6244,5.6205,5.6777,5.6804,5.6801,5.7092,5.7256,5.7001,5.6942,5.6806,5.6796,5.6619,5.6463,5.6346,5.6284,5.5821,5.5385,5.4911,5.4627,5.438,5.4242,5.4044,5.3829,5.364,5.3437,5.3233,5.3055,5.2877,5.2653,5.2427,5.22,5.1987,5.1787,5.1541,5.1401,5.1308,5.1167,5.112,5.1058,5.0964,5.0742,5.0423,5.0231,5.0038,4.9795,4.9551,4.9143,4.8781,4.8531,4.8229,4.7875,4.7428,4.7043,4.6727,4.6491,4.6044,4.5642,4.5165,4.4767,4.4523,4.4426,4.4059,4.3827,4.3734,4.3563,4.3299,4.3216,5.7625,5.7625,5.7619,5.7577,5.7577,5.7437,5.7406,5.7363,5.7028,5.6847,5.6821,5.6794,5.6662,5.6555,5.6546,5.642,5.6328,5.6263,5.6172,5.5957,5.5975,5.5957,5.5936,5.5892,5.6006,5.6059,5.6292,5.6733,5.6821,5.7168,5.7442,5.7442,5.7426,5.7644,5.7977,5.791,5.7964,5.8067,5.7432,5.6833,5.6507,5.6285,5.613,5.6211,5.6566,5.6936,5.7089,5.7427,5.7881,5.7865,5.7811,5.7687,5.754,5.7463,5.7385,5.7327,5.7289,5.7214,5.7139,5.6987,5.6872,5.6719,5.6541,5.6346,5.5974,5.5612,5.5262,5.4973,5.479,5.4555,5.4386,5.4173,5.3974,5.3699,5.3481,5.3261,5.3011,5.2788,5.2533,5.2291,5.2017,5.1818,5.1649,5.1509,5.1354,5.1261,5.1167,5.1167,5.1026,5.0757,5.0614,5.0471,5.0198,4.9941,4.9683,4.934,4.9058,4.8695,4.8409,4.8158,4.7836,4.7597,4.7325,4.6903,4.6531,4.6284,4.5987,4.5654,4.5307,4.5036,4.4878,4.4864,4.4616,4.4217,4.3906,5.7745,5.7745,5.7649,5.7583,5.7583,5.7577,5.7534,5.7534,5.7437,5.7232,5.6959,5.6873,5.6821,5.6839,5.6812,5.6715,5.6662,5.66,5.6609,5.6519,5.6482,5.6543,5.6579,5.683,5.6922,5.7109,5.7488,5.8016,5.8352,5.8531,5.8741,5.91,5.8938,5.8929,5.9036,5.8971,5.9043,5.9132,5.8684,5.8067,5.7826,5.784,5.7872,5.7767,5.7918,5.7795,5.7825,5.7838,5.7918,5.7865,5.7881,5.7828,5.7792,5.7772,5.7662,5.7551,5.7514,5.7476,5.7364,5.7289,5.7176,5.7084,5.6949,5.6757,5.6486,5.6149,5.583,5.5572,5.5287,5.5097,5.4906,5.4697,5.4502,5.4173,5.3915,5.3655,5.3409,5.3144,5.2893,5.2608,5.2322,5.2094,5.1926,5.1741,5.1587,5.1401,5.1261,5.1167,5.1214,5.1041,5.0885,5.0742,5.0534,5.0279,5.0072,4.9781,4.9453,4.9264,4.8945,4.8807,4.8673,4.8553,4.8341,4.7947,4.7576,4.7344,4.703,4.6486,4.6191,4.6,4.5732,4.5641,4.556,4.5246,4.489,5.7904,5.7881,5.7815,5.7768,5.7768,5.7721,5.7697,5.7691,5.7625,5.7461,5.7264,5.7206,5.7156,5.713,5.7105,5.7028,5.6977,5.6899,5.6821,5.6804,5.7163,5.7245,5.7424,5.7834,5.8075,5.8302,5.8743,5.926,5.9742,5.977,5.9878,6.01,5.9993,5.9881,5.9833,5.9768,5.9702,5.957,5.9504,5.9285,5.8909,5.8806,5.8596,5.849,5.8402,5.8331,5.826,5.8152,5.8063,5.7991,5.7971,5.7918,5.7881,5.7881,5.7845,5.7772,5.7735,5.7698,5.7551,5.7476,5.7439,5.7364,5.7235,5.7025,5.6987,5.668,5.633,5.6053,5.583,5.5604,5.5369,5.5164,5.4948,5.4681,5.4444,5.4189,5.3844,5.3437,5.3217,5.304,5.2757,5.2473,5.2261,5.1987,5.1834,5.1741,5.1556,5.1354,5.1354,5.1276,5.1105,5.0964,5.0757,5.0662,5.0489,5.0168,4.9844,4.9672,4.9571,4.9736,4.9751,4.9646,4.9403,4.905,4.8772,4.8514,4.8093,4.7585,4.7306,4.7236,4.6817,4.6429,4.6264,4.6142,4.5775,5.7978,5.7978,5.7978,5.7978,5.7978,5.7862,5.7815,5.781,5.7679,5.7673,5.7631,5.7649,5.7649,5.7553,5.7486,5.7363,5.7354,5.7496,5.7289,5.7446,5.7952,5.8195,5.8547,5.8952,5.9284,5.9604,5.9999,6.0373,6.076,6.0663,6.0542,6.0605,6.0468,6.0294,6.0153,6.0025,5.9928,5.9849,5.9783,5.9702,5.947,5.9201,5.8909,5.8701,5.8544,5.8544,5.849,5.8367,5.826,5.8188,5.808,5.8007,5.7954,5.7918,5.7881,5.7845,5.7845,5.7845,5.7808,5.7698,5.7662,5.7588,5.7439,5.7364,5.731,5.7122,5.6796,5.658,5.6307,5.607,5.5854,5.5612,5.5426,5.5155,5.4906,5.4687,5.4231,5.3785,5.3596,5.3465,5.3173,5.2877,5.2624,5.2307,5.2124,5.2017,5.188,5.1726,5.1587,5.1448,5.1308,5.1152,5.0979,5.0885,5.0775,5.0596,5.0241,5.0354,5.0351,5.0634,5.0833,5.068,5.0475,5.0312,4.9961,4.9529,4.9187,4.8739,4.8523,4.8203,4.7704,4.714,4.6877,4.6743,4.6547,5.7978,5.7978,5.7978,5.7978,5.7978,5.7973,5.7973,5.7932,5.7932,5.7927,5.7886,5.7904,5.7834,5.7601,5.7559,5.7583,5.7777,5.8012,5.8371,5.8583,5.9077,5.9331,5.9623,6.007,6.0619,6.0914,6.1091,6.1293,6.131,6.1193,6.1105,6.1004,6.0818,6.0666,6.0547,6.0454,6.0405,6.0297,6.0185,6.0121,5.9946,5.9652,5.9386,5.9166,5.8978,5.8858,5.8736,5.8561,5.8455,5.8384,5.826,5.8188,5.8116,5.8044,5.7971,5.7918,5.7918,5.7881,5.7845,5.7808,5.7772,5.7789,5.7625,5.7534,5.7497,5.7402,5.7176,5.7063,5.6851,5.6541,5.629,5.607,5.5886,5.5548,5.5303,5.4989,5.4655,5.4301,5.4044,5.3829,5.3612,5.3321,5.3071,5.2788,5.2518,5.2337,5.2109,5.1956,5.1741,5.1602,5.1523,5.1428,5.1332,5.1011,5.087,5.0908,5.0788,5.0949,5.1183,5.1454,5.1633,5.1632,5.1483,5.1086,5.0683,5.021,4.991,4.9512,4.9156,4.87,4.8321,4.7899,4.754,4.7185,4.6959]}]]